GFSSW_sfc_dewp_003.txt.gz
Dewpoint
55 55 55 56 56 56 57 57 57 57 57 58 58 58 59 60 59 55 40 41 45 70 65 54 59 52 48 43 49 52 45 41 44 44 45 53 55 61 62 61 59 61 63 64 68
55 55 55 55 55 56 56 57 57 57 57 57 58 58 59 60 55 48 53 66 69 71 40 35 29 31 33 39 45 47 44 43 46 45 48 49 55 56 59 59 60 62 64 66 68
54 54 55 55 55 55 56 56 56 56 56 57 57 58 60 59 45 32 64 67 69 68 37 32 25 25 30 31 34 45 45 45 45 47 44 49 52 55 58 57 60 62 64 65 67
54 54 54 55 55 55 55 56 56 56 56 56 57 58 60 55 15 26 70 73 69 60 35 27 25 26 32 30 31 32 42 44 44 50 46 48 52 56 58 58 60 64 65 65 66
54 54 54 54 54 55 55 55 55 55 56 56 57 58 53 37 30 40 70 71 63 42 31 24 28 33 32 30 29 30 42 43 46 46 47 47 51 54 56 59 61 65 66 66 67
54 55 55 55 54 54 55 56 56 55 55 56 57 59 47 25 25 37 49 59 48 36 29 25 22 32 33 26 25 40 43 43 43 45 48 52 55 57 58 59 60 64 65 66 67
54 54 54 54 55 54 54 55 54 54 55 57 56 57 48 29 30 32 41 42 32 34 22 25 25 27 29 27 27 42 40 42 45 47 47 51 50 56 58 58 60 63 63 65 65
54 54 54 54 54 55 54 54 54 55 57 56 57 55 36 37 43 41 31 26 27 27 23 20 28 27 27 27 34 40 38 40 43 48 49 50 49 57 58 57 58 59 61 62 64
54 53 53 54 54 54 53 54 54 58 57 57 54 51 40 48 46 45 31 26 24 23 24 19 19 21 22 25 26 29 37 37 41 46 48 50 49 57 58 57 57 58 58 59 61
53 53 53 53 53 53 53 53 52 56 57 57 55 45 35 30 40 35 34 27 22 15 16 11 17 19 26 25 23 34 31 40 41 45 45 49 49 56 57 57 57 57 58 58 59
53 53 53 53 53 52 50 43 29 34 52 39 35 38 35 37 38 34 31 26 16 13 11 14 14 19 18 26 25 27 30 38 41 41 47 47 49 53 56 56 56 57 58 58 59
53 53 53 53 52 52 49 29 27 36 29 32 34 35 39 38 35 32 29 25 15 9 11 13 15 17 22 28 25 21 19 29 35 43 46 48 49 50 52 53 54 55 55 56 58
53 53 53 53 52 48 38 30 33 31 30 29 30 33 34 38 35 34 28 25 17 9 13 10 13 22 27 28 27 24 24 25 33 40 47 48 48 50 52 53 53 54 55 56 57
53 53 53 50 35 44 37 31 34 31 27 27 29 27 30 32 31 32 28 23 16 17 15 14 14 22 28 27 27 28 24 26 33 36 38 46 42 46 50 52 53 55 56 57 58
53 53 51 50 46 44 28 38 34 32 24 27 30 31 30 26 27 27 25 21 21 9 13 12 16 18 24 27 26 25 24 22 31 33 39 41 40 44 49 50 51 53 55 57 59
52 52 50 47 46 46 45 41 32 24 23 28 29 26 27 26 25 21 21 18 21 11 15 11 18 18 20 22 24 27 20 20 29 32 33 41 36 37 46 49 50 51 54 57 58
51 50 49 47 38 39 36 28 23 21 25 22 22 22 21 25 21 22 17 14 16 13 13 18 14 18 23 21 22 19 16 15 24 29 31 33 36 36 45 48 49 49 51 56 58
49 49 49 48 47 45 31 21 26 23 23 23 22 21 21 22 23 23 14 17 16 15 14 14 11 18 18 20 20 17 16 17 11 20 24 30 35 36 40 46 48 48 49 54 56
49 44 45 45 47 41 27 19 22 26 28 24 21 21 20 20 19 22 19 13 14 14 13 14 14 18 19 17 19 19 16 17 16 30 22 23 25 27 42 42 45 45 45 52 54
46 42 42 45 44 33 24 20 18 26 23 21 22 23 21 20 18 18 22 20 11 14 14 14 13 16 16 18 18 16 20 17 20 17 20 21 23 24 34 43 45 45 44 49 54
40 33 27 46 36 27 15 17 14 15 10 16 23 21 20 19 19 20 18 19 20 16 15 14 13 12 16 16 15 23 19 20 20 22 18 18 22 32 33 44 45 45 45 47 53
38 15 30 39 33 29 21 21 23 11 14 14 17 18 17 20 18 18 17 17 21 18 13 14 14 11 11 17 18 17 19 19 16 18 22 22 21 30 37 46 46 45 45 48 51
38 36 40 31 28 29 31 29 29 27 25 17 13 18 22 20 17 18 19 21 26 19 14 15 13 11 12 16 21 18 23 23 22 25 26 23 24 35 41 44 49 48 48 47 49
38 33 34 32 30 28 26 25 27 33 31 32 25 26 25 25 27 24 24 27 28 17 42 29 14 11 10 13 19 18 23 25 22 22 22 23 23 34 38 41 44 46 49 49 48
39 37 34 29 29 27 26 28 28 29 29 32 31 27 34 32 32 30 31 35 40 44 38 14 13 14 11 13 19 19 19 25 21 21 21 22 25 33 38 39 43 44 45 46 49
39 38 40 38 31 26 29 25 28 26 26 32 30 37 38 34 36 33 34 35 41 37 32 16 13 20 16 15 14 14 18 24 22 23 23 23 26 32 37 43 43 42 43 45 49
40 41 40 39 31 29 28 28 29 29 28 28 41 40 38 37 38 36 36 36 42 42 36 22 18 19 13 19 21 20 21 23 27 32 25 24 26 34 40 42 42 42 43 46 48

GFSSW_sfc_dewp_006.txt.gz
Dewpoint
55 55 55 55 56 56 56 57 57 57 57 57 58 58 58 58 59 54 36 42 46 70 72 69 63 59 62 51 50 52 43 41 44 44 47 54 59 60 62 61 61 62 62 65 69
55 55 55 55 55 55 56 56 56 56 57 57 57 58 57 59 55 48 52 66 69 71 41 50 45 46 43 40 46 46 43 42 45 46 51 53 58 59 59 59 61 62 66 68 69
54 54 54 54 55 55 55 56 56 56 56 56 57 57 58 59 40 24 63 66 70 65 35 35 26 31 28 32 39 46 42 44 46 46 53 52 57 57 58 57 61 61 65 68 68
54 54 54 54 54 55 55 55 55 55 56 56 57 57 59 55 20 28 71 72 71 56 34 28 23 25 29 29 30 38 43 45 45 50 52 52 54 58 57 57 61 63 66 67 68
53 53 53 53 54 54 55 55 55 55 55 56 56 57 53 35 30 30 65 71 66 52 33 26 23 28 31 31 31 29 33 44 48 46 49 52 54 57 55 60 63 64 66 66 67
53 53 54 54 54 54 55 55 55 54 55 56 56 56 47 28 29 34 52 60 51 38 31 25 26 32 32 30 25 30 43 45 46 47 49 52 55 56 58 62 64 63 64 65 66
53 53 54 54 53 53 55 55 54 54 55 56 55 56 48 29 30 40 39 47 42 32 29 27 26 28 28 30 28 43 42 43 46 47 52 52 52 54 59 62 63 64 65 65 66
54 53 53 53 53 54 54 54 54 55 58 57 57 54 36 38 41 46 37 29 31 30 25 22 25 23 26 30 38 39 41 40 44 47 52 48 47 57 59 60 62 64 65 65 66
54 54 54 54 54 54 53 53 54 57 57 57 53 49 39 48 41 43 35 28 25 26 25 20 24 22 25 28 36 35 38 39 43 47 49 49 49 57 58 60 61 63 64 64 66
53 53 53 54 53 53 52 53 52 55 57 57 55 45 38 31 36 37 35 26 23 20 22 19 17 23 25 33 35 36 38 38 43 44 48 48 50 57 57 57 59 60 61 63 63
53 53 53 53 53 52 50 42 30 32 47 36 35 39 34 33 38 36 31 27 15 13 12 12 16 17 23 25 36 34 39 39 42 44 46 48 50 56 57 56 57 57 58 60 61
53 53 53 53 52 51 47 26 31 33 21 28 29 31 32 37 33 32 30 27 23 14 15 17 13 17 22 27 29 35 33 37 37 43 45 49 49 55 57 56 56 57 57 58 59
53 52 52 51 51 46 39 27 34 35 25 25 28 29 29 33 30 31 31 25 20 18 11 12 14 19 27 27 23 26 22 25 34 45 48 48 48 51 56 56 57 57 57 58 58
52 52 51 50 34 44 36 35 35 32 26 26 28 28 34 36 32 32 32 27 17 18 12 10 12 19 25 27 27 25 25 25 37 41 38 44 37 48 50 53 53 54 55 57 58
51 52 50 49 44 42 30 41 36 31 19 24 27 30 30 25 24 30 30 25 24 16 15 14 14 18 26 24 26 23 27 28 37 38 40 45 37 40 50 50 51 52 53 55 56
51 50 50 47 44 45 45 42 32 22 20 23 31 26 28 28 24 23 26 25 26 17 14 17 16 18 17 25 27 24 18 25 30 35 33 38 39 36 48 49 50 52 54 56 56
49 49 49 46 37 41 38 26 20 19 23 20 22 22 22 23 24 22 21 19 21 18 17 17 11 17 21 19 25 19 20 19 21 30 30 36 40 36 42 49 48 50 53 56 57
48 48 47 47 46 45 29 15 22 21 20 23 22 21 18 21 22 23 17 22 21 17 17 12 7 14 18 19 19 20 20 20 15 21 29 37 38 39 41 43 49 50 52 54 56
48 44 43 44 47 40 20 11 16 25 26 25 20 21 21 20 19 22 20 19 21 15 13 13 12 17 18 19 18 19 17 19 18 22 21 28 28 30 34 38 46 48 51 52 56
45 42 39 46 45 31 19 14 13 24 22 15 20 21 19 19 18 18 19 21 15 17 15 15 12 14 14 20 20 18 20 17 19 17 21 23 25 27 32 36 41 47 49 51 54
39 26 22 46 35 27 12 11 12 15 15 9 20 22 21 19 18 19 18 19 19 18 16 15 13 12 16 15 13 19 19 20 20 20 17 17 22 29 30 36 39 45 48 49 52
39 11 28 37 31 27 20 16 23 13 16 15 20 18 16 18 16 18 18 17 21 19 15 14 13 12 12 16 18 17 17 19 16 17 22 20 19 28 33 36 45 45 47 47 52
37 36 39 33 29 29 29 29 27 28 26 27 21 17 17 20 21 19 18 20 20 21 20 17 12 10 10 12 21 17 22 20 21 22 23 20 21 32 38 42 48 47 48 50 54
37 29 34 31 30 26 22 21 24 29 30 29 28 27 25 26 25 22 25 30 32 32 52 39 13 11 10 11 15 19 22 23 18 21 22 24 22 28 38 42 46 49 49 49 52
38 34 36 33 31 33 26 25 26 26 28 30 30 31 30 28 30 26 25 27 36 47 37 16 14 14 14 14 19 18 20 24 21 21 20 21 24 28 37 41 44 49 51 51 50
40 38 39 37 37 28 30 25 28 28 27 26 30 32 32 31 32 30 32 33 36 43 36 24 15 16 14 12 16 14 19 26 25 26 24 26 26 29 39 44 44 47 50 50 50
39 39 41 37 36 30 26 30 30 31 29 28 29 33 38 38 36 37 37 37 44 39 44 32 18 18 14 16 15 15 14 18 24 27 24 24 27 32 39 41 43 44 47 48 49

GFSSW_sfc_dewp_009.txt.gz
Dewpoint
55 55 55 55 55 56 56 57 57 57 57 57 57 58 59 58 58 54 37 39 48 75 72 66 59 63 64 58 57 51 44 42 42 48 48 55 54 60 60 60 60 61 61 61 66
55 55 55 55 55 55 55 56 56 56 56 57 57 57 58 58 54 44 52 64 70 74 60 53 51 56 48 40 45 46 45 42 43 47 50 54 55 59 59 58 58 61 64 66 67
54 54 54 54 55 55 55 55 55 55 56 56 57 57 58 58 42 24 67 67 70 68 53 45 46 37 29 35 41 46 42 44 44 46 51 53 55 58 58 56 57 60 64 66 66
53 53 54 54 54 55 55 55 55 55 55 56 56 57 57 54 21 22 69 67 70 59 38 32 32 28 24 23 32 38 42 43 44 49 51 53 55 56 57 53 57 62 65 65 65
53 53 53 53 54 54 54 55 55 55 55 55 56 57 52 33 29 30 65 70 62 49 29 28 24 23 20 28 29 32 31 40 44 50 50 54 55 54 56 56 60 63 65 65 65
53 53 54 54 54 54 55 55 55 54 55 56 56 55 45 25 28 40 59 60 57 44 32 27 23 25 23 32 31 29 35 41 46 50 51 51 54 54 55 61 62 63 64 64 64
52 53 54 54 53 54 55 55 54 54 55 57 56 54 44 28 31 37 42 47 51 41 31 26 25 27 30 29 28 44 43 46 46 48 50 53 53 53 57 61 62 62 63 64 65
52 53 53 53 53 54 55 54 53 55 57 58 57 55 37 39 39 42 41 35 39 35 29 29 26 21 22 30 41 41 42 40 46 48 52 48 43 53 59 60 60 61 62 63 64
52 53 53 54 54 54 53 53 54 56 57 58 55 49 39 49 40 40 41 26 30 35 33 24 27 22 24 29 38 40 37 40 44 47 50 48 44 53 59 59 59 60 61 62 64
53 53 53 53 53 53 52 52 53 57 57 56 55 47 42 33 34 37 38 26 24 27 25 21 20 16 24 29 26 36 38 40 41 46 49 47 47 55 58 58 59 61 61 62 63
53 52 52 52 52 51 50 40 36 35 46 38 35 39 35 34 34 35 32 28 19 25 21 22 15 11 17 30 32 35 39 38 42 46 46 47 47 54 57 58 58 61 62 62 62
52 52 52 51 51 51 45 19 31 28 19 19 22 26 29 30 26 29 32 30 24 22 15 17 12 17 20 24 31 39 38 39 41 45 45 47 46 52 56 57 57 59 60 61 62
52 51 51 50 50 44 38 28 34 31 18 18 23 23 26 27 25 24 29 30 27 27 15 12 10 17 23 24 25 35 37 39 38 42 46 46 43 50 55 57 57 57 58 59 60
51 51 51 48 37 41 32 37 37 33 23 23 25 28 33 31 29 28 26 29 23 26 20 15 12 14 19 24 24 25 35 38 39 39 37 43 35 45 50 55 56 56 57 57 59
51 50 50 48 44 38 30 39 36 32 16 22 25 30 33 31 22 29 31 30 27 24 21 19 12 16 16 21 28 27 32 33 37 37 39 43 38 37 50 51 54 55 56 57 57
50 49 49 46 45 42 41 40 34 24 18 21 30 26 28 28 25 29 28 28 29 26 19 21 17 12 17 24 28 28 29 32 38 35 31 33 37 30 46 49 49 53 55 56 57
49 48 48 44 35 40 39 24 20 19 22 18 22 21 20 24 25 24 24 26 26 28 27 24 19 15 16 21 28 26 25 25 26 29 24 33 40 35 40 47 48 49 53 55 56
47 48 47 46 46 43 32 12 17 17 16 21 22 21 16 21 24 20 24 22 28 28 24 24 18 19 17 15 23 25 23 23 25 24 23 37 34 33 41 41 47 50 51 53 55
47 44 42 42 46 43 20 -1 8 18 24 23 21 18 16 20 20 21 23 21 25 26 24 22 21 15 16 20 23 25 24 23 23 24 21 26 37 34 38 40 43 46 50 53 54
43 41 35 44 46 35 12 7 5 21 25 15 17 21 18 20 16 18 21 23 24 25 27 24 20 12 13 16 21 22 23 20 23 27 24 23 28 23 37 38 42 46 49 51 55
42 27 35 46 39 28 9 4 5 9 22 13 16 19 22 16 17 17 17 20 19 22 26 24 19 14 17 15 12 18 19 24 22 23 23 21 21 35 40 45 42 44 48 51 55
39 12 35 41 32 26 19 17 23 11 7 7 17 19 17 16 14 15 15 20 20 20 19 23 22 21 16 16 16 15 20 23 20 29 24 22 20 30 36 38 40 42 45 50 57
35 34 36 35 23 26 30 26 26 21 19 19 12 17 18 15 17 19 18 19 21 19 26 23 21 20 19 18 18 18 17 21 22 25 32 20 20 33 37 39 41 44 48 53 55
36 27 32 33 31 29 31 26 24 26 26 27 23 25 28 28 29 27 23 23 26 20 50 40 31 29 21 23 19 17 17 20 20 19 22 23 23 30 34 42 43 47 51 53 55
36 33 39 34 33 37 31 26 23 23 27 29 32 29 29 29 28 28 29 28 26 38 41 37 33 31 28 27 21 17 12 16 22 23 22 22 27 29 40 42 46 47 52 53 54
36 37 37 36 37 35 32 26 26 29 30 25 28 26 28 32 32 28 30 30 33 39 40 31 36 28 25 26 22 17 17 15 19 18 24 21 28 32 38 43 46 48 53 53 53
39 38 36 31 32 31 29 29 28 30 29 31 29 29 29 31 35 36 36 37 40 41 45 45 37 36 30 21 21 19 20 19 21 22 23 23 29 35 36 42 45 48 52 54 54

GFSSW_sfc_dewp_012.txt.gz
Dewpoint
55 55 55 55 55 56 56 56 56 56 57 57 58 58 59 59 58 53 38 44 46 75 74 58 56 57 56 52 52 50 40 37 38 40 44 47 47 53 55 57 57 56 55 58 61
54 54 55 55 55 55 56 56 56 56 56 56 57 57 58 59 47 34 54 63 71 75 55 51 49 54 48 41 42 43 40 37 38 39 45 47 47 52 54 55 55 58 58 60 61
54 54 54 54 55 55 55 55 55 56 56 56 56 57 58 57 39 22 65 68 73 73 43 45 39 46 33 24 30 35 38 40 40 39 45 47 48 52 49 52 53 56 60 61 61
53 53 54 54 55 55 55 55 55 55 56 56 56 57 58 51 17 26 68 70 74 60 40 37 33 29 19 20 24 30 32 33 36 42 45 46 48 49 49 48 52 56 60 61 61
53 53 53 54 54 54 55 56 55 55 55 56 56 57 51 35 25 35 65 67 56 53 32 30 23 24 16 20 23 27 26 28 32 40 44 47 48 49 50 52 54 57 60 60 60
53 53 54 54 54 55 55 55 55 54 55 55 56 57 46 24 23 36 47 53 44 43 29 24 19 18 17 20 25 27 28 29 34 41 46 47 49 51 50 53 56 59 60 60 60
52 52 53 54 53 54 55 55 53 54 55 56 57 52 41 25 27 32 37 37 41 39 28 22 19 16 19 22 25 30 33 40 40 45 47 47 50 50 51 55 58 58 59 59 60
52 52 52 52 53 54 54 54 53 55 56 58 58 51 33 33 37 33 35 35 39 42 32 27 21 20 17 27 28 32 32 34 42 46 48 47 42 49 54 55 56 57 59 59 60
52 52 53 53 53 53 53 53 54 57 57 58 54 49 30 47 39 37 38 32 33 33 32 24 22 22 20 24 28 31 29 31 42 46 48 47 40 48 54 54 56 56 57 58 60
53 53 53 52 52 52 51 53 56 58 56 55 53 46 39 27 37 34 39 29 30 31 28 24 22 19 20 20 24 28 29 29 34 44 46 45 43 49 53 52 54 57 56 57 58
53 52 52 51 51 50 48 35 41 43 50 34 30 32 29 31 32 32 35 27 26 26 18 17 16 14 19 23 25 27 29 30 33 42 44 41 42 47 53 53 53 56 57 56 56
52 52 51 51 50 50 44 18 28 25 19 17 18 20 24 26 24 24 32 28 26 22 17 15 12 14 17 20 24 27 28 29 33 43 42 40 42 44 49 53 53 54 56 58 56
52 51 51 50 49 43 32 30 29 26 19 16 17 17 19 20 23 22 30 29 23 21 17 15 8 11 14 16 23 28 27 29 34 42 43 39 41 43 44 50 53 54 54 57 57
51 51 50 49 40 32 28 33 32 29 19 18 21 25 29 26 24 25 22 27 24 19 18 13 8 9 13 16 21 25 26 28 33 37 36 41 33 37 40 46 51 53 54 53 57
51 50 49 48 39 29 27 27 29 31 15 20 23 29 30 28 25 25 23 25 23 21 20 17 10 11 12 13 17 25 26 29 31 34 35 38 36 35 39 41 46 51 53 53 53
51 49 49 39 40 35 32 31 34 24 16 17 24 26 27 27 24 27 24 24 25 22 22 19 15 9 10 10 16 23 26 29 30 29 30 34 34 31 32 42 39 46 50 53 51
49 47 47 40 25 33 33 19 17 13 19 15 18 23 19 18 22 25 25 22 24 25 24 20 15 11 7 10 13 23 26 28 28 27 27 33 32 34 31 33 36 35 46 52 51
47 46 45 39 39 39 30 9 14 11 12 18 19 20 19 16 19 20 19 18 23 23 20 20 15 16 12 10 16 21 25 25 29 24 25 31 31 30 34 33 33 37 40 49 51
47 33 32 37 41 39 22 3 8 11 13 10 14 19 19 17 16 20 22 17 17 23 24 20 19 15 13 12 14 20 24 25 24 25 22 23 31 31 32 34 36 36 42 47 51
40 33 29 36 44 36 15 10 5 2 10 18 15 14 14 15 17 19 20 20 18 22 26 25 23 19 15 13 13 18 23 23 24 29 26 24 27 28 33 30 30 39 42 46 50
36 25 37 45 43 31 12 5 4 0 7 14 13 15 17 15 18 16 17 19 20 21 28 26 23 17 18 14 13 15 20 24 23 24 23 24 24 29 32 33 30 31 41 42 49
32 18 36 40 30 22 17 14 20 2 0 6 11 12 16 18 18 18 18 18 20 23 26 28 24 22 12 10 10 15 21 25 22 31 25 24 21 25 29 29 29 29 29 37 46
31 23 29 35 19 14 20 17 18 14 6 2 4 8 11 14 20 18 16 15 14 19 25 28 26 24 22 12 13 12 14 19 22 26 33 24 24 26 28 33 36 38 38 42 49
31 18 19 34 26 26 25 28 23 18 17 11 10 9 8 13 17 18 17 14 17 16 51 34 24 27 19 23 19 18 13 14 17 20 25 23 27 28 27 31 30 31 39 42 52
32 23 34 19 27 35 35 32 26 22 22 22 20 19 15 17 17 17 19 20 25 41 33 24 34 31 25 22 20 17 15 13 15 19 22 24 24 29 31 31 31 30 33 42 52
34 33 34 30 29 27 26 24 26 23 25 26 26 19 19 22 22 21 21 25 23 22 26 31 37 36 31 26 25 23 21 19 13 13 17 19 22 24 29 32 31 31 33 40 52
38 35 32 28 22 22 21 23 25 31 30 27 28 30 29 28 29 30 30 31 31 29 32 35 34 38 33 27 27 26 27 26 23 16 14 17 23 24 27 28 32 32 38 43 50

GFSSW_sfc_dewp_015.txt.gz
Dewpoint
55 55 55 55 56 56 56 56 57 57 57 58 58 58 59 59 58 53 40 45 48 75 75 54 53 48 49 46 46 45 45 37 34 41 36 38 39 44 49 51 50 51 55 59 62
54 54 55 55 55 55 56 56 56 56 57 57 58 58 59 59 46 32 55 70 74 74 54 45 43 42 44 42 43 40 53 42 34 39 38 39 37 43 45 49 50 52 55 59 61
54 54 54 55 55 55 56 56 56 56 56 56 57 58 58 57 38 23 67 71 74 71 39 40 37 41 39 37 34 34 45 43 35 36 41 40 39 42 43 45 49 52 56 58 60
53 53 54 54 54 55 55 55 56 55 56 56 56 57 58 48 23 37 68 69 74 56 43 37 34 36 37 32 28 29 32 31 32 37 38 39 41 39 40 43 47 53 56 58 59
53 53 53 53 53 54 54 55 55 55 55 55 56 57 52 34 26 44 70 68 58 47 42 32 32 31 33 24 25 27 31 28 29 35 36 40 41 40 39 43 48 53 55 57 58
52 53 54 54 53 54 54 55 55 54 54 55 56 57 46 26 20 39 34 47 43 43 33 30 29 26 28 25 24 27 27 27 29 33 37 39 41 43 42 46 49 54 55 56 56
53 53 54 53 52 53 54 54 53 53 55 56 57 53 36 28 20 24 37 35 36 36 33 25 26 19 21 22 23 27 28 32 31 34 37 39 40 41 43 48 50 53 55 54 55
52 53 53 53 52 53 53 53 52 54 58 57 58 51 34 27 29 24 26 25 30 33 31 24 19 19 20 23 24 24 27 29 31 34 39 41 40 42 45 47 49 51 54 54 55
53 53 53 53 53 52 52 52 53 57 58 58 54 47 32 45 31 27 24 27 28 28 33 25 23 18 19 19 22 27 25 27 31 35 40 40 50 43 46 45 46 50 51 53 55
52 53 52 52 52 51 51 52 53 58 57 54 49 43 36 29 29 31 31 29 25 28 27 26 20 18 16 20 21 27 27 27 35 34 39 38 43 43 46 45 45 48 49 52 53
52 52 52 51 51 50 47 35 41 47 48 36 34 29 27 26 33 29 31 27 24 27 20 20 13 13 18 23 24 26 27 25 30 32 36 38 39 42 47 47 45 48 49 50 52
52 52 52 51 50 49 46 24 26 21 18 18 18 20 24 24 24 26 30 22 22 23 20 15 13 12 17 21 23 24 26 27 29 32 35 37 37 41 47 47 48 48 49 50 51
52 52 51 50 49 44 23 28 24 22 18 15 15 15 15 15 18 21 24 27 18 20 17 11 9 10 15 20 22 24 24 26 27 37 37 36 37 38 41 47 49 48 50 50 50
52 52 51 49 40 27 25 27 21 22 19 14 15 15 16 16 16 17 19 26 22 17 17 13 7 6 10 15 20 22 24 25 25 34 34 33 31 39 37 40 45 49 49 50 50
52 51 50 48 38 28 21 20 20 25 14 18 18 22 22 21 24 22 21 21 24 20 17 15 11 9 10 12 17 21 23 26 26 30 38 30 29 33 36 36 39 45 49 49 50
51 50 49 37 36 34 28 24 23 21 16 16 21 23 25 24 22 23 21 21 23 22 20 16 13 9 7 8 16 18 22 26 25 25 28 33 31 33 35 36 37 39 45 50 51
50 49 46 40 26 26 24 20 14 14 17 15 16 19 20 19 19 21 21 19 19 21 22 19 15 13 7 9 12 17 19 23 24 23 23 30 29 38 34 34 35 35 39 46 51
49 46 43 35 35 33 29 14 15 14 14 12 13 17 16 15 18 19 20 17 19 20 18 19 16 16 12 10 11 14 17 19 27 22 22 27 27 29 34 33 32 32 32 38 47
47 34 29 28 34 33 25 8 12 15 13 11 13 15 17 14 13 17 21 18 17 19 22 20 20 17 14 11 7 11 14 18 21 24 23 24 27 30 33 33 33 32 31 33 45
41 37 27 28 36 34 23 17 12 9 9 9 13 14 16 16 15 16 19 19 16 17 21 22 22 19 13 13 11 7 11 15 22 29 27 23 26 26 34 34 33 33 31 34 42
41 24 33 36 38 34 22 16 15 11 10 8 12 15 13 14 17 17 16 16 17 16 18 18 23 22 21 17 14 9 8 17 19 23 23 24 25 29 35 36 34 33 31 32 39
33 25 30 35 28 27 23 23 24 13 11 7 8 14 17 14 14 15 16 16 15 18 17 21 21 24 20 19 15 13 12 13 20 31 24 25 22 26 29 31 31 31 31 33 37
32 29 27 22 18 15 19 19 18 16 16 11 6 7 13 16 20 18 17 16 17 19 22 23 23 24 24 17 17 16 13 11 13 24 34 25 24 27 29 31 33 32 32 35 38
35 25 22 24 24 18 17 18 20 20 17 17 15 10 9 13 17 20 18 16 16 17 53 35 25 28 22 25 18 18 12 12 12 15 24 23 27 29 30 31 31 33 35 34 36
34 27 25 25 24 27 31 33 28 32 30 24 21 16 12 12 14 14 15 18 16 32 25 24 29 28 25 23 21 14 9 9 12 18 21 22 25 29 32 32 32 32 33 34 34
37 31 31 29 29 27 28 26 18 20 26 27 27 20 18 17 14 14 14 21 22 20 24 23 28 30 26 22 20 19 18 14 13 12 14 17 20 24 28 34 33 32 34 34 35
41 40 36 30 25 22 19 26 24 22 25 31 32 36 33 27 30 30 29 17 19 27 28 29 28 30 29 28 27 23 22 21 21 19 17 17 21 24 27 32 33 34 34 36 35

GFSSW_sfc_dewp_018.txt.gz
Dewpoint
54 55 55 55 55 56 56 56 57 57 57 57 57 58 59 59 58 51 44 46 47 74 73 52 53 51 48 43 45 60 44 43 44 37 34 37 36 44 49 47 49 55 55 58 59
54 54 54 54 55 55 55 56 56 56 56 57 57 58 58 59 47 35 45 68 73 73 38 38 42 45 40 40 42 48 54 45 48 41 37 37 37 40 43 45 47 55 56 58 58
54 54 54 54 53 54 54 55 55 56 56 56 56 57 58 57 38 28 69 73 74 67 29 31 35 38 35 39 39 44 47 44 40 41 40 41 37 38 43 43 47 54 57 58 57
53 54 54 54 53 53 53 54 55 55 55 55 56 57 58 48 24 33 70 73 74 49 34 30 31 34 34 37 37 37 40 39 39 39 43 42 37 37 42 43 48 55 58 58 57
53 53 54 54 53 53 54 54 55 54 54 55 56 57 50 34 30 34 71 68 53 43 35 34 31 33 31 36 34 27 28 36 28 29 34 42 38 37 38 44 48 53 56 58 58
52 53 54 54 54 54 54 54 54 54 54 55 56 57 46 25 24 39 37 47 34 37 33 33 30 32 31 32 31 25 26 28 26 28 32 39 39 38 38 43 47 51 54 56 57
53 53 53 54 53 53 54 53 53 53 54 56 58 53 34 24 28 33 28 31 33 36 30 29 30 28 29 29 29 25 24 27 29 29 32 39 38 38 41 42 46 50 53 54 56
53 53 53 53 53 53 53 52 53 53 55 59 58 50 29 20 27 28 23 31 31 32 30 29 25 24 26 25 24 22 22 24 29 29 34 35 39 38 42 40 44 49 51 53 55
53 53 53 53 53 52 51 51 52 54 58 58 55 49 31 42 31 27 24 21 23 24 30 27 25 19 22 20 20 22 22 23 28 31 35 36 46 46 42 42 44 47 50 51 54
53 53 53 53 52 51 50 51 53 56 57 53 50 44 42 29 29 25 25 20 20 24 23 27 23 18 16 18 18 21 22 24 31 32 33 47 50 46 47 42 43 45 48 51 51
53 53 52 52 51 50 46 40 39 43 48 41 37 29 24 31 27 28 26 21 25 24 22 26 20 19 19 20 22 21 25 24 31 35 31 47 51 51 49 43 42 45 46 49 51
52 52 52 51 50 49 46 33 25 20 17 17 21 31 35 26 28 28 26 26 24 21 23 19 19 17 17 20 20 22 23 26 30 39 37 37 48 49 48 44 43 44 44 45 47
52 52 52 51 49 45 26 21 26 19 16 15 13 13 23 30 25 24 24 26 20 20 21 17 14 12 11 17 20 22 23 25 25 32 34 32 33 39 41 43 44 44 46 45 47
52 52 51 50 40 31 26 27 17 17 16 15 12 11 12 15 15 17 21 25 24 16 18 19 15 10 8 12 19 21 22 23 23 30 31 34 32 42 40 44 45 44 46 47 48
52 52 50 49 38 34 27 24 21 20 14 15 13 15 11 12 13 13 15 19 23 20 15 17 15 10 8 8 15 21 23 23 23 27 35 37 34 38 41 42 44 44 45 46 50
51 51 50 39 38 36 32 24 21 17 16 15 18 18 13 11 11 19 14 16 18 22 19 17 15 12 7 6 9 17 21 22 23 23 26 32 33 35 37 41 39 42 45 48 48
51 49 48 42 32 28 29 22 13 13 19 16 16 19 18 16 13 20 17 15 17 19 22 20 17 13 10 8 8 10 14 20 21 22 22 28 35 38 40 41 40 45 44 47 50
49 47 45 39 37 37 31 19 17 17 16 15 13 16 18 19 17 16 20 18 19 17 18 19 16 15 13 11 10 10 11 19 24 22 22 27 26 33 40 41 40 46 41 44 48
48 39 36 30 31 32 27 18 16 19 18 15 15 13 16 16 16 17 17 18 17 17 20 17 18 17 14 13 9 11 10 12 16 20 21 22 25 26 33 40 38 36 37 36 46
42 39 37 34 29 32 25 24 20 16 15 14 15 15 15 15 16 16 18 19 17 14 18 19 20 18 16 14 13 9 11 8 13 22 24 23 29 29 35 41 41 40 36 36 37
41 31 28 29 30 31 27 23 23 22 21 18 16 14 13 15 16 16 14 16 18 17 17 15 21 20 20 19 16 12 11 11 10 16 20 24 26 33 40 43 42 39 37 36 38
35 27 27 31 26 27 24 25 29 25 25 21 19 15 13 12 15 16 17 16 15 18 17 17 17 22 18 19 17 15 14 12 12 25 18 21 24 28 36 36 39 38 38 38 41
33 30 29 25 21 19 20 18 17 19 23 23 22 18 15 12 18 17 18 16 16 16 20 22 19 23 20 19 21 16 14 15 11 15 26 21 23 28 40 39 41 39 39 43 47
35 25 24 22 22 19 20 21 19 17 19 20 24 25 20 17 16 19 17 16 14 16 50 32 19 25 19 25 22 21 17 17 13 12 18 20 26 30 39 40 38 41 41 43 51
35 30 27 24 23 23 31 34 29 30 27 29 29 28 28 28 15 13 13 15 17 35 28 23 29 26 21 20 21 20 16 16 18 21 20 19 24 32 34 42 40 42 40 44 49
39 32 34 31 29 26 24 24 21 24 28 29 27 31 34 33 34 33 30 27 23 21 22 21 30 29 26 22 21 21 20 16 15 15 17 18 18 22 32 36 44 37 39 44 46
39 45 42 36 26 22 18 19 26 27 34 33 31 35 33 33 35 34 32 30 29 27 29 29 25 32 27 25 24 23 24 22 15 15 13 16 24 29 29 34 39 43 41 45 43

GFSSW_sfc_dewp_021.txt.gz
Dewpoint
55 55 55 54 54 54 55 55 56 56 56 56 57 58 59 59 58 50 44 44 52 72 72 57 56 53 55 59 62 60 54 51 46 45 35 43 48 51 54 56 59 58 61 63 64
54 54 55 54 54 54 54 54 54 54 55 56 56 57 58 59 52 36 46 63 65 72 45 36 41 50 47 48 58 55 53 44 45 47 39 43 50 50 50 54 56 58 61 64 64
53 53 53 53 53 54 54 54 54 54 54 55 56 56 58 58 45 27 70 61 64 69 40 29 29 34 41 41 42 49 45 46 47 44 43 38 39 43 45 53 55 57 60 63 63
52 52 52 53 53 54 54 54 54 54 54 54 55 56 58 53 21 32 71 72 74 62 39 29 24 27 31 34 35 42 42 39 38 45 40 38 38 43 44 52 56 56 56 63 62
52 53 53 53 53 54 54 55 55 55 54 54 55 56 53 42 35 35 70 72 61 49 38 31 25 28 29 33 33 36 38 39 38 41 42 40 41 43 46 55 57 57 57 59 62
53 54 54 54 54 54 54 54 54 54 53 54 55 56 52 28 22 24 53 56 45 41 34 31 30 30 31 32 31 35 33 28 35 40 42 40 40 42 48 56 57 57 57 57 56
54 54 54 54 54 54 54 54 54 52 53 54 56 54 45 26 23 38 40 45 42 36 33 32 32 31 30 31 31 30 29 27 28 29 39 46 47 40 47 53 56 57 57 58 57
54 54 54 54 54 54 53 53 53 52 53 55 58 52 42 27 29 25 22 25 33 31 33 31 29 28 27 28 28 25 24 21 26 29 35 46 45 44 43 51 53 54 56 57 58
53 53 53 53 53 52 52 52 53 54 55 58 55 52 41 44 32 25 25 24 30 31 33 30 28 25 22 23 24 21 20 21 22 29 34 41 44 40 41 48 49 52 53 55 56
53 53 52 52 52 51 51 51 51 54 57 55 51 47 46 34 29 28 27 25 24 25 23 28 27 24 20 20 20 19 20 20 22 30 40 42 42 42 43 44 48 50 51 53 54
53 52 52 52 51 51 47 42 37 42 48 45 42 38 28 30 31 29 26 25 20 19 20 24 24 22 20 16 20 20 20 21 22 32 45 44 42 43 41 45 45 49 50 52 53
52 52 52 52 51 49 47 40 26 23 19 18 22 31 37 38 35 28 25 21 20 17 23 21 21 23 22 19 17 18 19 21 23 33 43 47 44 45 42 41 45 46 49 50 52
53 52 52 51 49 46 32 28 26 19 15 14 14 15 15 22 31 28 25 21 19 22 23 19 23 24 20 19 19 17 18 20 23 33 39 46 45 47 41 44 45 45 47 50 50
53 52 51 51 42 37 33 32 27 21 17 15 14 12 13 15 22 31 28 25 25 21 21 20 21 20 19 16 16 18 20 21 22 25 32 43 39 45 41 43 45 44 44 47 49
52 52 51 50 43 39 34 34 31 23 16 19 15 14 12 11 20 27 29 24 24 23 19 18 20 19 15 12 10 16 22 21 22 23 34 33 32 42 45 44 44 43 44 44 46
52 51 50 43 40 39 37 33 28 19 16 17 14 11 10 10 13 14 25 20 21 24 23 17 18 17 18 15 9 11 17 21 22 22 24 31 32 37 41 43 43 44 45 45 45
51 49 48 44 37 32 38 32 18 15 20 18 16 15 10 10 9 10 13 14 13 16 17 22 19 15 16 14 10 8 9 15 18 19 21 30 31 39 40 40 44 44 45 46 47
50 48 46 41 42 42 39 27 18 20 16 18 17 17 16 14 11 10 11 12 13 14 16 17 19 20 17 14 10 7 6 10 16 18 20 25 28 34 38 39 44 44 43 45 46
49 40 38 36 38 39 33 24 19 21 20 19 19 17 17 18 18 12 11 16 13 12 14 15 18 23 19 17 13 12 6 6 9 16 20 21 23 25 39 37 40 41 40 43 43
44 40 39 39 38 34 29 27 25 24 24 23 21 20 17 16 16 19 15 15 16 14 14 18 21 20 20 17 15 10 13 6 6 7 13 17 22 26 31 38 42 42 42 42 43
43 34 31 28 32 30 25 26 26 26 25 24 24 23 21 19 18 16 15 19 18 19 18 16 16 17 20 17 14 14 9 9 8 8 11 17 18 25 34 41 41 40 39 38 42
37 31 30 31 26 27 25 26 30 25 24 24 26 25 25 24 21 18 16 15 18 18 17 18 16 15 16 19 17 14 13 11 11 14 17 12 13 25 23 39 40 39 38 40 42
35 33 33 30 22 23 24 22 21 18 18 18 19 19 23 23 23 22 21 19 15 14 18 19 16 15 16 16 17 13 14 13 10 15 15 20 15 15 18 39 40 42 45 42 44
39 28 27 29 27 23 22 27 29 31 29 27 28 29 29 26 27 26 25 23 18 13 49 40 17 14 14 16 22 23 16 16 11 10 10 9 10 15 33 39 31 39 39 40 45
42 32 29 29 30 29 29 34 27 24 27 29 30 32 33 30 32 31 33 34 33 37 29 22 22 18 16 18 20 17 21 16 14 10 14 13 12 16 23 41 41 40 42 39 43
39 35 34 34 31 29 27 22 18 24 27 28 29 34 34 36 36 34 32 33 33 32 31 29 29 28 21 18 15 14 19 21 15 15 16 17 17 23 28 43 42 41 37 33 39
42 44 41 35 29 27 26 25 28 30 33 33 27 28 30 31 34 36 34 33 33 33 32 30 28 29 22 25 25 17 16 20 23 19 19 16 16 23 25 32 39 43 39 37 40

GFSSW_sfc_dewp_024.txt.gz
Dewpoint
54 54 54 54 54 54 55 55 55 55 55 55 56 56 58 59 58 55 42 42 51 75 74 69 65 63 65 63 64 61 51 50 46 45 50 54 55 58 59 59 59 61 61 62 63
53 53 53 53 54 54 54 54 55 55 55 55 55 56 57 58 54 45 45 62 66 72 48 63 58 58 61 60 60 54 50 49 46 46 48 50 55 55 58 59 59 60 62 62 63
53 53 53 53 53 54 54 54 54 54 54 54 55 56 57 57 45 29 69 63 66 69 46 39 45 50 48 57 57 55 49 48 47 46 48 51 54 56 58 57 59 60 61 62 62
53 53 53 53 53 54 54 54 54 54 54 54 55 56 57 55 9 27 72 73 66 57 45 41 29 24 28 39 53 48 50 46 46 46 45 49 54 55 56 55 59 62 62 62 63
53 53 53 53 53 53 54 54 54 54 53 54 54 56 52 42 36 23 69 71 63 54 44 36 28 24 26 28 30 39 39 46 45 44 42 41 44 54 54 57 60 62 63 63 63
54 54 54 54 54 54 55 54 54 54 53 53 54 55 49 15 15 26 32 53 48 44 41 35 30 27 28 29 30 33 33 34 37 41 41 40 42 49 54 57 60 62 62 63 63
54 54 54 54 54 54 54 53 54 53 53 54 54 54 49 17 20 26 34 47 48 42 35 36 32 29 30 29 31 32 29 28 26 33 41 44 46 52 56 56 57 61 62 62 63
54 54 54 53 54 53 53 53 53 53 54 54 55 54 43 36 32 26 24 31 35 40 37 34 33 31 30 30 26 25 26 23 25 42 44 40 41 54 56 55 55 57 61 62 62
53 53 53 53 53 52 52 52 53 54 54 57 54 51 40 48 40 32 25 26 26 34 33 33 30 28 27 23 21 23 21 21 22 36 43 43 44 45 56 56 55 55 56 58 58
53 53 53 53 52 51 51 51 51 54 55 56 53 46 41 32 40 28 24 23 26 30 31 32 28 25 24 20 19 22 20 19 20 28 42 42 44 44 55 56 56 56 56 56 56
53 53 53 52 51 50 48 45 29 31 48 42 43 42 35 34 37 29 25 26 25 26 23 23 25 25 23 22 21 22 21 20 21 25 42 41 41 41 53 54 55 55 56 56 56
53 53 53 52 51 50 48 39 37 26 21 21 30 33 36 37 36 38 29 26 23 20 19 20 20 24 24 22 18 17 18 19 21 23 41 42 40 39 47 50 53 53 54 55 56
53 53 52 51 50 43 35 30 33 32 17 16 17 17 18 30 33 34 30 24 23 18 18 17 20 23 24 23 19 16 15 16 19 23 46 42 42 44 43 42 47 51 52 53 54
53 53 52 50 39 42 38 35 35 33 16 16 14 13 15 17 19 26 33 23 20 19 17 19 22 21 20 22 21 17 17 17 19 23 30 41 35 44 44 41 43 47 50 52 53
53 52 51 50 44 42 36 36 36 23 16 22 16 16 15 13 16 20 26 25 23 21 21 22 22 21 21 22 22 18 20 21 21 21 22 26 35 39 44 42 42 44 48 50 52
53 52 51 45 43 42 40 38 30 15 15 18 16 11 12 12 14 21 26 29 26 25 23 21 22 21 20 21 22 19 14 17 22 21 21 23 33 36 40 42 41 44 45 48 50
52 50 49 44 40 38 41 33 14 15 19 20 18 18 11 10 10 14 26 28 23 19 22 24 21 18 21 19 19 15 9 10 12 15 18 23 32 34 39 43 41 43 45 45 49
50 49 46 41 45 44 38 23 16 17 16 21 22 20 15 12 9 9 11 27 26 16 17 21 20 22 19 16 16 14 8 9 9 15 18 21 27 31 37 43 44 43 45 45 45
49 42 40 39 38 40 33 26 18 19 23 24 23 19 17 19 21 14 9 9 23 19 14 16 18 22 22 20 16 15 7 8 9 23 17 20 23 27 35 37 43 44 45 45 44
45 41 40 41 38 37 31 29 24 26 26 25 23 22 23 24 23 23 18 14 9 12 15 15 15 17 16 22 22 15 13 11 6 5 6 13 19 22 26 35 39 42 44 45 46
42 35 35 32 30 32 28 27 26 27 27 25 24 23 23 24 24 23 23 18 18 16 14 12 14 14 19 16 19 19 13 9 6 6 5 10 10 19 24 31 38 44 44 45 47
38 32 34 33 26 26 28 27 30 26 26 26 24 21 19 24 20 21 23 23 24 23 20 15 11 11 11 18 20 19 16 11 9 8 10 6 8 21 22 26 38 42 42 44 46
36 34 35 31 24 24 27 27 29 29 29 29 27 26 32 28 27 24 28 28 34 32 26 33 15 12 13 14 16 17 17 14 11 11 9 14 10 16 17 25 41 41 41 41 43
36 31 29 30 31 30 28 30 30 31 27 28 29 33 33 32 31 32 33 33 34 33 44 34 28 17 14 15 15 15 15 15 10 10 10 10 12 14 19 26 33 30 41 41 44
38 32 32 29 30 32 29 30 28 26 28 30 30 32 33 32 34 32 35 35 33 37 33 33 26 21 20 18 15 17 18 15 13 11 10 11 10 12 14 16 21 26 39 42 41
38 36 35 34 33 31 29 27 32 34 32 30 30 31 30 31 31 30 33 31 32 33 32 33 28 27 26 24 15 14 17 18 16 14 12 13 12 14 15 23 28 32 38 38 36
44 44 40 34 32 27 26 26 26 30 35 33 29 31 28 26 32 32 31 32 32 32 30 32 29 26 25 23 15 15 16 19 19 19 15 12 15 21 21 28 33 35 41 39 37

GFSSW_sfc_dewp_027.txt.gz
Dewpoint
54 54 54 54 54 54 55 55 55 55 55 55 55 56 57 57 57 55 37 39 49 76 76 72 67 66 66 65 64 60 50 48 49 49 51 57 57 58 60 59 58 60 60 62 66
53 53 53 53 53 54 54 55 55 55 55 55 55 55 56 57 54 47 47 62 66 75 70 68 65 66 65 62 61 56 50 46 46 47 52 56 57 57 58 57 59 60 62 64 65
53 53 53 53 53 53 54 54 54 54 54 54 55 55 56 57 43 20 67 62 69 74 63 66 62 62 61 60 59 54 51 49 47 49 53 55 56 57 58 56 60 59 61 63 63
53 53 53 53 53 53 53 54 54 54 54 54 54 55 57 55 7 22 73 71 69 64 49 53 46 54 48 51 57 53 53 52 50 48 48 54 56 57 57 56 60 60 61 62 62
53 53 53 53 53 53 53 53 53 53 53 54 54 55 52 42 25 17 69 67 64 50 42 39 33 44 28 28 48 54 51 47 51 50 46 54 55 56 57 58 60 61 61 61 62
54 54 54 54 54 54 54 54 54 53 53 53 53 54 46 9 14 31 35 56 54 49 42 37 33 29 27 26 30 32 40 37 38 40 46 53 54 55 57 59 61 61 61 61 61
54 54 54 54 54 54 54 53 53 53 53 54 54 53 50 15 17 24 35 43 51 46 41 38 33 27 25 24 28 31 31 32 31 33 42 50 51 53 56 59 61 61 61 62 62
54 54 54 54 54 54 53 52 53 53 55 55 55 53 37 36 35 26 23 21 43 42 35 37 34 30 31 30 28 24 25 24 28 40 40 43 42 52 56 58 60 61 61 62 62
54 54 54 54 53 53 52 52 53 55 55 56 53 49 33 46 43 37 26 22 34 39 39 37 32 30 30 28 23 23 23 23 23 39 43 40 43 54 57 58 59 61 61 62 62
54 53 53 53 53 52 51 52 51 54 57 55 53 44 39 28 43 32 28 25 28 30 32 33 30 27 25 22 22 22 21 21 21 27 41 42 44 54 56 57 59 60 61 61 62
54 53 53 53 52 50 49 44 30 30 46 41 43 40 34 34 38 31 25 23 25 28 27 29 28 26 26 23 22 23 22 21 23 29 41 41 42 53 55 54 55 59 60 61 61
53 53 53 52 51 50 44 30 32 31 29 27 26 27 32 34 28 28 24 21 24 21 26 23 26 29 27 25 23 21 20 19 23 28 39 39 41 45 54 55 55 55 57 59 60
53 53 52 52 50 43 39 34 35 35 23 19 20 19 19 28 29 27 25 24 24 23 19 24 21 24 26 24 21 19 19 19 19 25 40 41 41 42 53 55 56 56 56 56 57
53 52 51 51 38 43 36 37 36 36 17 17 15 15 18 30 28 27 34 24 23 21 20 18 18 20 22 23 23 20 19 19 19 20 18 39 37 42 49 53 54 55 56 56 56
52 51 50 50 43 42 33 38 39 24 19 24 16 16 16 16 17 25 31 27 21 22 17 18 18 17 20 20 23 22 21 20 21 19 20 25 34 36 44 47 48 51 53 55 56
51 50 50 45 43 42 41 40 28 14 15 19 17 13 14 13 12 23 27 29 24 20 21 20 23 17 20 22 21 24 23 17 21 20 18 18 23 22 41 42 43 44 50 53 53
50 49 48 45 39 40 41 32 14 14 19 20 21 22 20 11 11 18 23 25 23 20 18 19 18 21 22 20 23 21 15 16 12 14 15 16 24 21 34 42 42 42 44 50 52
49 48 46 41 42 44 38 23 14 17 16 24 24 23 18 23 15 16 23 23 25 21 21 21 21 20 19 20 19 19 17 15 9 12 13 20 21 23 31 39 43 43 43 45 49
48 41 41 41 40 41 32 23 17 19 25 25 24 20 22 24 24 24 21 23 27 20 18 21 22 23 23 19 20 18 15 15 9 25 13 19 21 25 31 36 40 43 42 44 46
44 40 39 41 39 37 31 27 25 26 26 26 23 24 22 23 23 23 23 20 17 27 20 17 16 18 21 23 19 16 13 14 8 10 10 10 15 17 28 28 37 43 43 44 46
39 35 35 34 34 34 29 28 27 26 26 25 24 24 23 22 23 20 23 25 30 30 26 18 15 17 18 18 21 21 14 11 10 9 8 8 9 14 24 30 34 40 44 45 46
36 30 32 35 25 26 28 28 31 28 28 27 26 25 25 27 27 21 21 26 33 34 30 29 15 15 17 18 17 20 19 15 12 9 9 8 9 18 21 24 30 33 42 44 47
34 32 38 31 28 26 28 29 30 29 28 28 26 28 33 29 25 32 32 34 35 33 37 36 28 13 11 11 15 16 18 17 16 13 13 8 11 17 19 25 34 33 41 44 46
37 31 32 31 32 31 29 29 30 32 28 29 29 34 33 32 32 31 32 35 33 32 42 34 28 23 16 15 16 14 16 18 14 14 14 12 11 15 17 19 23 32 38 42 46
40 32 31 29 30 32 29 30 32 31 34 31 29 30 32 29 33 32 32 33 31 36 32 32 29 27 26 27 26 21 15 13 15 16 14 14 11 12 17 19 20 21 25 37 40
38 36 37 33 33 30 28 28 31 27 31 31 33 29 30 29 29 28 31 31 30 32 29 32 30 29 27 25 24 22 19 18 15 15 15 15 13 15 15 18 18 16 20 31 42
43 42 39 34 33 30 27 27 26 30 31 36 32 29 29 30 32 32 32 31 31 31 30 30 31 29 26 26 26 22 19 17 17 16 16 14 15 17 15 17 18 20 24 31 33

GFSSW_sfc_dewp_030.txt.gz
Dewpoint
54 54 54 54 54 54 55 55 55 55 55 55 55 56 56 57 57 55 35 36 45 71 75 71 69 65 67 65 63 59 50 48 50 50 50 57 57 59 60 59 59 60 61 62 67
53 53 53 53 53 54 54 54 54 54 55 55 55 55 56 57 54 47 46 61 66 76 71 68 65 65 65 64 62 56 50 48 48 48 52 57 57 57 58 57 59 60 62 65 67
53 53 53 53 53 53 53 53 54 54 54 54 55 55 56 56 43 18 63 61 71 75 69 67 66 65 62 61 61 56 53 51 49 53 54 56 57 58 57 55 59 59 62 65 65
53 53 53 53 53 53 53 54 53 53 54 54 54 55 55 54 9 43 72 67 72 70 66 64 64 63 59 57 59 54 54 54 52 48 55 56 57 57 55 56 58 61 63 65 64
53 54 53 53 53 53 53 53 54 53 53 54 54 54 51 41 23 57 71 65 70 59 61 60 62 59 43 47 55 56 51 50 50 50 49 56 56 56 57 58 60 61 63 64 64
55 55 55 55 54 54 54 54 54 53 53 54 54 54 46 6 12 29 59 63 67 54 53 45 49 50 34 35 46 42 50 48 46 40 47 51 55 56 58 59 59 61 62 63 63
54 55 55 54 54 54 54 54 53 53 54 55 54 52 49 8 18 25 58 55 56 48 41 39 36 42 31 27 26 29 29 31 34 34 39 50 53 54 57 59 59 60 61 62 62
54 54 54 54 54 54 53 53 53 54 56 56 55 51 29 32 37 30 29 43 49 47 38 40 34 31 29 30 27 24 27 24 28 32 33 51 46 54 58 59 59 60 60 61 62
54 54 54 54 53 53 51 52 53 56 56 56 51 47 27 44 41 33 22 22 39 45 41 35 33 30 29 25 23 24 24 24 25 30 43 47 42 51 57 59 59 60 60 60 61
53 53 53 53 52 51 51 52 51 56 54 53 52 40 39 28 40 37 27 29 32 37 37 35 31 29 26 24 14 22 21 22 22 29 42 42 42 51 57 58 59 60 60 61 61
53 53 52 52 51 50 49 40 32 31 36 46 44 38 36 33 35 29 27 24 30 31 29 32 31 27 27 23 23 24 23 23 23 27 40 40 43 54 56 57 58 59 60 61 61
52 52 52 51 50 50 41 32 32 32 30 30 30 30 37 32 28 28 24 21 25 25 27 26 27 30 29 25 24 23 22 22 22 23 36 36 38 52 56 56 57 59 60 61 61
52 52 51 50 50 42 40 33 36 36 29 25 27 25 24 29 27 26 22 23 23 22 26 24 25 30 29 26 24 23 22 22 22 23 34 39 38 45 54 56 56 59 60 60 61
52 52 50 50 37 43 32 38 38 38 19 19 17 17 26 26 24 27 23 24 23 23 21 22 24 27 27 27 24 22 22 21 19 19 18 35 29 41 47 54 54 54 58 59 60
52 51 50 49 42 40 30 40 39 26 18 25 15 17 23 20 21 25 32 28 22 22 21 21 20 21 24 24 24 24 21 20 19 17 18 24 29 34 43 51 53 55 55 56 57
52 51 50 45 42 43 41 41 30 20 19 20 18 15 16 15 14 25 27 30 24 22 21 20 22 21 20 21 24 24 21 18 22 20 18 19 25 23 43 45 52 54 56 56 56
50 49 48 45 37 41 42 32 16 16 21 22 22 23 22 17 13 22 24 26 22 19 18 20 19 21 19 19 22 22 20 19 16 16 17 19 21 20 34 45 48 51 53 55 56
49 48 44 42 42 41 38 22 15 18 18 26 25 24 21 24 23 24 22 23 26 22 20 18 18 20 21 18 18 20 19 19 15 14 16 20 18 21 25 41 45 47 49 50 53
49 41 40 40 39 40 31 19 18 20 26 25 25 22 22 24 24 23 22 22 26 21 20 19 19 23 19 21 18 20 19 18 13 23 12 17 20 23 29 30 42 43 44 45 47
43 39 37 40 36 36 31 26 25 27 26 25 23 24 21 22 23 21 22 31 30 30 26 20 20 22 20 20 21 17 18 17 14 15 13 15 16 20 30 29 33 43 43 44 45
38 33 32 37 36 33 25 28 28 30 29 25 24 24 23 25 25 20 21 32 33 33 32 27 17 16 23 21 19 18 15 15 16 16 14 12 14 20 25 31 28 33 43 44 45
34 28 31 34 27 28 26 27 32 31 29 28 27 27 28 28 26 24 29 33 33 34 36 37 19 18 17 18 23 20 18 13 14 13 11 14 13 21 19 27 32 33 38 46 47
33 33 37 33 26 27 29 27 28 32 32 28 27 33 33 30 24 31 31 35 33 34 37 34 26 15 12 15 18 18 21 15 14 16 14 12 14 16 26 24 26 30 34 40 48
34 29 32 32 31 28 29 28 28 32 35 33 29 32 31 31 33 31 33 34 32 35 40 34 29 23 20 22 25 20 18 19 18 16 16 14 15 21 21 24 25 32 37 41 47
34 31 33 27 29 31 28 28 29 29 31 36 34 30 29 27 29 30 31 31 30 36 31 31 27 29 28 29 28 26 24 23 18 19 18 18 18 21 22 24 25 25 38 36 42
33 36 37 33 33 31 28 26 27 26 30 29 35 33 29 28 29 28 29 30 29 32 28 30 27 30 28 27 27 25 25 23 22 19 20 19 18 20 22 25 25 26 29 31 33
43 43 38 35 31 31 28 29 27 29 30 35 35 34 27 30 32 32 31 31 31 31 29 28 30 28 25 28 27 22 21 22 21 20 18 17 21 21 21 23 23 23 25 27 29

GFSSW_sfc_dewp_033.txt.gz
Dewpoint
54 54 54 53 54 54 54 54 54 55 55 55 55 56 56 57 56 53 34 32 42 70 71 67 66 66 67 65 63 58 49 49 46 49 50 58 57 58 59 58 57 60 60 61 66
54 54 54 54 54 54 54 54 54 54 54 54 55 55 56 57 51 41 46 59 63 74 66 64 61 64 62 63 63 55 53 49 48 50 46 56 57 57 57 56 56 60 61 63 65
54 54 54 53 54 54 54 54 54 54 54 54 55 55 55 55 38 16 62 60 69 73 63 63 63 62 60 62 62 59 53 53 48 50 53 55 56 57 57 55 56 59 62 63 64
54 54 54 54 54 54 54 54 54 54 54 54 54 55 55 53 10 31 72 64 73 65 64 63 62 58 57 59 62 56 57 55 52 52 55 56 57 57 57 53 55 60 62 63 63
53 54 54 54 54 53 54 54 55 54 54 54 54 54 51 38 16 47 71 64 69 63 61 60 60 58 55 57 58 59 55 51 52 51 48 56 55 55 57 55 58 61 62 62 62
54 54 54 54 54 54 54 54 54 53 54 54 54 53 45 8 9 29 55 57 63 60 58 59 59 59 53 49 52 48 52 47 38 41 44 48 50 56 56 57 60 61 61 61 62
53 54 54 54 54 54 54 53 53 53 54 54 54 51 46 12 24 46 55 57 62 56 55 54 57 54 47 34 39 33 28 29 28 32 34 40 44 53 56 59 60 60 60 61 62
53 53 53 53 53 53 52 52 54 57 56 55 55 50 28 28 28 30 52 51 62 53 50 50 45 52 32 29 27 26 27 25 27 30 32 38 32 46 56 58 59 59 60 61 62
53 53 53 53 53 52 51 52 55 57 58 56 51 50 22 45 30 22 32 43 58 52 42 42 39 36 30 28 22 23 20 25 26 29 35 40 33 43 56 57 58 59 59 60 62
53 53 53 52 51 51 51 50 54 55 54 53 50 41 30 23 33 28 25 42 44 45 40 35 33 31 28 24 18 19 21 22 24 28 38 37 40 46 55 57 58 59 59 60 60
53 53 52 52 50 50 47 39 33 35 33 45 43 35 36 31 38 30 20 32 32 34 27 32 26 25 25 25 21 19 18 23 25 26 37 37 38 44 55 56 57 59 59 59 60
53 53 52 51 50 50 40 30 30 31 30 30 30 32 37 37 28 30 21 19 24 22 25 31 24 24 25 27 24 20 18 21 25 24 27 30 37 42 53 56 57 58 59 59 59
52 52 52 51 50 42 39 35 37 37 31 27 29 27 27 28 29 27 21 17 21 20 22 21 21 24 27 27 25 23 17 18 21 23 27 32 29 39 50 54 56 58 59 60 59
52 52 51 50 39 40 31 38 39 39 23 23 20 23 24 26 25 27 26 21 20 20 22 19 22 24 25 24 26 20 21 19 21 22 21 30 24 38 41 52 55 56 58 59 60
51 51 50 49 42 38 34 40 40 36 13 23 16 20 24 23 21 25 25 24 20 19 24 22 23 26 26 23 27 21 23 21 19 22 23 23 25 30 44 48 52 54 57 58 59
51 50 50 44 43 41 41 41 36 20 16 22 16 15 21 21 17 25 25 26 25 24 21 19 23 24 27 27 28 26 25 24 24 21 20 24 23 26 31 40 46 53 55 58 59
49 49 46 44 33 38 41 34 20 17 22 23 23 24 24 20 15 23 24 24 23 22 23 22 21 23 24 25 27 26 22 19 18 18 17 24 24 27 30 36 36 47 53 56 58
48 48 43 41 41 39 37 20 18 19 22 25 24 24 21 24 22 22 23 22 25 21 19 19 18 20 22 23 22 25 20 14 16 11 12 25 22 24 29 30 39 41 47 54 56
48 41 37 37 37 37 30 10 18 25 28 26 24 23 23 23 24 23 23 22 25 23 21 19 18 21 21 20 23 23 22 19 14 18 15 15 21 25 29 29 35 40 43 49 54
43 39 34 35 36 37 24 23 26 29 29 27 23 24 23 23 23 22 25 32 28 31 33 25 22 21 20 20 21 22 22 18 18 16 15 15 21 19 32 29 33 37 40 45 49
40 31 30 36 34 30 23 25 27 30 31 26 25 25 24 25 24 23 29 30 30 33 35 29 23 21 23 21 19 19 21 20 18 17 11 9 11 27 32 39 36 34 38 41 46
38 24 34 34 25 28 23 26 31 29 33 30 28 29 29 28 25 27 30 32 30 35 34 34 23 23 22 22 21 21 21 21 17 24 19 15 11 23 28 29 36 34 37 41 46
38 35 35 33 25 26 29 27 27 30 32 32 30 32 31 30 26 30 32 33 32 35 35 33 28 24 23 21 21 21 22 22 21 21 25 15 14 22 26 27 32 34 38 42 45
38 28 30 32 32 28 26 26 26 30 32 37 35 30 30 29 31 29 29 30 30 32 39 35 29 28 21 25 27 26 23 23 21 20 22 20 19 23 26 29 32 35 38 39 45
41 33 33 26 26 28 29 28 27 26 27 32 36 35 31 28 26 27 28 28 28 35 30 32 27 28 27 25 25 26 24 24 24 24 24 22 23 25 28 30 32 33 38 42 42
38 36 37 32 33 31 28 26 26 26 27 24 34 36 35 33 29 27 27 29 28 30 29 29 24 27 23 22 22 25 25 25 24 24 24 24 24 27 30 33 35 35 38 41 39
45 43 39 34 33 32 28 27 26 29 28 31 34 30 28 34 30 29 28 28 28 28 28 28 24 22 18 24 23 22 23 24 24 25 23 23 26 27 28 30 34 35 38 42 41

GFSSW_sfc_dewp_036.txt.gz
Dewpoint
55 54 55 54 55 55 55 55 55 55 55 55 55 55 56 56 57 51 33 35 40 69 71 59 62 63 64 62 62 59 49 44 44 45 47 55 54 56 56 56 56 58 58 62 64
54 54 54 54 54 54 55 55 55 55 55 55 55 55 55 56 46 34 46 61 61 73 56 57 59 61 59 57 59 56 48 44 46 44 45 52 53 55 54 54 55 58 59 62 63
54 54 54 54 54 54 54 54 54 54 55 55 55 55 55 54 36 16 60 63 65 72 46 55 54 57 52 54 57 53 47 48 44 47 50 51 53 55 53 51 54 57 60 62 62
53 53 53 53 53 53 53 54 54 54 54 55 55 55 55 48 15 31 72 63 67 53 45 49 52 52 49 52 55 52 51 50 46 47 48 52 53 53 53 50 54 59 61 62 62
53 53 54 54 53 53 54 54 55 53 54 54 54 54 50 34 17 28 69 64 54 48 46 49 52 49 45 49 52 53 50 47 47 47 45 47 50 50 53 53 54 59 60 61 62
53 53 54 54 54 54 54 54 53 53 54 54 54 53 41 24 11 12 43 50 49 49 46 50 50 47 44 48 50 47 49 46 41 39 38 40 45 48 51 55 56 58 59 60 60
53 54 54 54 54 54 53 53 52 54 57 55 54 50 41 25 16 17 43 45 52 50 44 49 49 48 47 46 43 45 36 33 35 32 32 36 36 40 47 55 57 58 59 59 60
54 53 54 54 54 53 52 53 53 57 57 55 55 48 35 25 26 35 42 44 53 50 42 47 48 49 43 35 31 35 28 27 31 30 30 32 33 38 47 54 57 57 59 59 60
53 53 53 53 53 52 52 52 55 57 56 56 51 45 30 39 19 24 43 42 51 49 46 44 45 46 43 32 26 25 26 30 30 30 31 32 35 40 45 53 55 58 58 58 59
53 53 53 52 52 51 51 51 56 56 53 52 47 41 33 22 23 16 31 36 51 44 43 43 39 37 39 35 25 26 24 27 31 31 30 33 35 35 45 51 53 57 57 58 58
53 52 52 51 51 50 45 36 39 44 34 40 40 32 32 28 31 18 16 43 46 39 29 30 27 26 26 28 27 26 25 26 29 29 28 31 33 34 45 50 52 56 57 58 58
52 52 51 51 51 51 39 29 32 32 28 27 27 32 37 38 32 20 24 31 35 34 26 24 23 21 23 22 23 23 22 24 28 27 28 31 32 34 43 50 52 54 55 57 58
52 51 51 50 50 41 34 34 36 35 28 24 26 26 27 30 29 23 25 24 28 26 21 19 18 20 19 21 23 22 22 23 25 27 26 27 29 32 37 46 50 52 55 56 58
52 51 50 50 41 35 29 34 37 37 25 16 22 25 26 28 26 30 18 22 22 24 21 20 18 19 19 20 21 20 21 21 20 23 23 28 26 33 33 39 44 47 53 54 58
52 50 50 49 39 32 33 34 37 36 7 22 19 23 23 26 25 25 26 21 17 18 20 19 18 18 19 18 20 18 16 21 21 19 23 24 25 30 32 33 39 43 49 54 57
51 50 50 40 36 32 34 36 37 23 8 20 15 17 19 23 24 25 28 17 17 17 19 18 18 16 19 19 19 17 19 18 21 17 18 24 24 26 28 35 36 41 47 52 55
50 49 46 38 32 34 33 33 17 10 16 23 22 22 20 18 22 22 25 26 25 22 19 19 18 20 19 20 23 20 20 16 14 13 14 22 23 28 29 31 35 36 42 50 56
48 48 43 35 34 35 32 22 11 13 24 26 25 24 22 21 20 20 24 23 26 23 20 20 16 18 20 21 22 22 19 12 17 9 11 21 21 24 29 31 32 35 34 45 53
48 34 30 30 34 37 26 9 7 26 27 25 24 23 22 22 22 21 20 23 24 24 23 21 20 17 20 21 21 24 20 15 9 14 11 11 19 22 27 29 31 31 33 36 50
39 32 29 30 32 33 17 18 21 25 26 26 24 24 25 24 24 22 19 28 25 24 26 25 23 19 18 21 20 21 22 15 13 18 17 11 18 19 27 29 31 32 33 36 44
36 27 29 31 30 20 14 16 19 21 24 25 25 25 25 26 26 23 26 29 29 27 33 27 25 23 21 20 19 19 19 19 14 14 13 12 11 22 27 31 31 32 35 35 41
34 19 30 32 21 22 19 23 28 21 24 26 26 24 26 27 27 26 29 31 31 32 32 30 26 25 21 20 18 19 20 21 15 23 17 15 11 16 21 24 30 30 33 35 39
32 29 30 29 19 21 24 23 22 23 25 29 30 28 29 27 28 28 31 29 28 31 35 33 26 25 23 21 22 19 19 20 19 19 26 16 14 23 27 28 31 32 34 37 39
32 24 25 27 28 24 24 23 22 22 24 24 37 35 31 24 26 27 27 27 26 27 38 35 30 28 22 25 23 23 20 20 19 19 20 20 20 22 21 27 26 27 30 33 41
33 27 31 25 25 27 27 23 21 21 24 24 34 35 35 29 23 24 26 26 25 31 28 29 31 31 29 28 26 24 20 21 22 23 22 21 23 25 27 28 29 30 32 32 35
32 32 35 30 31 28 27 25 21 22 24 23 32 28 28 35 36 30 28 27 26 28 27 26 30 30 29 25 24 23 25 24 23 22 24 24 24 26 28 31 31 33 35 35 37
40 40 40 32 29 28 26 23 24 25 25 26 27 25 23 28 34 31 28 28 27 28 28 26 25 27 26 25 24 25 26 26 26 26 26 26 29 31 31 31 33 33 33 34 36

GFSSW_sfc_dewp_039.txt.gz
Dewpoint
54 54 54 54 54 54 55 55 55 55 55 56 56 56 56 57 57 50 34 37 42 68 66 52 58 60 60 60 61 59 51 46 39 47 44 46 46 50 53 54 55 56 60 63 65
54 54 54 54 54 54 54 54 54 54 55 55 55 56 56 56 47 33 46 64 63 70 56 49 51 56 56 55 55 53 52 51 43 42 45 46 44 48 50 52 53 56 61 63 63
53 53 53 53 53 53 53 54 54 54 54 55 55 55 56 54 39 23 67 63 66 70 38 47 49 54 52 49 50 50 49 57 42 45 43 44 46 46 47 49 53 57 60 61 62
53 53 53 53 53 53 53 54 54 54 54 54 55 55 55 48 22 41 67 65 65 47 33 45 47 51 49 46 47 47 47 48 43 44 46 45 46 46 46 46 53 56 60 60 60
53 54 54 54 54 54 54 55 54 53 53 54 54 54 51 35 24 41 67 64 43 37 32 41 44 47 46 43 45 46 47 47 46 45 44 47 46 52 47 46 52 56 59 60 60
54 54 54 54 54 55 54 54 54 53 53 56 56 54 45 31 21 23 31 46 33 41 31 35 40 44 44 42 43 45 45 46 43 42 41 41 43 45 50 49 54 56 58 59 59
54 54 54 54 54 54 54 54 53 54 57 58 57 50 40 33 20 9 18 42 36 40 31 35 36 43 44 41 43 44 42 45 44 41 35 39 38 42 49 52 54 56 57 59 59
54 54 54 53 53 53 53 53 53 58 57 57 56 47 40 34 36 23 24 37 39 42 36 36 38 42 43 44 39 42 41 37 37 38 35 34 34 37 44 53 54 55 56 57 58
53 53 53 53 52 52 52 52 54 57 55 55 51 46 38 41 27 28 26 34 38 43 43 37 40 41 42 40 36 32 34 37 33 34 33 32 34 36 41 49 53 56 56 56 57
53 53 52 52 52 51 51 52 54 55 54 51 48 42 38 29 26 21 24 35 40 42 41 38 39 39 39 38 30 27 32 31 32 32 32 31 32 37 38 45 50 55 56 57 56
53 52 52 52 51 51 47 32 36 45 46 41 39 36 31 30 24 16 33 33 40 41 38 38 36 37 33 39 35 27 30 29 33 32 31 32 33 34 37 44 48 53 55 56 56
53 52 52 51 51 51 38 29 31 31 28 25 22 22 33 33 29 16 33 29 41 38 36 36 35 33 29 29 34 33 29 30 30 30 31 31 32 32 36 44 48 51 53 55 56
53 52 51 51 50 39 29 27 29 31 26 19 17 17 24 34 32 26 21 25 38 36 29 25 27 28 20 25 31 29 28 27 28 29 30 30 31 33 34 42 48 49 52 54 56
52 52 51 50 41 30 25 27 28 32 23 11 18 18 17 27 31 31 13 23 36 36 27 22 19 19 18 18 20 20 24 25 24 27 27 29 25 33 32 38 43 48 50 51 54
52 51 50 49 38 29 26 24 28 31 12 14 19 24 21 22 25 28 21 20 23 24 30 24 16 16 18 16 16 18 17 23 23 24 26 27 26 29 32 31 38 41 47 49 52
51 50 50 36 31 23 25 24 29 23 12 16 16 19 20 22 23 26 24 18 24 22 25 23 17 16 17 16 16 16 16 17 20 20 22 25 24 27 26 32 34 37 39 46 50
50 49 46 36 25 23 26 24 15 8 11 24 24 24 20 20 23 24 26 18 20 20 21 21 20 18 17 17 17 16 15 13 13 15 18 24 23 28 29 29 32 34 38 42 49
49 47 44 28 25 25 27 20 12 6 21 24 24 23 22 24 20 24 25 25 20 20 17 18 16 18 18 16 18 17 14 11 18 11 12 21 22 24 27 29 29 33 36 40 44
48 31 28 24 25 25 24 11 6 20 20 19 19 22 21 22 22 23 23 24 24 19 19 19 20 18 18 17 18 20 17 12 11 11 8 10 18 19 24 27 30 32 35 36 42
42 30 29 23 26 25 19 16 9 12 15 16 16 21 26 27 23 23 22 23 24 21 22 25 25 20 18 19 18 19 20 13 14 19 17 11 18 16 26 28 30 32 33 34 39
39 23 27 24 26 20 9 10 15 14 13 15 16 17 24 27 29 26 24 26 28 27 28 25 26 25 23 19 19 18 19 18 13 13 13 15 14 21 27 30 29 31 33 33 35
32 24 28 26 19 19 13 18 24 14 15 18 19 19 20 25 31 30 27 30 28 29 30 26 25 26 22 19 20 19 20 22 16 25 15 14 15 18 18 22 28 30 33 33 37
32 27 27 24 18 16 19 15 16 15 15 18 22 29 31 30 32 35 34 31 27 29 33 32 28 27 26 20 21 20 19 19 20 18 25 14 15 23 24 24 29 31 33 37 39
33 25 25 23 21 20 22 21 18 18 16 18 25 27 28 27 27 31 34 30 26 26 40 38 31 30 24 26 22 22 20 19 19 19 20 19 20 25 27 30 31 32 33 35 39
34 28 29 24 24 24 24 23 21 23 18 19 30 31 28 27 26 34 36 31 26 32 31 31 34 32 28 26 23 21 19 18 20 22 21 20 22 25 28 30 30 31 34 36 39
38 38 33 32 29 27 25 24 22 20 19 19 22 23 26 30 30 31 34 32 30 31 30 29 30 34 31 27 28 25 24 21 19 20 21 20 21 25 29 29 29 31 32 34 34
47 44 42 34 30 29 27 24 22 24 24 24 26 22 20 25 25 28 30 29 26 28 28 30 28 32 31 30 29 27 26 25 22 22 21 22 26 27 28 31 32 32 33 35 34

GFSSW_sfc_dewp_042.txt.gz
Dewpoint
54 54 54 54 54 54 54 54 55 55 55 55 56 56 57 58 57 49 36 35 41 66 64 48 44 56 59 59 56 56 58 53 47 45 49 45 48 52 53 56 56 59 62 64 64
54 53 53 53 54 54 54 54 54 54 55 55 55 56 56 57 50 39 46 63 68 66 31 41 42 54 55 55 54 54 57 55 52 50 49 46 44 48 50 51 57 59 64 64 64
53 53 53 53 53 53 54 54 54 54 54 55 55 55 56 55 43 27 66 59 66 61 30 39 42 51 53 51 51 50 52 56 55 52 48 47 43 46 47 49 57 60 62 63 63
52 53 53 53 53 53 54 54 54 54 54 54 54 55 55 49 28 37 68 68 66 34 32 36 40 44 49 48 48 46 52 51 51 50 51 54 53 49 45 49 58 60 61 62 62
53 54 54 54 54 54 54 55 54 54 54 54 54 55 51 41 30 32 68 65 43 28 34 32 40 42 46 47 46 44 51 52 55 52 54 58 51 51 47 50 57 59 60 61 61
54 54 54 54 54 54 54 54 54 53 55 56 55 55 46 37 34 30 38 48 32 27 33 28 37 41 45 46 44 44 43 45 51 42 50 50 52 49 50 48 55 58 59 59 59
54 54 54 54 54 54 54 54 53 54 57 59 58 52 39 36 32 19 28 41 36 30 26 28 30 39 42 44 44 41 41 43 46 40 39 39 49 48 57 49 52 55 58 57 57
54 54 54 54 54 54 53 53 53 54 59 57 59 50 39 39 40 34 11 23 32 29 28 31 25 34 38 42 41 39 41 40 41 42 39 35 36 49 52 50 52 54 56 57 57
54 54 54 53 53 52 52 52 53 55 56 56 52 45 40 47 38 35 27 13 35 33 35 32 27 30 33 39 39 38 37 40 39 41 39 34 34 36 49 48 52 54 54 55 58
54 53 53 53 52 52 51 52 53 56 55 51 50 45 42 34 33 34 32 21 31 33 36 34 31 29 31 37 37 37 35 37 38 35 35 34 32 37 39 49 52 54 54 55 56
53 53 52 52 52 51 47 27 21 40 28 36 40 36 34 35 29 27 28 23 30 33 35 36 31 30 31 36 38 36 33 30 35 37 33 33 33 37 39 42 51 53 55 55 55
53 53 52 52 51 50 45 21 21 23 22 23 23 23 29 34 30 24 24 22 30 32 36 34 32 32 32 34 36 36 31 26 31 32 35 32 32 32 39 41 50 53 54 55 55
53 52 51 51 50 42 23 20 19 21 21 18 18 17 16 22 28 28 19 25 30 33 35 33 31 32 31 32 31 34 32 28 27 33 36 33 32 33 36 39 45 51 52 54 55
52 52 50 50 39 32 19 19 19 21 18 13 12 12 13 12 24 33 18 30 28 30 35 33 32 30 30 31 28 30 34 31 29 28 29 30 28 36 32 37 44 46 50 53 55
52 51 50 50 40 30 19 17 19 23 13 13 15 22 15 10 19 29 29 27 27 30 34 33 30 27 30 29 26 23 24 30 29 26 27 27 27 31 33 33 41 44 49 50 54
51 50 50 38 34 27 18 18 21 17 9 21 24 23 22 13 12 20 31 26 27 26 33 33 29 23 19 23 20 19 22 23 24 23 24 25 26 30 29 35 34 41 47 49 52
50 48 47 41 29 19 19 20 11 9 10 16 18 19 20 23 18 14 27 28 18 19 32 32 31 22 18 16 18 15 15 16 16 18 20 24 23 30 30 34 34 40 42 48 51
48 47 45 35 25 20 20 17 12 7 11 15 14 13 17 21 23 20 20 25 19 17 22 23 23 26 17 15 17 16 12 13 20 16 16 23 22 25 30 30 30 37 39 42 47
47 38 34 28 22 22 20 15 7 8 8 8 7 10 15 19 26 29 23 23 24 17 25 21 22 24 21 16 18 16 15 12 12 13 12 14 20 21 28 29 29 28 36 40 45
42 38 36 27 22 24 20 18 10 10 10 7 5 9 10 15 21 28 29 22 23 19 21 24 22 21 21 19 16 17 17 12 13 19 19 13 22 21 28 31 32 33 32 39 43
39 29 27 26 24 23 17 11 15 13 9 8 10 10 12 19 27 26 29 34 30 25 24 21 24 21 21 21 18 16 16 16 13 14 15 16 15 25 33 32 33 33 35 36 43
37 30 29 25 20 17 13 17 23 14 12 12 14 13 25 28 29 33 35 37 38 28 28 27 21 22 22 20 19 18 18 20 19 26 18 20 15 20 27 30 31 32 36 37 42
36 32 29 28 19 18 19 17 15 16 20 22 16 14 19 22 26 35 37 39 37 31 31 32 28 24 24 25 21 19 19 18 20 18 28 19 16 26 28 32 34 34 36 41 45
37 31 32 32 30 25 23 19 16 14 24 30 28 20 21 23 25 33 34 35 37 33 46 37 32 31 24 28 25 24 19 19 18 21 22 19 23 26 26 26 35 37 41 41 48
35 32 34 31 30 31 29 23 20 22 27 29 21 32 29 22 25 29 33 31 35 40 32 31 33 32 28 26 25 20 18 19 21 24 23 21 21 29 33 34 35 36 41 43 48
39 40 40 36 34 31 31 31 25 20 19 18 21 31 32 26 24 24 26 30 36 31 28 30 32 34 32 29 28 27 20 20 19 18 21 21 21 29 34 37 37 41 42 44 46
47 44 41 38 32 32 30 29 26 25 25 22 24 21 20 19 21 21 21 25 33 29 27 30 31 32 31 32 30 28 27 22 21 21 20 23 28 32 34 36 38 38 39 39 36

GFSSW_sfc_dewp_045.txt.gz
Dewpoint
53 53 53 53 54 54 54 54 55 55 55 55 56 56 56 58 57 50 45 37 44 59 68 52 44 45 60 63 63 61 59 56 55 48 49 55 54 57 58 59 60 60 62 63 59
53 53 53 53 53 54 54 54 54 54 55 55 55 55 56 57 52 46 50 59 60 62 43 31 42 39 50 59 60 55 57 55 54 54 51 50 52 57 58 60 61 62 63 62 62
53 53 53 53 53 53 54 54 54 54 54 55 55 55 55 55 48 37 61 61 61 66 39 28 36 39 49 55 55 53 55 55 55 55 53 51 51 51 58 60 61 62 62 62 64
53 53 54 53 53 53 54 54 54 54 54 54 55 55 55 51 29 33 68 66 62 52 33 27 30 37 46 52 53 51 53 52 51 52 54 51 54 51 58 60 63 63 63 61 62
54 55 55 55 54 55 55 55 55 54 54 55 56 54 53 44 38 37 67 70 54 43 30 25 29 37 40 49 50 47 50 51 50 52 56 52 49 53 57 62 63 62 62 62 62
55 55 55 55 55 55 55 55 55 54 54 56 57 55 49 38 39 37 48 54 47 35 28 26 32 37 39 42 47 47 48 50 51 52 52 47 49 49 58 60 62 62 61 62 62
55 55 54 54 54 54 54 54 53 53 54 57 58 53 45 34 36 36 43 44 36 31 24 26 31 32 39 41 46 46 44 50 52 52 52 52 48 47 58 59 60 61 61 61 61
54 54 54 54 54 54 53 53 53 53 54 58 57 54 45 40 40 37 37 42 34 30 26 27 32 27 28 40 41 42 42 39 45 47 50 51 47 51 54 58 59 59 61 61 61
54 54 53 53 53 53 52 52 54 53 56 56 55 51 42 47 40 40 38 35 35 32 30 26 26 26 24 32 36 38 38 38 41 43 45 47 45 52 52 55 57 58 59 59 60
54 53 53 53 52 51 51 52 53 54 56 53 50 47 43 35 37 38 36 28 25 32 28 27 28 26 22 28 30 36 37 37 39 42 42 38 37 51 52 52 55 56 57 56 60
53 53 52 52 51 51 48 40 20 33 32 17 20 33 23 37 33 36 34 33 20 32 29 32 30 27 22 27 30 38 38 36 36 40 39 38 35 50 50 54 59 61 55 56 56
53 52 51 51 51 49 46 21 17 17 14 16 17 19 21 23 26 30 35 30 23 26 30 33 30 29 28 28 28 35 37 36 35 35 36 34 34 37 49 56 58 59 60 56 56
52 52 51 50 49 43 33 18 17 16 15 16 15 16 18 18 20 25 30 29 22 24 28 31 33 33 30 27 27 31 34 36 34 30 29 34 34 34 47 54 55 60 62 55 56
52 51 50 50 40 35 30 26 17 17 18 17 14 17 18 17 14 23 28 25 25 22 27 30 34 33 33 29 29 30 34 35 35 31 33 36 32 35 37 49 55 59 60 55 55
51 51 50 49 41 36 32 23 17 19 14 19 16 20 15 13 10 17 25 27 22 21 28 28 33 33 31 30 30 31 32 33 34 33 31 34 32 33 34 36 51 57 58 56 55
50 50 50 43 40 37 29 19 19 18 13 7 11 11 10 12 19 23 16 26 21 20 29 28 35 33 32 30 30 32 29 27 32 32 28 28 32 32 33 35 51 54 55 56 56
49 48 48 43 36 31 30 20 18 11 9 8 7 7 5 9 15 20 24 23 24 19 27 27 28 34 32 30 30 29 26 22 20 23 25 26 26 27 31 34 38 47 53 54 56
48 48 47 41 39 35 22 20 18 11 6 9 9 6 4 10 13 17 21 27 25 23 26 26 25 30 32 28 26 28 25 18 19 21 22 22 20 24 27 31 33 44 50 54 56
48 42 39 37 39 29 25 19 16 12 11 9 7 3 4 10 14 19 23 27 31 29 22 20 22 33 33 25 21 21 19 16 13 20 16 19 19 22 23 26 27 32 47 51 54
43 40 39 33 29 28 25 24 18 13 11 9 6 9 9 13 21 22 24 28 31 39 36 21 16 28 30 32 22 16 17 13 12 12 13 15 17 19 19 20 26 28 38 45 50
39 37 32 30 28 27 20 20 20 16 15 14 11 9 9 13 21 23 25 29 36 37 36 33 22 16 23 27 26 14 16 14 14 15 16 19 18 20 22 24 23 30 33 39 48
38 32 36 34 28 26 24 23 25 15 16 20 22 18 17 17 15 19 23 27 35 37 32 33 31 18 17 23 25 22 16 16 13 15 15 16 14 28 28 25 25 27 30 39 46
37 36 36 34 27 28 30 28 21 16 17 24 23 24 22 22 26 33 33 34 36 37 31 35 31 26 19 20 21 21 16 15 18 22 19 13 14 25 30 27 26 33 30 39 45
39 31 33 34 31 28 28 28 26 29 28 25 23 22 23 23 30 33 29 35 35 34 42 42 32 28 25 21 24 23 19 15 15 16 17 19 19 26 30 31 35 36 40 39 48
37 33 36 30 32 32 30 28 31 30 28 23 27 23 27 23 25 28 29 29 29 37 37 34 27 30 32 30 29 26 19 18 16 16 21 19 25 27 34 37 39 40 41 44 45
37 40 39 37 34 31 30 29 28 27 30 28 23 23 26 28 27 26 23 26 29 34 34 32 28 32 34 32 30 28 25 19 18 17 18 23 19 33 35 41 40 41 41 44 47
46 43 41 38 34 32 31 33 34 33 32 32 30 23 25 22 24 24 23 23 24 33 31 27 25 30 30 33 32 31 30 21 19 21 18 18 24 34 36 39 37 37 39 37 36

GFSSW_sfc_dewp_048.txt.gz
Dewpoint
53 53 53 53 54 54 54 54 54 55 55 55 55 56 56 57 57 52 47 44 45 58 71 66 61 54 63 63 65 61 57 54 56 55 56 58 58 60 60 60 60 61 60 62 62
53 53 53 53 53 53 54 54 54 55 55 55 55 55 56 56 52 48 48 56 60 60 56 54 50 45 55 61 62 62 57 54 55 53 52 57 58 58 59 60 60 61 62 61 61
53 53 54 54 53 53 54 54 54 54 55 55 55 55 55 55 49 44 58 60 63 64 44 38 44 39 40 50 60 60 56 56 54 54 54 54 57 60 60 60 61 61 59 57 57
53 54 54 54 53 53 54 54 54 54 54 55 55 56 55 52 31 32 67 65 64 54 40 33 28 37 39 47 54 54 55 54 53 52 53 52 52 59 60 60 62 62 58 55 55
54 55 55 55 55 55 55 55 54 54 54 54 55 55 53 46 38 39 64 68 55 50 37 32 27 29 37 45 50 52 53 53 53 53 53 51 51 57 60 62 62 61 59 58 61
55 55 55 54 54 55 55 54 54 54 54 54 57 54 49 38 37 40 50 59 47 43 34 28 27 28 37 37 47 50 52 50 52 51 52 52 50 56 61 62 61 61 62 62 62
54 54 54 54 54 54 54 53 53 54 55 53 57 53 49 37 33 36 40 53 48 41 33 29 27 31 35 39 39 41 44 48 51 51 51 53 49 59 62 62 61 60 61 62 62
54 54 54 54 54 54 53 53 53 56 54 54 59 52 46 47 45 42 39 39 45 40 28 30 26 30 29 29 27 39 42 42 49 52 52 50 46 59 62 61 61 60 60 61 62
54 54 53 53 53 52 52 52 53 55 55 57 54 51 46 50 46 42 39 40 36 34 30 25 27 29 29 24 24 35 35 38 44 51 51 51 47 59 61 60 60 60 60 61 61
53 53 53 52 52 51 51 52 52 56 55 55 53 48 42 33 29 28 40 38 34 31 30 26 24 24 26 24 23 31 37 38 39 48 48 50 47 56 59 60 60 60 60 61 60
53 53 52 52 51 51 49 34 16 16 35 17 14 41 28 20 18 28 33 37 35 32 28 28 22 23 22 25 24 32 35 37 39 42 48 45 47 50 58 58 60 60 60 60 60
52 52 52 51 51 50 45 26 19 16 13 14 15 15 15 17 16 18 30 32 30 29 30 30 24 24 29 25 23 26 28 34 39 39 41 43 46 49 56 57 58 59 59 60 60
52 51 51 51 51 40 34 31 27 19 13 15 16 15 15 17 16 16 23 30 30 26 29 27 31 30 29 28 24 25 26 28 37 38 35 40 41 48 51 56 57 58 59 58 57
51 51 50 50 35 39 34 30 33 19 16 18 16 17 10 19 15 18 17 27 29 24 22 29 30 31 30 28 26 24 26 27 32 36 33 37 35 40 48 53 55 56 57 57 56
51 50 49 50 42 39 31 35 30 21 3 15 9 12 7 9 12 21 22 25 26 26 21 23 28 29 29 30 30 26 27 28 31 34 34 33 35 36 48 52 53 53 54 54 57
50 49 49 44 43 41 38 33 21 15 13 9 9 7 5 8 11 18 20 24 27 26 26 23 27 29 30 32 32 30 31 32 32 31 30 32 32 34 46 52 53 52 55 55 57
49 48 49 45 29 34 36 22 15 10 11 9 8 6 4 12 12 18 20 22 28 30 23 23 22 27 33 32 33 31 30 28 27 26 26 32 29 31 46 52 53 52 56 56 56
48 48 48 44 43 40 29 20 16 14 11 11 9 5 9 21 19 20 21 21 33 36 34 18 17 23 28 32 32 30 29 28 25 23 23 26 27 28 31 37 53 54 56 57 54
48 41 40 39 40 37 23 19 17 18 13 12 8 6 10 10 19 22 22 24 29 35 33 32 19 28 28 29 32 30 28 26 20 23 20 22 22 24 25 27 50 54 55 56 55
43 40 38 34 32 26 21 24 21 21 15 14 15 10 8 11 18 20 20 23 23 32 36 34 30 26 27 29 30 27 27 22 18 19 14 16 17 22 21 21 26 51 55 56 54
40 35 37 34 31 26 21 21 22 18 17 21 21 17 18 19 20 15 19 19 29 33 35 34 32 28 23 21 28 26 23 26 22 16 15 14 15 20 22 24 23 38 53 53 53
39 32 36 34 28 29 28 28 32 28 27 24 24 22 21 21 23 22 25 29 31 37 33 35 35 32 26 22 21 32 19 18 15 14 16 18 15 19 21 23 23 22 49 52 53
38 36 36 32 28 29 29 30 28 30 28 24 23 23 23 22 24 30 28 29 33 36 37 39 37 31 26 20 20 19 27 16 15 15 15 12 13 18 22 27 32 26 29 50 53
39 32 33 34 32 30 31 30 28 31 30 29 26 23 26 24 29 29 30 34 35 33 38 42 37 34 30 27 28 22 20 21 14 14 14 14 14 17 18 24 33 29 32 39 50
37 32 35 30 31 33 32 30 29 28 29 30 29 29 28 26 24 26 29 27 28 35 37 38 33 30 29 28 29 29 26 22 16 15 14 14 18 19 22 27 35 36 37 43 50
36 35 36 34 36 33 32 31 34 32 32 31 31 31 32 26 27 25 26 26 28 33 36 37 31 29 25 30 31 30 31 29 18 16 20 17 20 22 30 38 42 45 43 45 50
41 41 40 37 35 35 32 34 34 34 34 33 33 34 31 28 26 25 27 26 33 33 33 35 29 27 26 32 31 30 29 32 24 18 18 18 20 34 38 47 50 36 38 45 48

GFSSW_sfc_dewp_051.txt.gz
Dewpoint
53 54 54 54 54 54 54 54 55 55 55 55 55 55 55 55 56 52 47 45 47 57 64 54 65 60 64 65 66 60 56 53 53 54 56 59 58 62 61 60 60 60 61 62 64
54 53 54 54 54 54 54 54 55 55 55 55 55 55 55 55 52 48 48 56 58 61 65 64 59 57 61 62 63 62 56 53 56 57 56 62 59 59 59 59 60 60 62 62 63
53 53 54 54 54 54 54 54 54 54 55 55 55 55 55 55 48 42 57 57 62 66 59 55 52 45 45 56 60 61 57 58 55 55 54 56 57 60 60 59 60 60 60 61 62
53 53 53 53 53 54 54 54 54 54 54 54 55 55 54 52 24 36 68 61 64 55 40 38 42 38 40 45 53 57 59 58 53 55 54 53 58 60 60 60 61 61 60 61 61
53 54 54 54 54 54 54 54 54 54 54 54 54 54 51 41 33 35 67 60 57 45 37 33 31 37 38 43 48 55 55 56 58 54 52 54 53 59 60 62 60 59 60 60 59
54 55 55 54 55 55 55 54 54 54 54 54 54 54 48 30 30 39 52 55 52 42 35 30 29 32 35 37 49 51 52 53 53 53 52 50 55 59 61 62 59 58 59 58 57
54 55 54 54 54 55 54 54 53 55 57 55 56 52 48 35 41 43 41 50 50 37 32 31 29 30 31 38 38 42 43 44 45 51 51 53 49 55 62 61 59 56 56 55 60
54 54 54 54 54 54 53 53 53 55 55 55 58 52 46 47 48 48 41 37 48 44 31 31 28 30 31 32 27 38 38 38 42 51 50 50 47 60 61 60 59 57 55 55 59
54 53 53 53 53 53 52 53 54 55 57 57 53 49 46 51 42 38 39 36 45 43 37 30 26 26 30 27 24 27 34 39 40 50 51 50 48 61 61 60 59 60 60 60 60
53 53 53 52 52 52 52 53 52 57 55 54 53 42 35 21 20 17 29 40 36 38 32 28 24 23 26 25 28 24 34 36 36 48 51 49 48 60 61 60 59 60 61 61 61
53 52 52 51 51 51 50 21 22 19 24 16 15 28 20 21 20 19 20 37 33 30 27 27 22 20 18 25 26 31 36 37 39 41 49 49 48 59 60 60 60 60 59 60 61
52 52 51 51 50 51 43 22 24 26 19 16 15 15 16 16 15 17 20 35 34 29 28 26 21 21 23 26 25 24 23 29 35 38 48 48 48 57 60 59 60 60 59 60 61
52 51 50 50 50 41 36 28 31 19 16 15 16 16 15 16 16 17 19 28 31 31 28 26 28 24 26 25 24 23 22 23 30 39 42 41 45 48 59 60 60 60 60 60 61
51 50 50 50 34 39 29 30 35 24 14 14 9 10 9 16 15 19 22 20 27 28 29 28 26 26 23 26 26 23 24 24 27 33 33 37 36 46 54 57 58 59 60 60 60
51 50 49 50 38 32 29 36 34 19 4 12 9 11 7 10 9 18 21 24 23 22 25 25 28 26 26 26 28 26 26 26 27 28 37 31 34 42 52 55 57 58 59 60 60
51 50 49 45 43 40 37 33 20 14 9 10 10 8 12 15 15 19 23 33 33 35 24 25 23 28 27 30 29 30 28 29 31 30 28 29 33 34 47 50 55 57 57 59 59
49 48 48 46 30 39 34 22 14 9 12 11 9 7 12 19 18 21 30 35 34 32 32 32 26 26 28 28 31 30 28 26 26 27 26 30 32 32 44 47 50 54 56 57 57
48 48 45 44 43 41 26 19 14 18 12 13 12 7 9 18 18 21 21 27 36 35 34 32 25 24 25 28 28 30 29 28 25 26 28 28 29 32 43 47 49 52 55 55 55
48 41 39 36 35 34 23 18 17 20 17 12 15 9 9 15 18 20 21 21 34 35 32 32 31 33 31 25 31 30 30 30 26 21 23 27 26 30 40 45 48 50 53 53 54
43 39 37 36 33 26 21 23 20 26 23 17 16 14 14 15 16 17 19 27 29 35 35 34 30 33 33 30 28 32 30 27 25 22 18 19 22 28 28 32 47 50 52 53 53
39 34 35 36 31 28 23 23 27 29 28 22 20 18 19 19 21 18 20 27 29 33 35 36 32 31 34 26 22 28 29 30 28 26 25 18 20 23 28 28 40 45 49 53 54
37 29 36 33 28 29 28 29 32 29 29 25 24 23 21 21 24 21 26 28 31 36 33 38 37 33 33 34 35 33 28 24 27 25 19 25 25 21 23 26 36 47 51 54 54
37 35 38 33 27 29 31 31 30 30 30 28 25 23 23 22 22 28 29 32 34 33 35 39 36 28 28 27 28 25 24 26 22 22 20 24 24 18 19 22 25 27 38 50 55
38 31 34 33 33 29 31 31 29 30 30 30 28 26 26 24 28 25 31 32 31 31 40 39 36 32 28 28 30 29 29 28 23 21 18 18 23 18 19 20 22 28 31 44 53
35 31 33 29 31 32 32 31 31 31 33 32 31 31 30 26 25 26 29 29 33 36 38 38 32 33 32 31 29 29 28 27 27 19 18 17 15 17 19 21 28 39 36 32 37
35 35 35 33 34 34 33 31 32 32 33 32 32 32 33 30 26 23 24 25 28 35 35 37 31 32 29 28 27 26 27 27 28 29 16 16 16 19 42 51 53 51 40 32 40
40 40 40 38 36 36 35 36 36 38 37 36 35 34 32 32 31 28 27 27 29 32 34 35 32 30 26 26 27 27 32 33 31 33 34 19 30 43 51 52 52 54 52 40 46

GFSSW_sfc_dewp_054.txt.gz
Dewpoint
54 53 54 54 54 54 54 55 55 55 55 55 56 55 55 54 54 53 46 44 48 55 61 70 66 64 65 65 66 60 54 52 53 54 55 59 58 62 61 59 59 60 61 63 66
54 54 54 54 54 54 54 54 55 55 55 55 55 55 55 54 52 49 49 55 58 62 54 65 60 61 62 63 64 61 54 52 55 56 57 60 60 60 59 59 59 61 63 64 65
54 54 54 54 54 54 54 54 55 55 55 55 55 55 55 54 46 36 61 57 59 62 54 56 57 59 58 61 62 62 57 58 55 56 57 58 58 60 59 59 60 60 62 63 65
54 54 54 54 54 54 54 55 55 55 55 55 55 55 54 52 19 43 66 60 60 56 59 53 54 44 47 50 59 58 60 60 55 56 55 55 59 59 59 60 61 61 62 63 63
53 54 54 54 54 55 55 55 54 54 55 54 54 55 50 37 29 38 62 59 56 55 51 42 48 39 46 47 51 58 57 57 59 58 54 55 58 61 60 61 61 61 62 62 62
54 54 54 54 55 55 55 55 54 54 56 55 54 54 46 22 28 44 55 54 56 48 42 35 45 39 39 43 49 51 54 54 54 53 55 51 53 59 60 60 60 60 61 62 62
54 54 54 54 54 54 55 54 54 55 56 56 56 52 47 35 45 48 51 53 51 43 37 33 32 34 34 37 39 44 41 42 44 49 52 52 51 57 60 59 59 59 61 61 61
54 54 53 53 53 53 54 53 54 55 55 56 56 50 44 47 48 49 42 41 49 48 33 30 29 30 32 33 28 34 38 39 44 47 52 51 48 60 60 58 58 58 60 60 59
53 53 53 53 53 53 53 53 53 57 57 57 53 47 32 49 41 32 36 35 46 47 43 30 27 26 29 28 29 26 37 39 43 46 51 50 49 60 60 57 57 58 58 58 58
53 53 52 52 52 52 52 52 57 57 56 55 52 38 27 16 19 20 26 42 44 43 40 29 25 23 26 27 29 27 30 37 39 43 50 50 51 60 60 58 56 56 56 55 56
53 52 52 51 51 51 49 31 25 23 24 22 14 17 17 19 19 17 20 38 35 35 31 27 23 19 21 27 29 30 34 35 37 40 49 49 52 60 60 59 58 57 55 54 54
52 52 51 51 51 52 37 26 28 29 24 19 17 17 16 16 15 19 20 36 33 30 28 25 22 22 20 21 27 27 25 30 34 39 48 48 49 59 60 59 59 59 59 59 59
52 51 51 50 51 39 35 25 30 22 17 15 16 17 13 15 17 18 21 24 33 30 27 24 24 23 22 23 22 25 25 23 32 34 42 47 46 55 60 60 60 60 60 61 61
52 51 50 50 34 38 25 31 35 28 10 10 9 10 7 13 14 18 20 23 24 32 31 27 28 23 21 21 24 20 26 27 25 30 30 42 36 45 57 59 59 59 60 60 60
52 51 50 49 40 30 28 38 33 17 1 12 11 11 12 12 12 15 26 30 22 21 28 30 28 26 21 19 24 19 25 25 25 29 29 30 33 35 52 57 58 59 60 60 60
51 50 50 44 41 38 39 37 20 12 7 12 11 10 15 16 20 21 36 37 37 36 29 23 26 28 26 26 24 28 28 26 29 27 26 26 29 34 49 53 57 59 60 60 60
50 49 48 45 34 37 39 21 13 8 14 13 12 8 13 19 19 21 33 33 34 28 31 33 26 25 27 25 28 28 25 24 24 27 24 28 28 31 38 50 54 57 59 60 60
49 48 43 44 42 40 25 18 13 19 13 14 13 8 9 16 18 20 24 27 34 35 33 32 25 27 29 26 26 28 26 24 22 23 25 30 29 32 34 45 53 54 57 59 59
48 41 38 37 36 31 23 17 17 20 23 15 15 10 11 16 18 18 21 26 34 34 32 31 30 33 33 32 30 28 27 28 27 28 25 28 30 32 37 39 46 49 52 56 58
41 37 36 36 32 26 23 23 21 28 27 19 15 15 15 14 15 16 19 30 32 34 35 33 30 32 33 33 31 29 30 28 27 25 21 25 25 31 34 38 45 48 50 54 57
38 32 34 37 32 30 23 24 28 29 29 23 20 18 18 18 20 17 18 29 29 34 36 33 32 30 33 30 25 25 26 30 28 27 24 22 24 29 35 37 36 47 50 53 55
35 26 37 33 27 29 27 29 32 29 30 27 24 21 20 21 23 21 23 28 36 36 34 36 34 31 32 33 35 34 32 30 29 27 26 26 25 26 33 34 34 35 49 53 55
36 35 39 32 27 27 30 32 31 30 30 28 27 24 23 21 21 28 28 35 34 34 34 35 35 26 26 29 31 30 30 29 28 26 27 26 28 28 26 28 30 34 42 49 53
36 30 33 33 32 28 30 30 30 32 31 31 28 29 28 25 26 24 29 33 32 31 39 38 31 30 26 27 30 27 28 29 28 24 27 27 28 25 30 25 27 30 33 39 55
35 31 32 28 30 34 33 31 30 31 35 33 30 32 33 30 26 26 27 29 34 36 38 34 28 30 31 32 32 29 28 28 27 27 26 27 26 28 27 28 28 35 41 40 39
35 34 34 32 35 34 34 31 32 33 35 34 32 33 36 34 31 27 27 27 30 35 34 34 28 31 29 30 30 28 27 27 27 28 28 28 25 37 52 53 53 55 56 56 46
41 42 40 38 37 36 35 36 36 38 38 38 38 37 33 33 33 32 31 27 27 32 32 32 30 30 25 27 26 26 27 30 33 35 34 25 32 42 52 51 52 53 55 57 58

GFSSW_sfc_dewp_057.txt.gz
Dewpoint
55 55 55 55 55 55 55 55 55 56 56 56 56 56 55 54 54 52 40 39 44 58 65 69 66 65 65 63 66 59 56 53 51 52 55 59 58 61 61 59 59 60 60 61 66
55 54 54 54 55 55 55 55 55 55 56 56 55 55 55 54 51 46 46 52 56 63 66 63 59 62 60 61 64 60 57 53 52 54 56 59 59 60 59 59 59 60 62 64 65
54 54 54 54 54 54 55 55 55 55 55 55 55 54 54 53 43 29 57 63 58 59 61 61 57 57 56 61 61 59 58 56 54 55 59 58 59 59 59 58 60 60 62 64 64
54 53 53 54 54 54 55 55 55 55 55 55 55 54 54 52 15 34 62 65 60 56 61 52 54 51 49 53 59 58 59 59 57 56 55 55 57 59 59 58 61 62 63 63 62
53 54 54 54 53 54 54 54 55 55 55 56 55 54 52 36 24 41 61 59 55 58 53 46 47 46 40 48 54 57 58 57 58 57 56 56 56 59 59 61 61 62 62 62 61
54 54 54 54 54 54 54 54 54 54 56 57 54 55 47 21 32 43 53 54 54 56 47 49 46 46 42 48 48 53 55 56 55 55 54 54 53 58 60 61 61 62 61 61 61
54 54 54 54 54 53 53 53 53 55 56 56 56 51 43 27 42 46 51 52 54 51 47 45 46 42 37 37 43 47 48 46 49 52 54 52 51 54 60 61 61 61 61 61 61
54 54 54 53 53 53 53 53 54 55 56 56 57 52 35 43 46 46 44 50 52 48 38 35 35 40 33 34 30 32 39 45 48 48 49 51 48 56 60 60 59 60 60 60 61
54 53 53 53 53 53 53 54 56 57 57 56 53 49 16 43 21 22 34 35 45 50 38 33 31 31 30 31 27 33 22 37 46 46 51 50 49 58 59 59 59 60 60 60 60
53 53 52 52 52 52 52 54 59 58 56 55 51 36 18 12 17 18 27 45 44 41 32 28 32 26 26 26 15 23 25 36 43 46 47 49 50 59 58 58 58 59 60 60 60
53 53 52 52 52 52 47 34 28 23 28 19 17 16 13 14 18 19 33 40 40 31 22 28 22 26 21 25 25 30 31 27 41 46 46 46 47 58 59 57 58 58 59 59 59
53 52 52 51 51 52 39 29 31 32 26 21 19 17 17 16 15 16 26 37 38 32 28 25 19 20 21 21 25 26 30 32 34 39 46 47 46 53 59 58 58 58 58 58 58
52 52 51 51 51 41 32 30 34 30 20 16 16 13 9 14 15 14 23 23 35 33 29 22 22 23 21 19 21 23 24 29 32 36 39 45 44 48 57 59 59 57 57 57 57
52 52 51 50 38 37 27 34 38 32 13 11 9 9 12 13 12 17 33 23 21 33 31 30 27 23 21 19 19 17 21 28 29 29 34 41 39 46 52 58 59 59 58 56 57
52 51 50 49 41 31 33 38 29 20 -4 10 13 11 15 12 18 15 35 32 24 25 32 30 29 26 23 22 20 17 17 17 24 30 30 31 38 41 49 55 57 58 59 59 59
52 51 50 45 41 35 38 35 23 12 2 11 14 10 13 17 17 22 33 35 37 33 32 27 30 30 27 24 22 20 23 21 17 20 27 32 32 36 42 51 55 58 59 60 60
51 50 47 45 34 37 38 24 14 7 15 13 14 9 15 15 14 23 31 31 30 23 26 31 26 26 29 27 25 23 19 20 20 14 21 31 31 34 39 45 50 56 59 60 61
50 47 44 42 38 38 27 22 12 18 15 14 14 10 12 16 15 20 24 23 31 34 31 27 16 26 26 26 26 25 23 17 20 13 9 26 29 32 36 37 46 52 55 59 60
48 39 38 36 36 35 28 20 16 20 24 20 15 13 11 15 16 15 21 26 32 28 24 30 28 33 32 33 27 27 24 22 19 26 19 12 27 33 36 37 38 41 53 57 60
43 38 35 37 35 30 27 25 24 28 27 22 16 16 15 15 15 15 16 30 31 30 33 30 20 30 32 33 31 28 27 24 24 19 19 18 21 25 36 37 39 40 49 55 58
38 33 35 37 34 30 25 26 28 28 29 24 20 18 17 17 17 15 15 27 28 28 34 33 26 18 29 30 27 28 27 27 26 24 19 16 19 30 34 40 41 42 44 49 55
40 26 36 34 30 29 27 31 33 29 30 29 26 22 19 20 18 19 17 21 30 31 28 34 28 22 22 30 34 33 30 27 26 28 28 24 19 30 35 36 38 38 44 47 53
38 37 37 35 29 30 32 30 31 30 30 28 26 27 25 21 22 23 25 32 33 32 31 36 31 22 9 17 30 29 31 31 28 30 31 25 23 29 34 35 39 41 42 51 55
38 27 32 34 34 32 31 30 30 32 32 32 30 29 27 26 26 25 25 30 33 30 37 39 32 26 15 19 26 29 29 29 29 26 29 30 30 30 31 35 35 37 39 42 51
38 35 36 31 32 34 33 32 30 31 34 33 31 30 30 27 27 26 26 26 30 34 37 35 25 24 21 22 24 26 26 28 26 29 28 29 32 34 36 37 37 40 43 46 44
38 39 38 36 36 35 34 33 34 35 36 32 33 32 37 35 31 27 27 26 28 34 34 37 25 27 22 19 25 25 25 26 26 28 29 30 31 34 43 50 49 53 55 55 56
42 43 41 36 34 36 36 36 36 38 37 37 37 36 34 33 34 34 33 31 30 30 34 33 30 24 15 26 27 24 26 25 27 34 30 30 34 44 46 51 51 51 52 54 57

GFSSW_sfc_dewp_060.txt.gz
Dewpoint
55 55 55 55 55 55 56 56 56 56 57 56 56 56 55 54 54 50 33 38 41 59 64 63 63 61 60 61 63 62 54 52 49 50 55 58 59 60 61 59 59 60 59 62 64
54 54 54 54 54 55 55 56 56 56 56 56 56 55 54 54 47 39 42 48 54 60 62 61 59 58 55 57 62 58 55 51 51 53 55 57 58 59 58 58 58 59 60 62 64
54 54 54 54 54 54 55 55 55 56 56 56 55 54 54 53 39 33 53 61 59 61 54 57 55 55 50 54 57 56 55 54 53 55 57 57 57 58 57 57 58 59 61 62 64
53 54 54 54 54 54 55 55 55 55 55 56 55 54 54 49 19 35 61 64 66 53 51 50 50 48 46 49 52 52 54 56 54 54 56 55 57 57 57 57 59 61 62 62 63
55 55 55 55 54 54 54 55 55 55 55 56 56 55 51 35 16 39 61 62 57 48 50 49 46 43 36 40 44 50 52 55 56 54 54 55 55 57 57 60 60 61 62 61 61
55 55 55 54 55 54 54 54 54 54 55 57 56 56 43 18 31 40 51 51 43 41 48 43 40 38 34 35 37 43 44 50 54 54 53 53 52 56 58 60 61 61 61 60 60
55 54 54 54 54 54 54 54 54 55 57 57 56 50 36 29 38 37 48 47 48 42 42 40 38 36 30 33 39 37 43 43 48 53 53 53 51 52 59 60 60 60 60 60 60
54 54 54 54 53 53 53 54 55 55 56 57 57 50 28 32 37 31 39 46 51 47 40 42 38 37 31 29 25 27 32 34 43 50 52 51 47 52 59 59 60 60 60 59 60
54 54 54 54 53 53 53 54 57 57 57 56 51 43 16 39 19 20 28 41 46 41 41 39 35 35 34 25 17 19 20 28 47 49 50 49 47 55 57 57 59 60 59 59 60
53 53 53 53 53 53 52 53 59 57 54 52 46 35 16 16 19 19 30 41 43 41 30 30 29 26 26 20 15 16 19 23 41 47 48 48 48 55 57 57 58 59 59 59 59
53 53 53 53 52 52 46 36 34 24 23 19 16 13 12 16 19 23 38 40 39 42 28 24 25 21 19 20 18 23 20 22 37 46 47 47 47 54 56 56 58 59 59 59 59
53 53 53 52 52 52 40 28 32 33 23 18 16 14 13 14 15 19 34 36 33 30 27 22 19 21 21 18 20 19 26 28 27 41 48 46 45 47 56 55 57 59 59 59 59
53 53 52 52 52 42 31 32 35 35 22 15 13 11 11 13 13 15 26 33 34 28 24 21 19 18 17 21 19 19 18 25 27 32 42 45 45 46 51 55 56 57 59 59 58
53 53 52 51 41 35 30 35 36 35 14 13 10 10 12 12 12 18 30 26 29 31 29 25 23 21 18 19 18 16 15 15 26 30 32 41 39 45 46 53 55 56 57 57 58
53 52 51 50 37 31 35 35 32 25 -1 10 11 13 14 12 14 16 30 28 21 23 32 28 26 25 23 21 18 18 15 16 17 27 30 34 38 40 44 48 54 55 56 56 58
52 51 50 44 40 34 35 33 25 14 2 10 13 11 12 13 13 18 23 28 33 26 27 28 31 28 26 25 23 20 18 18 17 12 20 29 33 36 41 44 47 54 55 57 57
50 50 45 41 33 35 35 25 14 7 13 12 12 12 13 13 13 18 21 21 18 19 18 23 23 28 29 26 26 22 18 18 15 9 4 20 28 34 37 43 44 48 54 56 58
49 48 43 37 36 35 34 24 17 14 13 15 14 14 12 14 14 15 17 15 25 21 15 17 14 19 26 28 25 24 20 16 19 11 7 11 19 28 36 39 43 47 52 56 57
49 39 35 35 35 35 30 22 18 18 20 18 15 14 13 14 15 14 17 16 24 23 17 19 17 26 29 26 28 26 23 21 16 16 12 8 11 22 32 35 39 43 47 50 54
40 37 32 35 35 31 27 25 24 25 25 21 17 17 15 14 16 15 15 23 25 24 23 21 17 19 27 32 31 29 27 21 21 21 20 17 17 11 32 35 38 40 41 47 51
35 33 34 35 33 30 25 27 27 27 28 25 22 20 19 18 18 17 16 19 23 25 25 21 18 12 17 26 23 26 26 27 22 21 19 17 16 20 25 30 37 38 41 42 51
33 26 35 36 31 30 28 30 31 27 28 27 27 25 23 21 20 19 18 18 25 24 21 24 19 17 14 16 30 29 29 27 24 27 23 22 17 21 24 25 32 37 39 41 45
32 31 35 34 28 28 30 28 29 28 29 27 26 25 25 22 22 22 22 23 28 24 23 27 17 16 14 11 17 21 28 30 26 27 29 23 22 26 30 35 32 34 37 43 45
34 31 33 34 33 31 31 29 28 30 30 31 29 29 27 26 26 25 22 23 29 26 36 31 17 19 10 16 19 27 30 30 29 27 27 26 28 29 30 32 36 40 40 39 45
36 34 35 30 30 32 31 31 29 28 31 31 30 29 28 27 26 26 25 24 25 29 31 30 23 21 18 16 15 17 20 24 27 30 28 28 29 33 33 32 34 36 41 43 41
37 37 36 34 35 33 35 32 32 33 33 32 30 31 34 34 30 30 28 28 27 26 30 32 26 23 20 15 11 9 13 19 21 28 29 30 30 31 36 40 46 44 50 50 49
41 41 38 35 34 35 35 36 36 38 37 36 35 36 34 36 35 33 32 29 31 31 34 32 27 22 16 13 14 17 19 22 23 27 28 28 32 35 36 41 48 49 49 50 51

GFSSW_sfc_dewp_063.txt.gz
Dewpoint
55 55 55 55 55 55 56 56 57 57 57 57 57 57 55 55 55 50 32 41 42 57 63 56 54 57 57 56 59 62 56 51 49 50 55 55 56 58 58 57 58 59 60 62 63
55 55 54 55 55 55 55 56 56 56 57 57 57 56 55 55 48 38 48 50 52 56 56 53 52 55 53 53 54 59 57 55 57 52 56 56 56 57 56 56 57 59 61 63 62
54 54 55 54 54 55 56 56 56 56 56 56 56 56 55 54 42 33 55 55 60 57 56 54 53 53 50 50 52 54 56 53 53 56 54 54 56 56 56 54 56 58 61 62 62
53 54 54 54 54 55 55 56 56 56 56 56 57 56 55 50 28 39 59 63 65 52 56 51 50 48 45 45 49 49 50 53 55 57 54 54 54 53 57 57 56 59 62 62 62
54 55 55 54 54 55 55 55 55 55 55 56 57 56 52 40 23 35 60 62 57 44 50 49 47 45 40 41 44 47 49 53 54 54 54 57 51 54 55 56 58 60 61 61 61
55 55 55 55 55 55 55 55 55 55 55 57 58 56 49 28 28 33 46 52 47 37 46 46 43 43 37 35 37 39 44 50 53 53 53 51 50 52 56 58 59 60 60 61 60
55 55 55 55 54 54 54 54 57 55 57 57 57 53 40 28 32 33 44 44 45 35 39 44 41 39 33 30 31 36 38 42 46 53 52 51 53 49 56 58 59 59 60 60 59
55 55 55 55 54 54 54 54 57 55 56 57 57 51 28 26 31 30 40 42 41 37 36 44 37 35 33 28 27 31 33 35 41 48 51 51 48 49 56 57 58 58 59 60 59
54 55 55 55 54 54 54 53 58 57 57 58 55 46 20 35 22 22 35 40 44 44 41 38 37 34 32 26 23 21 26 30 34 39 46 50 51 56 55 56 58 58 58 58 59
54 54 54 54 53 53 53 53 57 57 57 50 43 34 17 16 20 21 26 37 45 37 39 37 36 29 29 26 16 16 19 22 30 45 46 48 52 62 56 54 57 58 58 58 58
54 54 54 53 53 52 47 42 43 38 32 17 15 13 14 17 20 28 35 39 39 36 28 33 29 22 24 26 22 14 14 20 27 48 45 46 50 61 53 52 57 58 57 58 58
54 53 53 53 52 52 45 25 28 29 21 14 14 13 14 17 14 25 37 32 35 35 31 22 20 22 20 19 18 16 17 19 24 35 46 46 47 50 52 53 56 57 57 57 57
53 53 53 52 52 44 29 30 31 30 21 14 10 9 10 13 13 16 27 33 29 32 31 25 20 20 20 19 18 17 17 19 25 26 41 44 47 48 58 52 55 56 58 56 57
53 53 52 51 43 30 30 31 31 29 18 12 8 8 10 11 12 17 25 28 28 27 23 23 22 20 19 17 19 19 17 15 18 26 28 39 40 52 51 51 53 55 56 57 56
53 52 51 50 42 29 32 31 28 27 8 10 8 11 11 9 14 15 21 24 21 21 27 24 22 21 21 19 18 20 18 15 13 15 27 30 34 46 50 52 50 53 55 56 57
52 51 50 45 40 31 32 30 25 15 5 8 10 9 10 10 10 14 17 19 21 22 22 24 26 23 21 22 21 21 19 18 16 12 13 26 30 37 42 45 48 51 53 55 56
50 50 48 39 32 32 32 29 18 6 14 11 10 8 9 10 11 12 15 15 12 16 13 14 18 23 28 23 23 23 20 17 15 13 10 13 24 33 39 46 46 49 52 54 56
49 48 45 35 33 33 32 27 18 13 11 14 10 11 9 11 11 11 13 12 20 16 12 11 10 15 19 25 24 23 21 18 21 14 12 14 11 23 33 40 46 49 50 52 54
49 39 34 33 34 32 31 23 21 20 19 17 15 12 10 12 12 14 14 12 15 20 16 8 9 18 19 19 23 25 22 20 17 17 15 12 11 10 26 33 44 52 48 51 53
42 31 32 34 33 32 28 27 24 24 24 21 18 15 15 13 14 14 14 17 20 22 20 16 17 19 17 23 26 25 24 20 19 22 21 16 19 11 18 26 33 40 42 47 52
43 33 33 34 32 31 25 28 26 26 27 24 23 21 19 18 18 17 17 17 19 21 23 17 17 17 11 20 23 21 24 26 23 19 19 19 17 22 22 23 31 35 41 44 50
33 28 35 35 31 30 27 28 30 25 27 26 26 25 23 23 22 21 19 19 22 22 21 21 17 15 14 11 12 15 18 17 23 28 21 20 18 21 22 19 29 34 38 40 44
32 33 34 33 28 26 29 26 27 26 27 27 25 24 25 23 23 23 22 22 23 24 22 23 20 18 15 13 15 14 20 24 23 21 28 20 20 24 26 26 25 28 33 41 43
35 31 32 31 30 28 30 28 26 28 27 28 28 27 25 24 25 25 22 23 25 24 37 29 23 23 14 16 18 18 15 21 22 22 23 24 25 26 28 30 32 32 34 38 45
35 31 35 29 30 30 31 29 27 29 30 30 29 28 27 26 24 24 24 23 23 27 28 26 23 21 17 16 16 16 17 19 21 28 29 26 27 30 30 31 33 36 39 39 42
36 36 33 33 34 33 32 33 32 33 33 30 29 30 29 31 29 31 30 30 28 28 28 24 22 25 26 22 16 15 14 16 23 26 29 30 32 33 34 39 33 37 41 47 48
40 40 37 35 32 33 31 33 34 35 35 34 34 34 32 30 31 31 30 28 26 27 28 30 35 27 23 20 18 15 14 12 14 20 23 25 32 35 35 38 43 42 47 48 49

GFSSW_sfc_dewp_066.txt.gz
Dewpoint
56 56 55 55 55 56 56 57 57 57 57 57 57 57 57 56 55 50 32 42 47 61 57 44 50 53 58 55 57 59 58 55 53 59 59 61 55 57 60 57 57 60 60 61 62
55 55 55 55 55 56 56 57 57 57 57 57 57 57 57 55 49 39 53 57 52 54 40 47 48 50 52 53 54 55 58 55 56 57 55 57 56 55 55 56 58 61 61 61 61
54 55 55 55 55 55 56 56 57 56 57 57 57 57 56 54 46 36 59 59 58 54 45 50 47 50 49 51 50 51 51 61 60 58 58 54 55 54 55 55 59 61 60 61 61
54 54 55 55 55 55 56 56 56 56 56 56 57 57 55 50 35 41 62 62 62 45 40 53 47 48 48 47 48 47 51 52 55 55 57 61 60 59 59 62 61 61 61 61 60
55 55 55 55 55 55 56 56 55 56 56 56 57 57 52 44 33 44 66 63 51 42 41 53 48 47 44 43 44 44 47 49 57 55 59 55 60 63 55 58 61 61 61 60 59
55 56 56 56 56 55 56 56 56 58 56 56 57 57 45 38 27 30 44 53 42 33 46 52 47 45 43 40 39 42 42 46 52 54 58 55 59 60 60 62 60 61 60 59 59
55 55 55 56 55 55 55 55 55 58 57 58 59 52 48 33 28 28 39 43 43 32 34 47 46 42 41 37 33 32 35 39 43 53 53 53 53 54 60 58 57 60 60 60 60
55 55 55 55 55 55 55 54 54 58 57 57 57 52 43 21 27 26 33 40 44 40 30 40 43 38 37 36 27 27 30 33 36 44 52 51 51 55 60 58 57 60 60 60 60
55 55 55 55 55 54 54 54 54 59 58 57 55 51 35 35 22 23 30 37 38 35 36 37 41 38 31 32 25 24 24 30 33 40 45 51 53 60 64 61 56 57 59 60 60
54 54 54 54 54 53 53 53 53 58 56 51 48 37 27 15 18 18 24 36 39 35 38 35 36 32 29 28 23 20 21 24 29 34 41 45 55 59 61 59 55 56 59 59 59
54 54 54 54 53 52 48 37 41 44 41 33 25 23 15 15 20 23 24 31 39 39 36 35 33 32 31 26 26 21 16 17 22 26 38 40 53 56 57 57 56 56 58 59 58
54 53 53 53 53 52 46 30 26 26 24 22 15 11 11 14 14 26 32 33 36 35 28 31 31 32 22 25 25 24 21 15 15 21 40 49 53 55 55 53 58 55 55 58 57
54 53 53 52 52 43 31 28 28 26 19 15 7 5 8 10 11 17 31 31 30 30 31 24 22 26 23 19 20 19 18 16 16 20 36 39 52 54 53 57 62 57 54 56 58
53 53 52 51 45 30 29 29 28 27 20 13 7 5 7 8 9 14 19 26 29 28 26 28 26 21 19 19 19 18 17 15 15 16 22 27 39 53 54 59 58 58 53 54 57
52 52 51 50 40 33 30 28 25 24 15 12 7 10 8 6 13 12 17 22 23 23 26 23 24 23 21 18 19 19 19 18 16 16 17 23 25 44 54 52 57 57 54 52 55
52 51 50 44 44 35 29 30 25 18 9 7 9 6 6 7 8 14 16 17 17 17 20 19 22 21 20 20 19 19 17 20 19 14 13 15 20 28 48 50 53 58 57 53 53
51 50 49 41 33 29 30 30 20 12 13 11 7 6 7 9 8 8 11 13 10 12 13 7 14 21 25 21 20 21 18 17 17 14 13 13 11 25 36 49 51 53 57 54 56
50 49 44 39 33 31 31 28 21 13 12 12 7 7 5 7 9 9 11 11 12 15 12 13 9 8 18 25 22 21 20 18 20 14 13 18 15 15 21 47 54 56 59 59 55
49 41 37 36 32 32 30 25 24 21 20 17 14 11 8 8 9 11 13 10 11 19 19 14 7 9 12 14 21 24 22 19 17 17 15 15 16 17 17 22 48 50 55 58 58
44 37 32 33 33 32 29 29 26 25 24 21 18 16 14 11 13 13 12 15 12 21 22 19 16 13 13 17 18 18 21 20 19 22 22 18 21 17 24 22 29 49 56 58 60
44 36 34 33 32 32 27 28 26 25 26 23 23 23 21 19 18 17 16 17 17 18 22 21 19 15 14 16 17 19 21 23 22 22 20 19 19 26 32 27 27 48 53 56 59
40 30 32 33 32 28 28 26 29 24 26 25 25 23 22 22 22 21 20 19 22 22 20 22 20 17 13 14 13 11 21 21 23 28 26 22 18 22 25 25 24 26 51 52 57
39 32 31 30 27 25 27 25 25 25 25 26 24 24 24 23 22 22 21 22 24 24 25 25 21 18 17 16 16 14 12 14 16 18 29 25 21 24 28 29 30 26 32 49 59
41 30 31 31 30 28 28 27 25 25 27 27 27 26 24 23 23 23 21 21 23 24 36 26 21 22 20 21 21 19 14 13 12 15 17 17 24 31 29 29 33 34 37 39 50
34 30 32 30 31 30 31 31 29 29 31 29 27 26 25 25 24 22 21 22 21 32 25 23 21 21 19 19 17 17 16 16 17 17 22 21 21 28 39 40 39 48 45 41 42
35 35 33 32 33 30 33 32 30 30 31 29 31 30 30 30 26 26 24 28 27 29 31 29 22 21 19 18 21 21 20 16 16 18 18 18 22 29 36 44 44 48 54 50 52
40 39 36 36 30 29 31 32 31 34 33 32 32 31 29 29 30 30 28 28 26 27 28 28 32 32 26 20 17 19 20 18 17 18 20 23 25 32 34 42 43 47 52 55 52

GFSSW_sfc_dewp_069.txt.gz
Dewpoint
55 55 55 55 56 56 57 57 57 57 58 58 58 58 58 58 57 52 40 40 44 62 58 46 42 49 57 61 61 60 58 56 58 55 55 59 59 58 61 60 60 61 61 62 62
55 54 55 55 55 56 56 57 57 57 57 57 57 57 58 57 51 45 51 62 63 63 30 39 40 47 50 56 57 55 57 57 56 58 58 58 60 58 59 59 60 60 62 62 62
54 55 55 55 55 56 56 57 57 57 57 57 57 57 58 55 49 41 61 64 64 58 29 38 42 46 49 51 53 53 52 56 57 60 63 60 62 65 58 59 60 60 61 61 61
54 55 55 56 56 56 56 56 56 56 57 57 56 57 57 52 39 42 64 64 65 43 32 40 47 44 48 47 50 48 50 52 58 59 60 62 65 63 62 62 62 61 61 61 61
55 55 55 55 56 56 56 56 56 56 58 57 56 57 53 47 40 48 66 63 52 41 33 34 50 48 45 47 47 46 47 48 51 57 60 63 61 59 61 63 62 61 61 60 60
55 56 56 56 56 55 56 56 55 55 58 57 57 58 49 40 35 50 52 53 41 38 33 34 52 49 46 45 43 43 43 43 52 56 59 59 62 60 60 63 62 61 60 60 60
55 56 56 56 55 55 55 55 55 55 59 58 59 54 49 44 31 41 45 50 44 38 32 43 51 51 45 42 41 38 31 32 42 57 56 61 61 61 66 64 61 60 60 59 59
55 55 55 55 55 55 55 54 54 55 59 57 58 52 49 42 25 28 28 40 45 39 29 38 43 45 41 40 37 33 26 27 31 43 53 57 57 63 66 64 59 59 59 59 59
55 55 55 55 55 54 54 54 54 55 59 57 56 51 46 39 21 24 26 36 44 41 32 27 30 39 40 31 31 33 25 26 28 32 42 52 57 64 64 64 62 59 58 59 59
55 55 54 54 54 53 53 53 53 53 58 53 49 45 43 23 19 18 21 33 38 39 35 31 34 37 37 30 27 29 23 22 23 30 33 51 58 59 58 62 62 60 59 59 59
54 54 54 54 53 52 50 39 43 43 41 43 38 40 18 16 21 21 20 32 38 34 33 35 32 34 34 31 28 27 26 23 21 25 30 48 56 55 56 59 63 63 59 59 59
54 53 53 53 52 52 50 37 27 25 24 25 27 24 11 12 14 25 27 25 36 37 38 36 32 33 33 31 29 25 24 24 23 19 40 55 55 56 55 59 61 62 59 58 59
53 53 52 52 52 49 34 31 28 27 23 19 16 12 8 8 10 25 31 31 33 36 33 27 31 33 32 31 23 22 24 22 22 19 40 52 52 54 55 57 60 63 63 59 58
53 53 52 51 47 38 35 31 28 28 23 19 9 7 8 10 7 17 20 24 28 29 29 29 28 24 28 28 24 18 20 20 17 16 16 35 42 52 53 55 59 62 60 58 58
53 52 51 51 44 38 31 28 25 26 18 13 7 11 6 5 13 13 17 20 24 24 25 25 27 28 25 23 20 19 22 20 20 17 16 14 17 50 51 53 56 57 56 58 59
52 52 51 46 47 42 38 29 31 22 16 8 9 8 7 7 6 15 17 18 18 15 15 18 19 20 23 24 22 21 19 19 19 19 17 15 15 49 50 52 52 54 54 58 58
51 50 49 44 40 36 31 32 26 18 13 9 7 5 6 7 7 11 11 14 12 10 13 13 6 9 16 23 21 20 25 18 18 17 16 17 15 13 53 53 52 53 57 57 59
49 49 48 38 39 38 34 31 27 20 16 13 9 7 9 10 11 11 13 11 13 13 13 13 13 6 13 20 24 22 18 19 16 17 17 19 16 18 44 54 53 56 56 59 63
49 44 39 39 38 38 34 30 26 24 24 21 18 13 10 8 10 12 16 12 17 21 20 18 16 17 14 14 22 25 24 21 18 18 18 19 19 20 20 49 53 52 54 61 62
47 44 41 34 35 35 34 30 26 25 23 22 20 20 19 16 14 13 13 17 20 22 23 21 18 18 16 15 17 20 22 18 20 17 18 20 21 23 27 31 51 50 58 57 60
47 43 37 31 36 37 30 29 25 24 25 24 24 23 23 23 22 21 19 21 21 21 22 24 20 20 19 15 15 17 19 21 22 23 19 17 19 24 25 30 38 51 57 55 58
45 36 34 36 36 37 27 25 31 25 26 25 27 23 24 24 23 22 21 23 23 24 22 24 19 19 19 20 18 16 15 14 22 22 26 27 25 25 22 24 44 50 56 56 59
44 39 34 33 28 29 30 25 25 24 26 26 25 25 25 24 24 24 24 24 25 25 29 25 23 20 20 17 18 20 18 16 13 17 17 20 23 28 35 39 44 49 56 56 55
45 33 35 34 33 30 32 29 26 29 28 27 27 27 26 25 25 25 22 20 23 27 36 30 22 21 18 19 19 20 20 19 17 12 13 15 20 20 37 38 40 42 54 54 56
45 33 34 31 32 31 31 31 28 28 30 32 32 30 29 29 26 25 26 27 27 38 30 26 20 21 19 18 17 17 18 20 20 18 17 17 17 19 39 39 43 48 54 56 58
40 40 36 34 34 31 34 32 29 31 32 30 31 30 30 29 30 28 28 29 27 32 31 31 27 27 27 25 19 16 17 20 21 20 18 17 18 26 27 40 41 45 49 56 58
45 45 43 36 33 31 32 31 30 35 32 31 31 32 31 32 32 32 31 30 27 27 28 27 27 30 25 28 27 21 20 18 19 20 20 16 18 23 24 26 47 53 53 55 58

GFSSW_sfc_dewp_072.txt.gz
Dewpoint
55 55 55 56 56 56 56 57 57 57 57 57 58 58 58 59 58 53 43 39 43 63 61 56 56 49 51 62 62 61 58 57 57 54 55 59 61 62 63 61 61 62 61 61 63
54 55 56 56 56 56 56 57 57 57 57 57 57 57 57 58 52 46 50 58 61 65 31 37 39 45 48 58 60 59 56 56 57 57 60 60 61 62 61 60 59 62 61 61 62
55 55 56 56 56 56 56 56 56 56 57 57 57 57 58 56 50 47 58 62 67 61 32 28 41 45 46 50 56 56 55 56 57 59 62 61 64 65 62 59 61 61 60 61 61
55 55 55 56 56 56 56 56 56 56 56 57 57 56 58 53 38 42 66 64 67 44 31 35 41 44 45 47 51 50 52 54 54 61 62 62 64 63 64 64 63 62 61 61 61
55 55 55 55 55 56 56 56 55 55 56 58 56 57 53 47 43 48 67 66 57 40 31 31 42 48 44 47 49 47 48 50 50 59 62 63 59 62 63 65 64 62 61 60 61
55 55 55 55 55 55 55 55 55 55 55 59 57 58 46 39 44 54 55 54 45 38 35 31 38 51 48 45 46 47 45 43 41 62 62 60 60 58 62 64 63 62 61 60 61
55 55 56 55 55 55 54 54 54 55 55 59 59 55 49 41 44 53 50 50 46 38 33 32 34 43 50 45 45 44 36 32 54 59 59 61 59 60 64 63 62 61 60 60 60
55 55 54 54 54 54 54 54 54 55 55 58 59 54 47 51 50 51 50 50 44 40 34 34 41 43 46 45 36 33 31 25 39 58 59 58 57 63 64 63 61 60 59 59 60
55 55 54 54 54 54 54 53 54 55 55 58 53 51 46 51 21 23 30 30 45 41 34 29 30 27 35 37 30 32 31 30 27 53 58 57 59 62 64 64 61 59 58 59 59
54 54 54 54 54 53 53 53 52 54 56 55 52 45 42 35 21 21 20 37 43 42 38 33 30 30 35 34 28 30 29 25 24 25 54 56 59 61 64 63 61 60 59 58 59
54 54 53 53 53 52 51 42 31 37 45 42 43 41 31 21 23 21 19 31 38 36 32 33 32 31 35 36 31 29 27 26 27 27 25 52 59 60 62 61 62 61 61 58 59
54 53 53 53 53 52 49 34 28 25 23 30 35 36 36 21 14 20 22 25 35 32 34 36 32 34 34 34 32 30 27 26 26 28 50 57 58 59 61 62 62 62 61 59 59
53 53 53 52 52 48 38 31 32 35 25 22 21 19 20 8 12 26 24 23 34 36 36 35 35 36 33 33 32 30 28 26 24 45 53 53 53 54 56 61 63 63 62 61 58
53 53 53 51 41 40 35 33 29 26 20 20 16 8 8 9 8 24 28 25 30 33 35 32 31 27 31 31 31 28 25 22 22 18 15 43 45 52 54 59 62 62 61 62 60
53 53 52 51 42 39 34 39 31 23 14 17 8 10 6 5 12 13 20 20 25 25 21 23 29 29 28 25 29 28 27 21 23 19 17 18 20 39 53 55 59 62 60 61 60
53 52 51 46 46 43 43 37 28 19 15 10 9 8 6 8 8 15 19 19 21 18 15 12 17 22 25 26 25 24 21 20 20 19 16 17 15 34 50 51 55 61 62 61 59
51 50 49 46 36 39 38 31 24 17 19 9 7 6 5 6 8 10 16 15 10 7 11 14 14 9 11 15 23 21 18 17 17 15 15 18 17 17 48 52 52 57 61 60 59
50 49 49 43 41 38 35 29 24 23 23 22 18 6 5 8 10 10 12 11 19 15 16 16 11 17 16 16 18 23 18 17 14 15 17 19 16 17 36 51 51 53 58 59 59
50 44 40 37 39 38 31 28 24 24 24 22 20 13 20 14 10 11 16 18 21 21 18 17 16 20 20 18 17 23 23 21 18 22 17 19 20 23 26 43 52 52 55 59 61
45 44 41 40 38 34 30 28 24 25 24 24 22 23 21 22 21 16 17 21 21 23 22 20 16 20 21 19 20 16 19 17 19 18 18 19 20 21 24 38 48 52 53 57 62
46 40 39 33 35 34 25 24 24 26 26 23 23 21 22 22 22 21 20 23 23 23 23 21 19 19 18 19 20 18 15 15 20 21 20 18 19 29 35 45 47 52 53 54 61
44 29 33 35 30 30 24 25 30 27 27 26 25 24 23 23 22 22 22 23 26 26 25 24 19 18 19 22 22 18 19 17 16 14 23 25 24 32 39 42 49 54 51 56 60
43 42 35 34 28 29 28 27 29 27 29 26 27 27 25 23 21 22 22 26 27 27 25 24 22 19 17 20 20 20 18 22 19 18 15 16 18 25 37 45 51 55 57 58 59
42 30 32 33 32 30 30 28 28 30 31 31 30 29 28 28 27 26 27 29 32 32 40 30 21 20 18 20 20 17 17 17 20 18 17 17 17 19 26 36 43 54 57 57 57
39 30 34 30 31 31 30 30 30 31 32 31 31 30 28 28 28 28 29 28 29 36 31 26 19 23 23 25 25 25 23 19 17 20 19 19 18 18 25 27 46 51 56 58 60
36 37 35 32 31 30 33 30 31 32 30 30 31 32 32 31 31 29 30 29 27 27 30 30 26 28 27 27 26 22 23 23 21 19 20 21 22 43 44 49 52 52 56 58 60
45 44 35 34 31 30 30 31 32 34 33 33 33 31 32 32 33 32 32 31 30 29 25 26 27 27 22 28 24 19 19 22 23 24 35 38 39 43 44 46 47 50 54 56 59

GFSSW_sfc_dewp_075.txt.gz
Dewpoint
54 55 56 56 56 56 56 56 57 57 57 57 57 57 57 58 58 55 43 37 42 61 69 65 60 53 55 62 63 62 58 56 56 55 56 61 62 63 64 61 60 62 60 64 65
55 56 56 56 56 56 56 56 56 56 57 57 57 57 57 58 53 48 50 54 56 66 48 54 49 48 48 55 61 60 56 56 57 56 59 61 63 62 65 60 60 61 62 64 65
55 56 56 56 56 56 56 56 56 56 56 56 56 56 57 57 50 46 57 57 63 66 30 40 41 46 46 50 59 59 56 57 58 60 60 62 63 64 63 60 61 59 61 63 64
55 55 55 56 56 56 56 56 56 55 56 56 57 56 57 53 32 42 62 63 65 57 32 31 39 43 45 48 50 52 53 57 56 61 61 61 61 62 63 64 65 60 62 62 63
55 55 55 55 55 55 55 55 55 55 55 56 57 56 52 45 38 49 62 66 61 37 31 34 43 45 44 46 48 49 49 49 51 53 62 62 58 59 60 65 66 61 61 61 62
55 55 55 55 55 55 55 54 54 54 55 56 58 57 45 25 40 59 56 58 51 36 31 34 41 47 47 46 45 48 47 47 44 61 61 59 60 58 62 66 66 62 60 61 60
55 54 54 54 54 54 54 54 54 54 54 56 58 55 49 28 48 56 54 48 42 35 33 31 34 42 50 49 47 46 44 36 59 61 60 58 56 59 63 64 65 61 60 60 60
54 54 54 54 54 54 54 53 54 54 55 56 59 53 44 50 51 50 48 45 43 37 32 33 34 41 46 46 38 33 32 28 57 58 59 57 56 62 64 64 62 61 60 60 61
54 54 53 54 54 54 54 53 54 54 55 58 53 49 45 51 41 38 48 46 42 41 38 31 34 30 32 34 31 31 31 32 30 58 59 58 57 61 64 63 62 60 59 60 60
54 54 54 54 54 53 53 52 54 56 56 55 53 45 40 34 23 25 45 42 44 40 36 32 30 29 35 35 32 30 30 28 27 53 56 57 57 61 63 62 61 60 59 59 60
54 54 54 54 53 53 50 42 30 32 48 33 37 38 37 33 22 19 18 39 40 38 35 32 29 30 32 35 35 32 29 27 28 28 26 55 56 59 62 62 61 60 59 58 59
54 54 54 53 53 52 49 32 30 30 24 33 40 40 39 35 20 21 22 33 36 34 33 34 31 32 34 36 34 33 30 29 28 39 43 57 56 59 61 61 62 61 60 58 58
54 54 53 53 52 48 38 31 34 31 24 23 25 25 24 25 13 16 22 26 34 34 33 33 35 37 34 33 33 33 30 29 28 36 55 54 56 58 59 61 62 63 62 60 58
54 54 53 51 39 39 36 35 39 27 19 19 18 15 10 9 10 19 27 28 32 34 36 34 36 34 32 33 32 30 31 29 25 20 17 48 47 54 55 57 59 62 62 61 58
54 53 52 51 41 39 36 41 37 23 13 20 8 9 6 4 13 14 19 21 23 24 28 31 27 30 27 26 31 30 31 26 23 19 18 24 26 43 54 54 58 61 61 62 61
53 52 51 47 44 43 42 36 26 18 13 10 9 6 6 7 7 15 17 17 18 15 16 13 16 26 29 29 28 28 27 20 20 18 15 16 16 24 50 53 54 60 62 62 61
52 51 49 46 32 38 36 30 22 20 23 21 9 6 6 7 8 15 16 13 14 7 10 14 16 16 15 14 21 20 19 16 16 15 14 18 16 18 46 52 53 56 60 62 60
50 49 49 45 40 36 33 26 22 23 23 24 22 10 11 10 10 13 14 13 21 13 16 12 11 17 19 18 17 22 18 17 13 15 16 20 15 18 24 31 49 54 58 61 61
49 43 41 39 43 37 30 23 22 23 24 23 23 21 21 22 12 16 20 21 21 21 16 15 16 21 21 19 20 20 22 24 18 22 17 18 20 24 38 44 49 52 56 61 62
45 43 41 41 38 33 26 26 24 26 25 24 21 22 20 21 21 16 20 23 21 24 21 20 13 20 21 19 20 17 17 17 19 17 16 19 20 29 38 43 50 53 53 58 61
45 34 34 34 35 27 24 25 25 27 27 24 23 22 22 21 22 21 22 23 25 23 24 24 18 15 19 19 18 19 18 18 19 21 18 18 23 30 40 44 52 55 56 55 59
43 29 34 33 29 28 24 26 31 29 30 28 26 24 23 24 22 22 25 28 29 27 23 25 20 18 19 21 20 18 18 18 16 16 18 23 26 24 25 41 51 55 57 57 59
42 40 35 33 26 27 30 29 30 30 30 28 29 28 27 27 23 26 27 30 33 30 24 23 21 17 14 16 20 18 18 21 19 18 17 16 18 22 33 32 46 55 58 59 61
34 28 31 33 32 30 29 30 29 32 31 31 31 30 28 28 28 28 28 29 30 35 41 29 21 19 17 19 20 22 24 20 19 18 18 19 19 29 40 45 51 55 57 59 61
34 31 33 30 30 31 31 31 31 31 31 32 31 32 29 29 29 29 30 29 28 34 31 21 22 26 23 26 26 25 24 24 19 19 18 20 20 41 43 47 49 52 56 58 58
39 38 34 31 31 30 32 31 31 32 30 30 31 32 32 30 30 29 30 29 28 29 27 28 26 27 25 27 25 23 23 22 21 22 22 25 30 42 43 47 47 49 52 55 58
45 44 34 34 30 30 30 31 32 33 32 33 32 31 32 32 33 32 33 31 30 28 27 25 25 25 20 27 22 15 19 20 23 33 29 32 38 42 42 45 45 46 46 49 52

GFSSW_sfc_dewp_078.txt.gz
Dewpoint
55 56 56 56 56 56 56 57 57 56 57 56 56 56 56 57 57 55 45 38 42 59 67 65 59 54 61 62 62 62 57 55 55 55 58 62 63 66 65 61 60 61 61 64 68
55 56 56 56 56 56 56 56 56 56 56 56 56 55 55 56 53 48 50 53 55 67 63 56 52 49 52 56 61 60 57 56 57 58 59 62 61 63 61 62 59 63 65 66 67
55 55 55 55 55 56 56 56 56 56 56 56 56 56 56 56 48 44 57 56 60 61 54 46 48 47 48 54 58 60 57 58 58 60 61 61 61 64 63 61 60 62 64 66 66
55 55 54 55 55 55 56 56 55 55 55 56 56 56 57 53 32 48 62 61 65 46 32 40 44 45 49 48 51 55 54 56 57 61 61 61 63 62 63 64 64 63 64 65 66
55 54 54 54 55 55 55 55 55 55 55 55 57 56 51 42 33 56 60 62 58 43 30 35 42 44 47 48 48 51 53 51 53 55 61 61 60 60 63 66 64 63 64 64 64
54 53 53 54 54 54 54 54 54 54 55 55 58 57 44 19 39 58 59 58 47 34 31 40 42 46 46 46 47 49 49 48 47 55 61 57 57 59 60 66 62 62 62 63 63
53 53 54 54 54 54 54 54 54 54 54 55 59 55 48 20 52 54 56 53 45 34 30 32 42 43 49 49 47 45 44 45 61 61 60 59 56 58 63 66 62 62 61 62 62
53 53 54 54 54 54 54 53 54 54 55 55 58 52 44 48 53 52 46 43 41 35 32 33 37 39 43 45 36 33 33 30 59 59 60 57 53 62 64 65 62 60 61 61 61
53 54 54 54 54 53 52 53 55 55 55 58 52 47 44 54 47 48 47 41 40 40 34 31 30 34 31 33 34 32 32 31 37 58 58 57 55 60 64 64 62 60 60 60 60
54 55 54 54 54 52 52 52 57 57 56 55 53 43 39 35 28 46 48 41 40 39 36 32 30 28 35 35 36 31 30 27 28 56 57 56 56 60 64 61 62 61 59 60 60
55 54 54 54 53 51 50 42 28 30 48 31 29 30 36 35 27 27 43 42 40 38 35 31 28 28 30 34 35 33 29 30 30 29 31 50 55 60 63 62 62 61 59 59 60
55 54 53 53 53 52 48 31 32 30 26 37 41 40 39 36 25 19 39 38 39 36 34 32 28 32 33 35 35 34 31 30 30 41 42 54 55 59 61 61 62 62 60 59 59
54 53 52 53 52 48 37 32 35 35 25 23 31 30 23 31 20 15 26 35 37 33 32 31 33 34 34 33 33 34 32 30 29 33 55 53 53 57 60 61 62 63 62 60 59
54 53 53 51 41 40 35 39 40 31 18 19 19 19 14 11 9 21 26 29 35 34 32 33 36 36 35 34 32 31 32 31 30 21 17 48 39 52 56 58 60 61 63 61 59
53 52 52 50 43 35 37 40 36 23 12 20 11 9 6 5 14 15 19 24 26 31 35 34 30 33 30 29 32 31 32 30 27 21 18 28 32 42 54 54 56 59 61 62 61
52 53 51 47 43 40 41 35 25 17 14 16 10 6 5 6 9 17 16 17 20 14 17 20 17 28 31 30 31 29 23 20 20 18 15 18 20 19 49 53 54 57 59 62 62
52 51 48 45 30 38 34 29 22 20 24 21 20 10 5 6 7 14 19 20 17 13 10 13 16 17 17 13 22 22 20 17 16 15 15 18 17 27 28 37 49 52 58 62 62
51 49 49 45 41 38 32 25 21 23 23 24 23 20 20 18 19 21 19 20 22 16 15 11 12 18 19 17 19 21 19 17 13 15 16 22 16 30 41 47 52 54 56 61 62
49 43 40 39 42 36 27 23 23 24 25 23 22 21 21 22 16 19 21 21 22 22 17 15 16 21 20 20 19 22 20 23 18 21 16 19 30 32 34 42 52 55 55 59 62
45 41 34 36 38 31 26 26 25 27 27 24 21 22 20 21 20 20 21 23 23 24 21 21 14 19 20 20 20 17 20 19 20 16 16 19 28 28 25 28 40 53 55 57 59
41 30 33 35 31 28 23 24 27 29 28 24 23 22 22 22 22 21 27 24 31 26 24 25 14 16 20 19 17 17 17 18 20 20 17 22 25 25 27 36 36 53 56 59 59
37 28 34 32 27 28 26 28 33 30 31 29 27 26 23 25 25 25 28 29 32 26 23 24 19 18 19 21 20 19 18 19 16 15 19 23 20 24 41 47 51 55 57 60 60
36 35 34 30 25 27 30 30 31 30 30 30 29 28 29 27 25 27 29 30 30 35 28 24 20 15 17 17 20 22 21 19 19 19 18 21 23 28 45 48 49 52 57 58 61
32 28 31 33 32 30 29 29 30 32 31 32 32 30 28 28 29 28 28 29 30 36 39 28 20 16 14 17 22 24 24 21 18 17 18 19 23 35 43 46 47 49 54 57 59
34 31 32 29 30 30 31 31 31 30 30 31 31 32 28 27 28 29 29 28 28 34 31 22 24 25 25 26 26 25 23 23 20 21 18 19 26 40 43 46 47 47 49 52 56
39 33 32 32 30 30 32 30 30 31 30 29 30 32 31 30 29 28 30 29 28 29 26 27 28 26 25 27 24 23 23 23 22 22 22 25 34 42 44 47 46 46 47 50 53
45 42 34 34 31 29 30 31 32 32 32 33 32 31 31 32 32 33 32 31 29 28 26 25 25 24 19 27 22 18 22 22 26 32 27 25 35 41 41 44 45 46 47 48 51

GFSSW_sfc_dewp_081.txt.gz
Dewpoint
55 56 56 56 56 56 56 56 56 56 56 56 56 55 54 54 55 53 39 37 42 61 65 61 58 64 62 63 62 62 59 55 54 55 59 63 63 65 65 61 60 61 60 62 64
55 55 55 55 55 56 56 56 56 56 56 56 56 55 54 54 52 44 46 52 55 66 56 53 49 60 60 60 61 60 58 55 55 58 59 62 62 64 62 61 61 62 63 64 65
55 55 55 55 55 55 55 56 56 55 55 55 55 56 56 55 44 33 55 56 58 66 55 47 49 54 55 57 59 60 57 57 57 60 61 61 61 64 62 60 61 62 63 64 63
54 54 54 54 55 55 55 55 55 55 55 55 55 56 57 53 24 40 60 59 67 57 46 44 45 43 53 54 55 57 56 56 58 61 60 60 61 62 62 64 63 63 64 63 62
53 53 54 54 54 55 55 55 55 55 55 55 55 56 53 37 26 56 60 63 55 43 41 39 41 46 48 53 51 55 55 53 53 59 61 62 60 61 63 65 64 63 64 62 62
52 53 54 53 54 54 54 54 54 54 54 54 55 57 44 19 44 55 53 58 46 36 37 39 42 46 49 49 51 49 50 48 48 48 60 58 59 59 65 65 64 62 62 63 63
53 53 53 53 53 54 54 54 54 54 54 55 56 55 46 20 54 53 54 50 43 33 33 38 45 46 49 48 49 44 42 54 58 58 58 57 58 58 64 64 63 62 62 63 63
53 53 53 53 53 53 53 52 53 55 54 55 57 55 40 48 55 54 46 43 37 33 31 33 41 44 45 45 37 35 34 34 58 59 59 58 54 61 64 62 62 61 61 62 62
54 54 53 53 53 53 52 53 56 56 55 57 54 51 40 54 50 46 41 38 38 35 34 30 33 40 33 39 37 33 37 31 52 58 58 56 53 62 64 62 60 60 60 60 62
55 55 53 53 53 52 51 52 56 57 56 56 53 44 41 38 43 44 44 38 35 33 31 29 28 36 37 39 38 37 32 29 42 56 55 55 54 61 63 64 60 61 60 60 60
55 54 53 52 52 52 50 48 33 40 51 29 30 28 31 34 41 42 40 41 36 33 27 28 31 32 39 39 36 33 31 30 30 38 42 44 47 55 62 61 62 61 60 59 59
55 53 52 52 52 51 48 34 34 31 28 33 40 38 37 36 21 41 43 39 34 28 31 26 27 34 37 35 36 35 34 32 31 47 37 52 54 56 59 59 61 62 60 60 60
53 53 52 51 52 48 38 33 37 36 28 23 32 29 25 33 18 29 39 39 37 33 27 23 28 35 35 35 36 35 36 32 30 31 54 52 52 56 60 61 62 62 61 60 60
53 52 52 51 44 41 36 38 38 34 20 19 19 21 23 22 12 23 34 37 37 35 32 28 35 35 33 33 35 36 34 33 31 27 21 50 31 53 57 59 60 62 62 61 60
53 52 51 49 43 35 38 37 32 26 10 18 16 13 8 7 20 20 23 28 35 35 34 32 35 38 37 35 34 34 33 32 31 27 22 35 34 34 55 55 57 58 60 62 61
52 51 50 46 44 38 38 34 28 20 12 18 12 6 5 7 12 17 19 20 23 28 30 22 23 32 34 33 33 31 26 24 23 22 19 24 30 38 42 46 50 54 58 60 63
51 51 49 43 32 37 37 32 23 19 24 22 21 13 10 12 16 19 22 22 19 26 31 16 17 18 19 27 30 29 26 22 21 19 18 22 28 42 44 48 53 54 54 55 61
51 49 49 45 42 42 33 28 23 23 23 24 23 20 16 19 21 22 22 20 23 17 16 21 16 18 21 20 24 29 26 20 21 18 18 23 29 36 32 39 46 55 57 58 59
50 45 39 37 41 37 31 24 25 26 26 24 22 20 21 20 19 21 23 23 23 24 22 17 16 20 21 21 21 23 23 21 19 20 17 21 30 35 37 45 51 56 58 59 59
47 39 35 36 38 33 28 27 26 29 28 24 22 23 20 22 19 22 24 26 28 25 23 21 17 20 19 19 20 23 21 20 23 22 19 27 28 26 42 49 53 55 57 60 60
39 33 34 34 34 30 25 26 28 30 29 25 23 23 23 23 23 26 27 27 31 28 25 21 18 20 20 20 20 20 20 23 23 22 20 23 25 37 48 51 51 54 58 60 62
35 29 35 34 30 30 29 30 33 30 31 28 28 27 25 26 26 28 27 29 31 29 23 24 20 19 18 21 22 20 21 21 21 25 25 24 22 44 49 51 51 53 57 59 62
35 34 36 33 27 29 31 30 30 29 31 30 29 29 30 28 27 29 28 28 33 33 28 25 21 18 17 18 22 22 22 21 20 23 26 20 21 44 49 51 51 52 56 57 58
35 28 32 34 33 30 28 30 29 31 30 32 32 30 29 29 31 29 27 28 29 35 39 27 23 21 12 21 23 21 19 21 19 19 23 22 24 37 47 49 49 52 54 54 54
36 32 33 30 30 31 31 31 29 29 30 32 32 31 29 27 29 29 29 28 28 34 31 27 25 26 26 24 23 22 19 18 18 21 20 23 25 40 46 48 48 50 53 53 53
39 33 34 32 32 32 33 31 30 30 31 28 31 32 32 31 30 29 29 30 30 30 29 29 28 28 25 25 23 21 21 20 19 19 21 22 29 42 46 47 47 48 49 50 51
47 41 37 35 33 31 32 32 31 32 32 33 32 32 32 32 33 33 32 32 32 31 28 28 28 28 22 26 20 15 19 20 21 27 24 17 33 42 42 43 45 46 47 48 49

GFSSW_sfc_dewp_084.txt.gz
Dewpoint
55 56 56 56 56 56 56 56 56 56 56 56 56 56 55 54 54 50 31 36 40 62 67 57 55 60 61 59 63 62 60 55 53 54 58 63 62 65 65 61 60 60 58 58 58
55 55 55 55 55 56 56 56 56 56 56 56 55 56 55 53 46 36 50 53 55 66 57 48 48 58 57 58 61 60 60 53 53 56 59 62 61 62 62 60 60 60 59 59 59
55 54 54 54 55 55 55 55 56 56 55 55 55 56 56 54 39 27 59 57 62 65 49 41 45 53 51 56 59 59 56 55 55 56 59 60 61 61 60 59 61 60 60 58 59
53 53 54 54 55 55 55 55 55 55 55 55 55 56 57 50 20 42 60 60 63 55 46 42 44 48 46 53 57 56 56 54 55 57 56 57 61 60 61 63 63 62 60 58 58
53 53 53 54 54 54 55 55 55 54 55 55 55 56 53 36 23 53 60 60 52 50 43 40 38 37 40 48 53 55 53 51 50 55 56 60 58 60 60 63 64 63 59 58 58
53 53 53 54 54 54 54 54 54 54 54 55 55 57 45 19 46 50 45 50 46 43 37 35 32 36 37 45 49 51 51 48 47 45 57 57 58 59 63 64 62 60 58 57 57
53 53 53 54 54 54 53 53 53 54 54 55 56 54 41 30 50 43 50 44 39 35 33 34 36 37 40 42 46 48 45 49 49 51 56 57 56 58 64 64 62 58 58 58 58
53 54 53 54 54 53 52 52 54 55 55 55 57 52 33 48 47 45 46 42 36 35 33 36 39 40 41 46 46 43 42 40 52 55 57 56 55 61 64 64 61 58 58 59 59
55 54 54 53 53 52 52 53 57 57 56 57 52 50 35 54 43 39 40 37 33 32 34 33 39 38 41 39 39 41 40 38 52 56 55 55 56 60 63 62 61 59 58 58 59
55 55 54 54 52 52 53 53 56 57 55 52 50 44 42 39 41 39 37 33 31 30 29 29 31 33 33 33 32 39 38 35 46 53 52 49 54 60 62 60 60 59 59 58 57
55 55 53 52 52 52 50 47 43 45 43 25 22 29 34 38 41 38 40 32 31 29 24 25 26 23 28 32 39 38 37 37 46 51 43 42 50 59 62 62 60 59 59 57 54
55 55 53 52 52 51 48 33 33 34 27 31 30 30 31 31 31 35 38 34 29 26 26 22 23 22 31 38 38 38 35 32 37 37 33 39 41 56 61 60 61 61 59 57 55
55 53 52 52 52 49 37 33 35 35 27 24 26 25 26 29 29 34 38 35 29 26 25 20 21 28 34 40 36 37 35 32 33 34 40 43 46 49 56 60 60 60 61 59 56
54 52 51 51 45 40 35 37 34 35 19 19 17 23 23 23 25 35 35 36 33 27 24 20 28 30 33 35 35 33 38 34 30 28 35 42 45 52 53 57 59 60 61 60 60
54 52 51 50 43 34 36 34 31 30 15 15 19 20 20 16 19 26 33 35 34 32 28 24 27 33 34 33 34 31 37 36 32 29 25 31 33 48 55 54 57 58 61 61 60
53 52 51 46 42 35 36 35 29 22 15 15 11 12 10 14 19 24 28 26 33 33 31 30 27 36 35 36 35 35 33 33 32 28 25 26 30 39 45 50 51 53 55 60 61
52 51 50 42 35 37 38 33 23 18 21 17 13 10 9 13 18 22 23 25 29 30 29 26 30 27 28 37 36 32 27 25 28 24 21 26 29 42 44 44 50 53 55 54 61
51 50 48 42 40 40 36 28 22 22 21 21 18 8 13 16 20 21 22 24 23 24 26 19 19 22 21 28 32 30 25 20 26 21 20 27 32 35 42 48 54 56 57 57 56
50 44 37 35 39 38 31 24 25 26 25 23 16 11 16 17 20 24 24 22 22 24 26 23 19 19 20 21 24 29 27 22 19 21 18 23 35 37 43 49 53 58 59 60 59
45 39 34 34 37 33 28 28 27 28 27 24 14 19 15 17 17 18 20 26 23 24 24 24 21 19 18 20 21 27 28 22 20 24 22 23 34 33 44 49 54 57 59 61 61
40 32 34 33 34 31 26 27 27 28 28 26 23 21 19 22 21 24 23 26 28 24 24 20 22 20 21 21 21 22 23 24 20 21 19 24 26 40 48 51 53 56 58 60 62
33 28 34 35 31 31 27 29 33 27 29 27 28 26 24 24 24 25 25 28 31 29 21 23 20 19 19 21 22 22 25 26 22 26 23 21 29 44 49 51 53 55 56 57 59
32 31 34 33 25 27 30 27 28 27 30 28 27 28 28 28 28 26 26 28 32 29 30 25 21 20 17 17 22 22 23 24 24 25 27 19 30 44 49 51 53 54 55 54 55
32 25 29 32 33 28 28 27 25 28 29 30 29 29 28 28 29 29 25 26 28 29 35 30 23 24 17 22 22 21 19 21 22 21 25 24 37 44 46 48 52 53 54 54 53
33 28 33 26 28 27 27 26 26 25 27 30 30 29 28 28 28 28 26 26 27 31 28 27 26 26 23 21 19 18 15 17 23 25 25 28 34 42 46 47 49 52 53 53 54
33 30 31 30 32 27 30 28 25 26 27 26 29 28 30 31 31 29 28 30 30 29 29 27 27 27 24 21 20 17 17 17 18 21 25 28 36 43 46 48 47 49 50 51 52
44 39 34 33 29 24 27 27 26 29 28 29 30 28 30 32 33 32 31 30 31 31 28 29 27 27 18 22 18 14 17 15 18 20 22 25 37 41 43 44 46 46 48 48 50

GFSSW_sfc_dewp_087.txt.gz
Dewpoint
56 56 55 55 55 56 56 56 56 57 57 56 56 56 56 56 55 48 29 43 44 67 69 55 55 53 57 56 60 61 60 54 53 55 59 62 61 65 65 60 59 59 54 55 57
55 55 54 54 55 55 55 56 56 56 56 56 56 56 57 56 47 35 53 61 61 70 61 52 48 52 53 54 59 59 60 53 54 56 59 62 61 63 61 59 58 57 54 56 57
54 54 54 55 55 55 55 55 56 56 56 56 56 56 57 55 45 27 63 63 60 69 52 44 44 49 49 53 58 57 55 53 54 56 58 60 61 61 61 59 59 56 54 55 57
54 54 54 54 55 54 55 55 55 55 55 55 55 56 57 48 30 49 62 63 64 59 50 39 38 44 46 47 58 56 55 53 53 55 55 57 60 59 59 63 61 59 55 55 56
53 53 53 54 54 54 54 54 54 54 55 55 55 56 54 38 33 57 60 60 47 54 42 36 35 43 42 43 56 55 53 49 51 53 56 58 58 59 61 62 62 60 55 55 55
53 54 54 54 54 54 54 54 54 54 54 55 56 57 47 29 40 49 42 39 38 47 39 36 34 38 35 40 51 52 52 48 45 48 56 57 57 58 61 62 61 60 55 54 54
54 54 54 54 54 54 54 53 53 54 54 55 56 52 44 30 43 40 37 31 40 42 36 35 30 30 36 39 50 49 47 45 45 49 54 55 55 58 62 61 59 57 55 54 53
54 54 54 54 54 54 53 53 54 56 55 55 57 49 40 42 42 40 41 36 39 38 32 31 32 30 35 40 44 47 46 45 46 53 54 55 57 60 63 61 57 55 54 53 53
55 55 54 55 54 53 53 53 56 57 56 56 53 47 35 51 39 41 38 33 33 32 32 32 33 31 36 37 38 44 41 45 48 53 53 55 57 59 62 61 56 55 54 53 54
55 55 55 54 53 53 53 53 55 56 54 51 46 39 42 34 36 38 36 32 30 30 31 29 30 31 31 37 32 36 38 42 46 50 49 52 56 59 61 61 60 55 56 54 54
56 55 55 54 52 52 51 50 48 44 39 31 24 29 31 33 36 35 32 30 29 29 25 24 23 24 26 29 33 33 35 38 51 47 47 49 53 60 61 60 59 59 57 57 55
55 53 54 53 53 53 50 35 31 32 30 28 22 28 32 36 30 34 36 27 27 25 25 21 19 22 21 24 30 35 33 35 46 45 42 44 50 57 59 57 60 59 58 58 56
54 54 53 53 52 48 39 31 31 31 28 25 19 24 29 33 28 31 31 27 25 23 24 20 19 20 19 25 33 36 34 35 36 38 35 37 48 55 59 59 59 60 59 59 56
54 53 52 52 44 34 32 31 29 30 26 20 15 22 26 26 22 29 33 32 23 21 23 22 20 21 22 31 33 32 33 32 33 36 34 39 39 50 56 57 59 59 60 59 58
53 53 52 51 44 30 34 29 29 30 20 14 12 23 22 21 26 28 33 32 27 21 24 21 20 22 26 30 31 27 35 33 31 31 34 37 45 53 54 56 57 60 61 60 60
53 53 52 47 44 32 30 33 30 22 19 14 17 17 18 18 23 29 31 34 32 28 24 21 20 26 26 29 29 33 33 36 33 29 26 27 35 52 48 51 53 57 60 60 61
53 52 50 42 35 35 35 33 24 21 24 16 13 14 16 14 18 25 28 27 29 29 28 28 24 29 32 29 31 34 31 30 28 26 22 24 32 48 47 48 50 52 54 57 61
51 50 48 39 38 36 36 31 28 26 21 19 16 14 11 14 20 24 24 21 28 29 22 23 23 30 34 34 32 32 29 25 27 22 19 24 35 39 46 51 53 56 56 56 55
50 42 39 35 34 36 33 28 33 25 25 19 19 19 12 14 18 21 22 22 24 26 27 21 21 23 26 31 29 31 27 20 18 20 17 28 39 44 48 51 56 58 60 61 56
43 36 36 32 33 34 30 29 26 26 26 23 21 22 17 17 18 20 23 25 23 24 26 26 23 20 19 23 26 27 28 22 20 24 21 30 36 37 46 51 55 58 59 62 62
41 31 34 31 32 31 33 27 26 27 26 25 23 22 23 19 21 21 21 24 25 25 26 23 23 22 20 22 24 26 26 26 21 20 20 27 33 44 49 53 56 56 57 59 63
31 27 29 29 30 28 26 27 31 26 27 26 26 21 22 21 22 22 21 26 28 26 22 25 21 22 19 22 22 23 25 26 23 26 20 26 36 47 48 53 56 55 56 58 60
28 26 29 30 26 22 25 22 25 24 27 26 25 26 25 23 23 21 24 26 28 26 27 24 21 21 20 20 22 22 23 25 23 23 29 20 37 47 49 51 55 54 55 55 57
29 24 24 26 27 24 24 22 23 26 27 29 28 27 26 26 26 25 23 24 27 25 41 36 21 24 20 22 20 23 22 24 23 22 25 27 41 46 48 52 53 54 54 53 54
28 24 31 25 22 24 24 24 21 21 25 29 29 28 27 26 24 24 24 24 25 33 30 25 24 24 22 18 19 21 20 19 23 25 24 38 41 44 46 49 52 52 53 54 54
31 29 26 27 28 24 29 24 21 22 26 22 26 25 27 31 32 26 24 26 27 28 28 24 27 26 22 18 16 16 16 17 20 23 25 34 41 44 46 48 48 50 51 51 52
37 35 31 33 26 21 22 23 21 25 24 26 26 25 28 30 31 31 31 30 32 32 28 30 24 27 20 19 16 14 17 17 17 21 24 33 42 44 45 45 46 47 48 49 50

GFSSW_sfc_dewp_090.txt.gz
Dewpoint
55 55 55 55 55 56 56 56 57 57 57 57 57 57 57 57 57 47 28 37 41 68 67 41 42 46 52 55 59 62 60 56 54 58 60 62 61 66 66 61 61 59 53 55 55
55 55 55 55 55 56 56 56 56 56 57 57 57 57 57 57 44 35 48 63 67 67 46 44 47 50 50 53 57 59 59 53 56 58 60 61 62 64 64 63 57 53 53 55 54
54 55 55 55 55 55 55 55 56 56 56 56 56 57 57 56 43 30 60 65 66 64 51 51 50 47 49 51 57 62 56 54 56 58 61 60 61 62 62 60 53 52 53 54 53
54 54 55 54 55 55 55 55 55 55 55 56 56 57 57 50 37 44 65 64 64 42 54 48 42 45 46 48 56 56 58 53 55 58 58 58 60 60 61 64 58 54 54 53 53
54 54 54 54 54 55 55 55 55 55 55 55 56 56 52 40 26 54 64 61 33 41 52 45 36 42 42 45 54 53 54 54 54 55 58 58 58 58 62 66 62 54 54 53 52
54 55 55 55 54 55 55 54 54 54 55 55 55 56 46 33 37 50 41 33 25 40 50 41 32 39 42 46 53 58 58 50 50 55 57 58 57 58 61 62 59 54 53 52 51
54 54 54 54 55 55 54 54 54 54 55 55 55 52 42 30 39 42 37 31 28 42 43 37 32 35 37 36 47 58 54 47 45 56 57 58 57 59 61 60 59 55 53 52 51
54 54 54 54 54 54 53 53 54 56 57 56 56 49 40 33 40 36 34 29 28 39 40 36 33 30 31 36 40 48 46 43 45 53 56 55 57 60 61 59 57 54 53 51 51
55 55 54 54 53 53 53 53 55 58 59 56 51 49 32 50 37 35 36 29 33 39 37 31 30 28 28 33 37 44 44 44 45 53 54 55 56 59 62 57 56 54 52 51 52
56 56 54 54 54 54 53 53 54 55 54 48 48 41 36 36 30 36 37 32 32 34 30 28 29 28 27 33 33 38 40 44 47 57 55 55 56 59 61 56 55 54 52 52 52
55 55 55 55 54 53 51 49 47 49 41 31 29 33 34 33 33 35 34 30 30 30 27 30 24 23 25 32 36 35 36 42 47 52 52 54 56 57 59 56 54 55 54 53 54
55 55 55 54 54 53 50 45 30 30 30 32 29 23 28 30 30 30 31 27 27 26 28 23 18 22 24 26 31 34 32 45 48 47 57 55 55 57 59 59 59 59 55 56 55
55 55 54 54 53 48 42 32 28 27 26 29 27 20 31 32 29 28 28 27 25 24 24 21 17 18 20 21 22 28 31 42 44 47 53 55 57 55 58 60 60 58 58 57 57
54 54 53 53 46 37 35 29 25 26 26 25 24 20 27 32 26 28 32 25 23 22 21 21 18 17 18 17 20 24 33 40 47 37 39 47 49 55 57 59 59 59 59 59 57
55 53 53 52 45 29 28 25 25 26 22 20 17 21 23 25 24 25 29 24 27 19 20 20 19 17 18 17 22 27 35 39 39 33 30 33 45 53 51 54 57 59 59 59 59
55 54 53 48 45 37 30 29 27 22 21 13 16 20 22 22 20 25 27 30 29 22 19 20 20 19 21 21 30 30 28 35 35 30 28 37 36 52 53 53 55 57 58 58 59
54 53 51 45 35 34 30 29 23 20 28 21 15 17 19 18 20 25 26 29 29 27 22 22 19 19 22 24 28 28 28 30 29 26 24 33 35 52 55 57 57 59 58 59 60
52 51 48 42 39 33 34 31 32 34 32 29 15 14 16 17 17 25 25 27 29 27 23 19 23 19 24 25 27 27 30 28 28 24 22 27 40 46 51 59 58 57 58 62 62
51 44 41 40 42 33 32 34 39 38 35 21 16 17 18 17 21 22 24 23 22 28 32 21 22 21 28 31 34 27 28 27 24 24 21 35 42 48 53 55 57 58 61 62 63
46 38 39 28 31 33 36 37 33 29 23 22 20 21 22 21 20 22 22 28 27 26 29 28 27 26 27 28 32 31 28 26 26 27 24 36 41 44 50 54 56 58 59 62 64
43 35 33 31 27 37 44 40 23 24 24 29 23 21 23 27 26 35 30 27 25 25 28 26 27 22 22 25 27 28 28 28 25 23 22 33 38 47 52 55 56 57 58 59 61
39 32 29 22 25 37 41 24 30 21 22 22 29 26 25 27 28 31 34 26 25 25 27 27 25 23 19 18 21 25 27 27 25 31 34 44 46 52 53 55 56 56 57 58 59
38 23 24 26 36 35 22 20 23 23 25 23 22 26 26 24 27 33 26 23 23 24 31 30 23 23 20 19 21 22 23 24 24 26 37 32 40 53 54 55 55 55 55 57 58
38 24 22 24 22 21 23 20 20 21 25 28 27 22 25 31 27 26 23 22 24 21 44 37 22 28 26 23 21 21 21 23 23 23 28 39 43 50 52 53 54 54 54 55 56
34 19 28 25 21 22 23 21 19 21 22 27 29 28 28 27 25 28 22 22 22 31 27 23 24 25 28 20 19 18 18 19 23 26 39 44 43 50 51 51 53 54 54 54 54
32 27 24 25 25 22 27 22 20 21 26 21 27 24 26 38 34 30 23 24 22 25 26 23 25 26 24 19 17 18 18 19 19 21 33 44 47 51 51 52 52 52 52 52 52
36 33 33 33 24 19 19 20 19 23 20 25 25 24 28 31 32 32 30 30 31 30 27 28 26 25 24 22 18 17 17 17 18 22 39 42 48 48 48 49 49 49 50 50 50

GFSSW_sfc_dewp_093.txt.gz
Dewpoint
55 55 55 55 55 56 56 56 56 57 57 57 57 57 58 58 58 52 31 37 43 60 66 43 37 35 45 51 58 62 59 56 57 58 61 64 60 65 66 62 56 54 55 57 60
55 55 55 55 55 56 56 56 56 56 57 56 57 57 58 58 53 44 47 60 63 66 40 38 36 38 42 48 54 62 58 57 59 60 61 61 61 62 62 62 63 54 56 55 59
55 55 55 54 55 55 55 55 55 55 56 56 56 57 58 57 50 35 65 59 66 65 35 39 39 42 45 48 58 63 59 57 59 60 61 60 61 63 62 60 55 53 54 54 57
54 55 54 54 55 55 55 55 55 55 55 56 56 57 58 52 40 44 69 62 68 48 32 37 50 48 45 46 64 56 61 58 60 60 59 59 62 62 62 62 59 54 54 55 57
54 54 54 54 54 54 54 55 55 54 55 55 55 56 54 47 37 52 66 64 45 35 32 48 51 43 42 45 60 61 57 57 59 59 59 59 59 61 63 65 65 54 54 53 57
53 54 54 54 54 54 54 54 54 54 55 55 55 56 51 35 47 52 44 44 25 26 37 50 50 38 41 42 52 52 53 57 57 58 59 57 58 59 62 63 62 53 53 52 53
54 54 54 54 54 54 54 54 54 54 55 56 55 52 46 40 47 47 39 30 20 26 45 50 50 35 35 38 53 52 50 56 56 57 56 57 57 59 62 61 53 53 52 52 52
54 55 55 54 54 53 53 53 54 55 56 56 55 50 44 35 37 39 37 32 23 30 42 47 40 33 30 35 50 50 57 53 56 57 57 57 57 60 62 62 54 53 52 52 52
54 54 54 54 54 55 54 54 54 55 58 58 53 50 44 49 35 36 33 29 25 32 35 41 37 31 28 27 29 48 47 50 54 57 56 58 57 59 61 60 56 52 52 51 51
55 53 54 55 55 55 54 53 54 55 55 50 45 44 42 37 36 33 35 27 26 31 36 37 29 28 28 27 28 36 43 47 50 58 56 57 56 60 61 58 55 53 52 51 51
54 54 55 55 55 54 51 51 48 48 47 34 37 41 31 37 31 32 36 32 32 35 32 29 26 26 27 27 28 35 40 46 53 53 55 57 57 59 60 57 54 53 51 51 51
54 54 55 55 54 53 51 44 43 28 29 38 31 31 32 30 28 34 35 29 29 29 29 28 26 27 24 25 26 31 34 51 53 55 55 58 57 58 59 56 54 55 53 52 52
54 54 54 54 53 50 44 41 40 26 25 25 32 31 25 28 30 29 30 28 26 27 27 26 25 27 20 22 23 26 27 47 48 53 57 54 54 57 59 57 58 58 56 54 54
54 55 53 53 49 40 34 39 40 26 25 26 29 29 26 31 30 29 28 27 25 24 24 24 25 21 17 18 20 20 28 39 49 48 46 51 47 51 56 58 58 57 58 57 55
55 55 54 52 48 37 34 25 24 27 23 27 25 23 21 28 30 26 28 27 24 21 22 21 21 21 16 17 19 18 42 44 45 43 49 49 49 53 56 56 57 57 58 58 56
55 54 53 50 49 42 39 38 30 24 23 18 17 18 19 24 25 26 30 30 24 25 21 20 21 20 19 18 17 21 31 39 43 44 37 45 49 51 54 56 59 59 59 59 58
53 53 51 47 39 38 38 34 27 30 35 28 24 20 21 23 22 22 26 25 26 27 27 18 17 19 19 21 22 25 28 28 35 35 33 36 46 50 55 56 58 58 59 60 61
52 51 50 47 41 39 38 35 34 36 33 32 29 26 20 20 20 22 25 23 26 29 26 20 18 20 22 23 24 26 27 28 31 28 27 35 46 48 54 55 60 63 63 63 63
51 48 46 42 46 43 39 38 40 36 34 31 25 19 19 19 24 27 25 24 26 29 30 28 21 22 20 23 23 30 27 27 28 28 26 42 47 51 52 53 58 61 61 62 65
49 42 35 39 41 42 35 37 38 35 33 27 23 24 23 24 30 39 35 25 32 29 31 33 26 27 20 28 34 39 32 26 28 27 29 42 45 48 53 55 59 60 61 62 64
48 39 38 37 44 43 42 38 35 27 26 26 28 25 26 29 36 39 38 37 27 27 28 31 30 29 28 28 30 31 31 34 29 29 30 39 44 56 55 56 57 58 59 60 62
40 39 39 29 39 44 40 41 37 22 25 23 29 28 27 31 34 35 38 34 28 24 29 33 27 27 22 23 30 29 29 30 29 28 38 43 46 57 56 56 57 57 58 60 61
44 40 26 28 34 37 39 28 23 24 26 26 26 31 30 29 33 37 35 32 24 25 32 29 32 28 26 28 20 20 24 24 24 33 35 34 46 59 57 55 55 56 58 58 59
45 37 33 33 33 30 29 25 20 18 23 28 30 27 30 32 33 31 30 25 24 23 48 42 26 33 30 28 22 21 22 23 29 28 37 39 50 53 54 53 53 55 56 56 57
47 28 34 29 25 26 29 25 22 23 25 30 36 32 33 34 35 31 32 25 23 38 30 31 29 28 29 29 19 19 19 21 24 39 37 43 50 52 53 53 53 54 54 54 55
42 38 37 30 32 28 30 25 21 21 26 26 28 25 37 38 38 36 36 32 28 30 28 26 31 26 28 23 19 17 19 20 21 42 42 46 51 54 54 53 53 53 52 52 52
49 44 46 37 32 23 23 23 20 31 25 23 26 31 33 33 33 31 30 29 32 33 33 30 31 26 22 28 24 18 20 19 19 40 46 47 51 54 51 50 50 50 49 48 48

GFSSW_sfc_dewp_096.txt.gz
Dewpoint
54 55 55 55 55 56 55 55 56 56 57 57 57 57 57 58 58 54 39 33 41 58 65 50 55 43 35 45 56 63 60 57 58 58 59 63 59 64 65 56 56 57 59 61 64
54 55 55 55 54 55 55 55 55 56 56 56 56 57 57 58 54 49 49 56 61 63 49 36 39 35 38 44 48 61 59 57 60 59 60 61 61 62 62 58 58 58 60 61 62
54 54 54 54 54 54 54 54 55 55 55 55 56 56 57 57 51 44 60 61 62 65 36 34 40 37 38 43 60 61 59 60 59 60 61 60 61 63 62 59 56 56 59 60 61
54 54 54 54 54 54 54 54 54 54 54 55 56 56 57 53 37 44 68 62 67 60 36 30 34 40 45 47 60 55 57 61 61 62 60 58 61 61 61 61 59 58 59 60 59
54 54 54 54 54 54 54 54 54 54 54 55 55 56 53 47 39 45 69 64 59 45 34 30 42 48 49 50 56 55 56 62 62 60 60 61 61 60 59 61 59 55 58 58 58
54 54 54 54 54 54 54 54 54 53 54 55 55 56 49 23 40 55 54 50 36 30 31 36 51 51 45 53 56 58 60 61 62 59 60 60 60 57 60 63 54 54 56 56 57
54 54 54 54 54 54 53 53 53 53 53 54 55 53 48 35 44 50 43 38 27 24 38 34 47 51 44 32 44 56 54 58 59 60 58 59 58 56 59 62 53 53 54 57 57
54 54 53 53 53 53 55 54 54 54 54 55 56 51 41 43 40 37 42 32 26 24 30 44 49 46 40 32 40 52 55 53 59 58 57 59 56 58 60 62 54 53 53 53 58
54 54 53 54 55 55 55 54 54 55 56 57 51 48 39 48 40 37 37 31 24 24 29 31 41 39 31 27 26 49 49 52 57 59 56 58 57 59 62 61 52 52 52 55 58
54 54 54 55 56 55 54 54 54 55 55 52 48 44 42 37 34 35 36 31 25 26 33 34 37 28 27 26 24 29 47 51 54 59 57 57 58 59 60 60 52 52 52 54 56
54 54 54 54 55 54 50 48 47 48 50 32 35 43 40 36 38 35 35 27 27 32 34 34 26 25 26 27 27 27 29 51 55 59 56 57 58 59 60 60 57 53 52 52 55
54 54 53 53 54 53 49 43 45 34 28 44 35 40 37 36 30 31 36 28 30 31 35 28 25 27 28 27 26 28 35 52 55 57 57 55 57 58 60 60 58 54 52 51 53
55 55 55 54 53 48 46 42 43 37 29 24 37 35 35 30 29 32 34 30 28 29 29 27 27 28 27 27 23 22 24 50 52 52 53 53 54 57 59 59 57 56 54 51 52
55 55 55 54 45 44 38 38 38 35 22 23 25 31 32 28 30 31 32 29 27 26 27 26 27 27 27 26 21 19 24 46 54 51 49 51 47 52 55 57 56 57 58 54 52
55 55 54 52 45 37 35 37 39 26 21 32 29 29 22 29 31 29 30 29 24 24 24 23 24 24 24 22 19 17 23 45 50 48 50 50 46 51 54 55 56 58 58 57 54
55 54 53 50 48 45 42 42 29 22 22 30 24 22 20 23 26 29 27 30 29 26 24 23 23 22 21 21 19 19 43 45 49 45 41 47 48 51 53 55 56 57 58 58 57
53 52 51 48 36 40 39 35 28 27 34 30 29 30 24 21 24 26 28 27 26 24 25 27 23 21 20 18 22 21 28 32 38 38 35 46 48 48 54 56 57 57 58 62 64
52 51 50 49 46 41 40 35 30 35 34 33 30 26 23 22 29 31 26 24 25 27 27 26 24 20 20 20 20 24 27 28 32 31 31 45 44 47 56 59 59 61 62 63 63
51 46 46 45 48 43 38 32 33 35 34 33 28 22 24 28 34 33 35 25 24 27 26 28 23 25 26 22 21 22 28 28 30 31 33 46 48 52 56 58 62 61 61 62 63
47 43 37 42 45 39 34 34 36 39 33 31 26 24 27 33 34 36 38 36 32 29 28 31 26 27 27 24 32 26 31 26 27 26 33 44 45 47 51 57 60 60 60 63 64
46 36 37 43 41 38 35 35 37 37 37 25 26 25 31 34 37 37 39 38 36 31 29 32 28 27 28 27 30 31 30 29 28 29 37 40 46 56 56 58 59 60 61 62 63
44 34 39 39 34 41 38 40 39 25 25 23 29 28 31 34 34 36 38 40 39 35 28 32 28 27 26 25 30 31 29 29 27 27 40 42 48 58 58 58 58 59 60 61 62
41 40 38 37 32 34 38 36 36 23 25 29 28 28 29 33 33 36 38 40 38 24 23 25 27 28 26 22 20 20 24 24 27 34 34 38 47 58 57 57 58 58 59 60 60
43 37 28 26 33 29 32 30 19 19 24 27 29 26 29 27 32 33 36 34 33 25 47 42 26 31 27 23 26 18 20 25 25 34 37 43 50 54 55 56 56 56 57 57 57
44 36 25 21 18 22 23 23 24 23 25 26 29 31 29 32 33 33 32 28 24 38 31 30 27 28 26 26 25 18 18 27 35 36 34 49 50 50 54 54 55 55 55 56 56
40 39 41 33 27 20 25 19 19 20 23 23 31 36 36 35 35 32 32 29 30 28 26 26 28 26 28 25 27 18 22 30 36 43 48 50 52 54 54 54 53 54 54 54 55
49 46 44 41 24 16 18 22 24 28 23 27 33 32 31 31 31 28 29 29 28 29 28 29 26 29 27 29 24 19 21 19 35 44 51 48 52 54 53 53 53 52 50 49 49

GFSSW_sfc_dewp_099.txt.gz
Dewpoint
54 54 55 54 55 54 54 54 54 55 55 56 56 56 57 57 58 55 39 31 40 56 68 61 56 48 38 45 56 64 59 56 57 58 58 62 58 63 64 58 58 60 60 62 66
54 54 54 54 54 54 54 54 54 55 55 55 55 56 56 57 54 50 49 51 58 64 49 46 47 42 35 42 48 60 58 58 59 59 59 61 58 62 59 57 58 59 63 65 66
54 54 54 54 54 54 54 54 54 54 54 54 55 56 56 57 49 31 58 59 64 63 40 35 39 35 35 41 55 62 59 59 59 60 60 60 60 63 57 57 58 59 63 64 65
54 54 54 54 54 54 54 54 54 54 54 54 54 56 57 54 11 43 65 63 64 59 37 32 35 36 40 42 61 56 57 61 61 60 60 59 61 62 61 60 60 62 62 63 64
55 54 54 54 54 54 54 54 54 53 53 53 54 56 52 43 30 29 70 62 57 51 34 29 40 46 45 47 55 54 58 61 62 61 60 60 60 61 61 64 61 61 61 62 63
54 53 53 53 53 54 54 53 53 53 53 53 54 55 48 16 14 52 55 56 51 39 33 34 41 49 49 51 54 57 60 58 62 61 59 58 59 60 61 63 59 59 60 61 61
54 54 53 53 53 53 53 52 52 53 52 53 54 53 48 25 44 52 50 47 36 30 30 31 45 51 49 45 56 59 58 59 61 60 60 59 57 56 61 60 58 58 59 59 60
54 54 53 53 53 55 55 55 54 53 53 54 54 51 34 36 42 37 42 35 30 25 33 36 44 48 48 45 40 56 55 54 61 59 59 59 55 57 61 58 55 57 57 58 58
54 54 53 53 54 55 55 54 54 55 54 55 49 47 32 46 40 35 42 33 26 22 28 35 43 41 38 28 26 43 48 51 57 60 57 59 56 57 60 60 53 55 56 56 60
55 54 53 53 53 55 54 53 54 54 56 53 49 42 40 35 36 36 38 31 24 23 28 31 35 33 27 26 27 29 46 52 54 59 57 58 57 55 60 58 57 53 53 55 60
54 54 53 53 52 53 50 49 45 44 48 29 33 33 38 36 37 35 35 30 28 32 32 34 31 27 28 27 27 30 30 52 56 61 57 56 57 56 59 59 54 52 55 56 59
54 54 54 53 53 52 49 38 40 38 33 43 37 40 40 35 31 35 30 25 28 29 34 29 27 27 27 27 27 30 42 53 55 57 57 56 56 58 60 58 55 55 53 56 57
56 54 54 54 53 49 44 40 42 41 33 27 41 35 32 32 30 29 31 30 28 30 31 29 27 28 27 27 25 24 26 53 52 54 55 55 54 57 59 60 61 56 52 56 56
56 55 55 53 43 43 38 41 39 37 23 23 25 29 33 29 27 32 34 31 28 28 28 28 29 27 28 27 24 27 30 42 53 49 46 51 46 52 57 58 60 56 53 54 56
55 55 54 51 43 37 35 41 42 26 23 30 29 30 28 27 30 31 32 27 24 25 25 25 25 26 26 25 22 21 30 45 50 50 47 48 45 50 53 53 57 56 57 52 55
55 54 52 49 48 45 46 41 28 22 26 32 29 30 20 21 27 28 29 28 28 27 26 24 25 24 24 24 22 29 45 48 49 47 42 45 46 49 52 52 57 57 58 56 53
53 52 50 48 34 42 40 35 28 24 33 30 30 30 27 22 24 27 27 26 24 22 22 26 27 25 21 20 21 23 42 40 39 40 37 46 47 46 54 54 56 57 59 58 56
52 51 50 49 47 42 39 32 29 35 34 34 32 25 22 26 33 32 27 26 27 27 26 25 24 23 21 20 17 23 33 34 32 33 36 47 43 48 57 56 58 58 60 63 61
51 46 46 46 49 43 33 29 30 34 33 32 27 24 29 32 34 35 34 30 28 27 25 27 26 27 21 21 22 24 24 29 32 32 35 44 47 52 58 59 58 61 62 63 63
47 43 38 46 45 35 31 30 34 39 33 31 25 25 29 34 32 34 34 35 33 33 27 27 25 28 28 26 31 22 28 25 27 25 31 42 43 46 55 58 59 59 61 63 65
43 36 37 45 39 36 32 31 36 37 38 29 27 28 31 34 36 37 37 35 36 34 31 35 29 27 28 26 30 31 29 29 28 33 33 38 43 54 53 58 58 60 61 62 63
42 30 39 38 32 39 34 37 38 34 31 27 29 30 32 34 35 36 37 38 39 38 26 31 29 27 26 28 27 31 29 29 26 31 40 42 45 58 58 58 59 58 61 61 63
39 38 40 36 28 29 36 36 36 23 23 29 29 29 33 33 31 36 37 41 39 32 20 25 27 26 25 22 25 19 21 32 29 35 39 39 46 58 58 58 59 58 60 61 61
41 24 25 27 32 29 33 30 19 25 25 26 28 27 28 27 33 33 35 35 34 31 48 37 28 29 24 24 27 18 19 24 25 27 38 42 50 55 56 57 57 58 58 58 59
41 34 31 20 20 21 23 23 23 22 25 27 34 31 28 32 33 32 31 29 29 37 31 30 25 28 28 26 28 20 21 24 25 32 33 47 50 53 54 55 56 56 56 55 55
41 38 41 37 27 19 24 19 20 20 23 25 34 35 35 37 35 32 32 28 30 32 29 27 29 27 29 28 27 21 23 27 42 48 48 49 51 55 56 55 55 55 54 54 54
47 46 43 38 19 18 19 21 28 24 25 31 34 32 30 30 30 29 28 29 27 27 28 33 26 31 28 29 23 23 23 23 42 49 49 47 50 55 54 54 54 54 54 52 51

GFSSW_sfc_dewp_102.txt.gz
Dewpoint
54 54 54 54 54 54 54 54 54 54 54 54 55 55 56 56 57 55 41 32 40 58 66 60 54 48 50 52 56 65 59 55 53 57 58 62 59 63 62 58 59 60 60 63 66
54 54 54 54 54 54 54 54 54 54 54 54 54 54 56 57 54 49 49 51 55 65 59 52 48 41 35 43 49 59 58 55 59 60 59 60 59 60 58 58 59 62 64 66 67
54 54 54 54 54 54 54 54 54 54 54 54 54 54 56 56 46 24 54 56 60 66 47 44 44 35 38 41 53 60 58 61 61 61 60 60 60 61 58 57 58 62 64 66 66
54 54 54 53 54 54 54 54 53 53 53 53 53 55 56 53 -3 49 60 61 63 51 35 36 35 36 44 43 59 58 60 59 63 61 60 59 62 59 61 60 62 64 65 65 65
54 53 53 53 53 53 53 53 53 53 53 53 53 55 51 40 28 26 68 61 60 46 33 31 38 42 42 47 56 55 58 62 62 60 61 60 59 60 61 62 63 64 64 64 65
54 54 53 53 53 53 52 52 52 51 52 52 53 55 46 8 13 54 58 54 53 42 33 33 41 49 52 50 53 55 58 58 62 62 60 59 59 58 62 63 62 63 63 64 64
54 54 54 53 53 53 53 53 53 53 52 52 53 53 47 16 40 53 52 48 45 34 31 32 46 49 52 46 55 60 58 58 61 61 59 60 59 60 63 63 61 61 62 63 63
54 54 53 53 53 53 55 55 54 53 52 53 53 50 29 32 41 41 39 35 34 26 32 31 47 49 49 45 44 58 56 53 61 60 60 59 55 61 63 63 59 60 60 62 62
54 54 54 53 53 53 54 54 54 54 53 54 48 45 25 44 42 38 40 32 26 24 26 32 43 44 39 28 29 47 49 52 56 61 59 58 56 60 63 61 58 59 59 60 60
54 54 53 53 52 52 53 53 55 56 55 53 51 42 39 35 39 34 40 24 24 22 27 27 34 33 27 26 27 35 47 51 52 57 59 57 56 58 60 58 57 58 58 58 59
54 54 54 53 53 51 48 50 40 40 47 28 30 32 33 36 36 35 38 32 28 28 29 33 33 34 28 27 29 28 46 53 55 60 56 56 56 56 59 56 58 56 57 58 59
55 54 54 53 53 52 48 35 34 38 35 42 40 39 38 37 31 33 33 29 27 29 33 29 32 33 31 28 31 37 50 54 56 58 57 56 56 56 59 57 58 56 56 58 59
56 54 54 53 52 48 43 38 40 42 32 29 40 36 32 34 30 32 31 28 27 31 33 30 31 29 27 27 25 29 38 53 53 56 58 56 55 56 59 58 57 58 56 57 59
56 55 54 52 46 43 37 39 40 37 24 27 28 30 32 30 27 32 32 31 29 29 31 30 31 27 27 27 29 22 30 52 53 50 48 53 46 55 56 58 59 56 54 57 59
55 55 52 52 44 37 35 41 41 27 22 30 30 30 30 26 28 31 34 28 25 27 28 28 26 27 26 26 23 25 29 50 52 50 47 48 45 49 57 56 58 58 58 55 57
55 54 52 49 49 44 45 40 27 24 25 31 31 30 22 22 27 29 30 29 28 25 25 27 26 24 25 26 24 33 49 48 48 47 42 44 44 46 52 54 57 57 56 54 56
53 52 51 49 32 43 41 34 27 26 33 27 30 31 28 23 25 27 27 26 24 22 22 25 26 25 23 21 23 26 39 40 40 40 39 44 46 44 54 55 57 58 57 54 56
51 50 50 49 47 42 36 28 26 34 32 33 32 25 27 30 34 33 26 26 26 26 26 24 23 26 23 23 19 28 32 37 32 35 37 47 43 45 56 59 58 58 58 56 58
50 44 45 46 49 44 30 28 27 32 32 31 26 26 29 33 33 34 32 27 28 26 22 27 26 29 22 20 21 24 30 35 33 31 39 44 47 52 58 57 59 61 61 60 58
46 43 38 47 47 35 28 29 33 37 35 31 25 27 29 33 32 33 31 34 31 32 28 26 24 28 28 28 32 27 27 26 27 27 31 41 44 44 55 58 59 60 61 62 64
42 35 38 46 40 35 31 30 35 37 38 28 27 31 33 33 36 36 35 33 36 34 30 34 29 27 28 27 28 29 29 28 29 31 33 37 41 53 54 58 59 60 61 62 63
39 31 39 37 32 37 31 35 37 32 35 30 29 31 32 35 36 35 34 35 39 37 24 31 29 27 27 28 29 31 29 28 27 31 38 38 42 56 58 59 60 60 61 63 64
38 37 41 36 27 26 35 35 35 23 24 27 28 29 33 33 30 35 37 39 40 28 20 25 27 27 26 21 27 19 22 32 31 40 39 35 41 58 58 58 59 60 61 61 62
38 24 31 29 31 28 34 29 18 25 26 28 30 27 28 29 32 32 33 35 32 33 46 36 29 28 24 23 27 26 19 27 27 27 38 39 49 56 56 55 58 59 59 60 61
38 34 36 18 21 23 26 22 23 20 23 32 33 33 28 30 31 31 31 29 30 38 33 28 26 28 27 26 27 22 24 24 26 30 35 42 49 53 54 55 56 57 57 58 58
40 37 41 38 30 18 23 20 20 23 24 27 33 32 35 33 33 31 29 26 28 31 29 28 28 28 32 30 24 24 32 30 44 43 47 49 49 54 56 55 56 56 55 55 56
46 45 39 36 18 20 21 23 25 26 25 30 33 32 28 29 29 29 28 28 29 27 29 32 30 30 27 31 27 25 26 35 34 49 49 47 50 55 54 54 54 54 54 54 54

GFSSW_sfc_dewp_105.txt.gz
Dewpoint
54 54 54 54 54 54 54 54 54 54 54 54 54 54 55 56 56 53 32 31 39 59 64 57 54 54 60 60 60 63 59 54 55 57 58 61 57 61 59 57 56 59 57 61 66
54 55 54 54 54 54 54 54 53 53 54 54 54 54 54 56 50 43 43 50 54 65 53 43 42 46 46 53 54 58 58 56 59 61 59 60 58 57 58 58 59 60 63 64 66
54 55 54 54 54 54 54 54 53 53 53 54 53 54 55 55 40 11 57 55 57 62 51 41 40 40 43 44 52 57 57 60 61 62 62 59 58 56 58 57 59 59 61 63 64
54 54 53 53 53 53 53 53 53 53 53 53 53 54 56 53 -7 48 58 58 62 55 47 41 37 39 52 43 52 57 60 60 62 63 61 59 59 59 60 57 59 60 62 63 62
54 54 53 53 52 52 52 52 52 52 52 52 53 54 52 34 19 21 61 59 61 39 38 37 33 42 48 48 55 56 58 61 63 60 59 61 58 60 60 61 62 62 62 60 60
55 53 53 53 53 53 53 53 52 51 51 51 52 54 47 15 25 56 59 57 52 36 33 35 33 47 48 49 53 56 57 59 62 61 60 59 59 57 61 62 61 61 60 61 63
54 54 53 53 53 53 53 53 53 52 52 51 52 53 45 19 35 56 52 48 49 35 31 34 43 47 51 46 53 57 56 58 59 60 59 60 57 59 62 61 61 61 61 62 62
55 54 54 53 53 53 53 54 53 52 52 52 53 52 26 28 38 51 37 40 33 28 31 32 47 50 49 46 48 56 56 53 60 59 60 59 55 61 63 62 60 61 61 62 63
54 54 54 53 53 52 52 53 54 53 52 53 51 46 18 46 39 43 35 27 35 30 26 28 38 45 41 32 49 51 48 52 57 61 60 59 58 60 63 62 59 60 61 62 62
54 54 53 53 53 52 52 53 56 55 53 52 50 43 38 34 37 40 37 30 28 27 26 30 34 42 35 29 37 46 48 51 52 58 59 57 57 60 61 60 59 59 60 61 61
54 54 53 54 53 52 50 51 42 42 48 33 31 32 30 36 35 35 32 25 25 25 27 33 38 41 41 31 31 43 42 51 57 59 57 57 57 60 60 59 59 59 59 60 61
54 54 53 53 53 52 49 36 34 38 35 40 40 37 36 35 32 33 34 25 21 23 32 31 34 40 34 29 30 49 51 52 55 57 57 56 56 60 61 60 58 59 59 59 60
55 54 53 52 52 49 43 37 40 37 34 29 37 36 32 33 32 33 34 26 20 27 31 26 32 36 31 28 30 33 41 52 51 55 57 55 55 56 59 59 59 58 59 59 59
55 55 52 52 46 43 38 40 40 39 27 30 29 31 33 32 29 34 32 26 29 26 33 36 31 33 27 27 28 32 32 52 52 49 45 51 46 54 57 58 59 57 56 57 58
55 54 52 51 45 38 37 42 40 30 22 31 30 31 30 27 30 33 34 32 28 30 31 31 30 29 27 26 28 29 33 52 51 50 49 51 47 51 57 56 57 58 57 55 58
55 52 51 49 49 43 44 37 30 26 23 29 30 30 26 23 28 31 32 31 29 28 28 28 27 28 28 28 30 47 48 50 51 50 44 46 47 49 55 55 57 58 58 56 57
53 51 50 48 32 44 42 35 28 25 32 27 30 28 26 25 28 29 30 29 27 26 28 26 25 25 24 24 28 40 42 39 40 42 34 44 47 44 54 55 57 57 58 58 57
51 50 50 49 48 45 38 30 27 30 29 32 31 26 29 31 33 29 28 28 28 26 25 24 21 26 25 24 23 34 35 32 33 34 35 47 44 45 54 55 57 59 58 59 58
50 46 45 44 48 46 34 25 28 30 31 30 26 27 29 32 32 32 30 27 28 27 25 25 24 29 24 25 24 25 24 30 33 38 37 45 47 50 56 58 57 57 59 58 58
49 43 41 46 46 37 31 29 30 34 35 30 26 30 28 32 31 31 28 33 28 30 30 28 24 27 28 23 27 25 25 23 31 33 32 43 45 45 55 55 56 58 59 58 58
43 38 41 45 42 36 30 29 33 35 37 28 28 31 32 32 35 34 31 33 34 33 31 31 29 29 30 26 23 25 25 28 29 32 30 35 42 52 55 57 59 60 60 60 60
38 35 41 39 35 36 33 33 37 30 34 29 29 31 32 34 34 34 27 31 38 35 26 30 30 29 28 29 29 30 25 28 23 33 38 40 42 57 56 59 59 60 62 63 62
40 40 42 38 28 30 35 34 32 23 27 27 28 29 33 33 30 34 35 37 39 28 25 31 30 29 27 23 26 26 24 31 34 37 39 29 39 57 59 60 61 60 62 62 64
38 31 32 34 32 31 32 28 23 25 28 30 31 29 30 32 34 33 32 34 31 35 44 39 30 31 25 27 28 25 23 28 31 25 33 34 47 55 57 58 60 61 62 62 63
41 36 35 25 24 28 26 24 23 23 26 35 35 34 30 32 31 30 30 30 29 39 31 31 30 29 27 27 26 29 37 27 28 31 32 39 47 52 55 56 58 59 60 60 61
42 40 42 38 29 23 27 24 20 23 27 28 33 32 35 35 33 29 29 30 30 32 33 31 33 32 29 28 23 24 36 37 38 37 42 42 47 54 56 57 58 58 58 59 59
48 47 40 36 22 23 23 25 22 25 25 26 31 33 30 28 29 29 28 29 28 29 33 34 37 34 27 32 30 24 28 42 45 47 47 44 50 56 56 56 56 56 57 58 58

GFSSW_sfc_dewp_108.txt.gz
Dewpoint
55 56 54 54 54 54 54 54 54 54 54 54 54 54 55 55 56 48 28 31 37 61 63 51 49 58 59 60 61 63 60 56 56 56 58 58 58 60 59 57 55 56 54 60 63
55 56 55 54 54 54 54 54 54 54 54 54 54 54 54 56 46 34 49 51 52 64 49 45 43 55 56 58 58 57 59 54 58 59 59 58 57 57 57 56 56 54 58 61 62
56 55 54 54 54 54 54 54 54 54 53 53 53 54 55 55 38 7 57 56 57 64 45 39 38 46 47 52 53 56 57 59 60 61 60 57 56 56 57 56 56 57 59 60 60
55 55 54 53 53 53 52 52 53 53 53 53 53 53 56 48 8 41 59 61 62 52 43 36 37 35 47 48 52 56 58 57 60 62 60 57 57 59 55 56 57 58 58 59 58
55 55 54 53 53 53 53 52 52 52 52 52 53 54 52 37 16 33 57 58 45 47 41 35 32 35 49 49 51 54 58 61 62 62 61 62 58 59 58 58 57 57 57 57 56
55 55 54 53 53 53 53 53 53 52 52 52 52 54 43 27 26 49 46 46 39 39 34 32 30 36 48 49 51 54 57 61 62 61 62 58 58 56 59 57 57 57 56 55 54
55 54 54 54 53 53 53 54 54 53 52 52 52 51 40 27 31 53 46 44 39 36 32 31 31 42 50 50 54 56 56 60 62 60 59 60 55 56 58 57 56 55 56 56 58
54 54 54 54 53 53 52 52 54 53 52 52 54 49 31 24 40 44 42 43 39 35 32 33 39 48 50 44 50 54 56 55 60 60 59 57 53 59 61 57 55 55 55 58 59
55 54 54 54 53 53 52 52 54 53 53 54 50 42 20 41 38 33 31 34 32 29 30 29 38 47 46 39 45 48 47 53 58 61 61 59 56 60 62 57 55 55 55 58 59
55 54 54 54 53 52 53 53 55 54 53 50 47 42 35 25 39 32 28 29 27 26 26 26 36 45 43 37 43 45 48 51 55 59 60 58 58 59 61 58 56 56 55 58 58
54 54 54 53 53 52 50 51 47 47 45 36 30 29 31 36 37 32 31 24 21 21 22 23 28 41 43 38 35 44 45 51 55 58 58 58 58 59 59 59 56 56 56 56 57
54 54 54 53 52 52 48 38 35 36 32 36 36 34 33 33 34 34 27 25 22 14 22 24 23 34 45 38 32 41 43 52 56 57 56 55 57 57 59 58 56 55 54 55 56
56 54 53 52 51 49 41 37 37 38 33 30 31 31 31 31 30 33 30 23 19 16 24 19 20 40 41 34 32 43 44 48 51 55 56 53 52 58 59 59 57 56 56 55 57
56 54 52 52 47 40 37 39 38 38 29 29 29 30 32 31 27 30 31 21 16 17 22 20 28 35 40 34 32 34 40 48 50 49 47 52 48 54 57 57 59 57 56 55 56
55 53 52 51 45 34 37 38 39 36 21 29 28 31 30 29 30 32 30 24 19 18 26 26 27 34 36 37 32 33 34 44 46 44 45 46 46 49 57 56 58 58 56 55 56
54 53 51 48 46 37 39 37 36 26 23 26 27 26 27 27 28 32 30 32 30 23 28 29 32 33 31 32 30 37 38 42 46 43 36 43 46 49 51 54 52 58 56 55 55
52 51 50 47 34 41 38 37 29 23 28 25 26 25 26 26 28 29 30 28 23 23 24 29 29 30 30 30 35 39 41 38 38 37 36 41 43 42 50 54 55 53 56 56 55
51 50 50 46 44 42 37 33 26 26 25 28 26 25 25 28 29 29 29 26 28 23 19 22 23 27 27 27 29 34 39 35 35 34 34 44 40 43 50 54 56 56 56 58 56
50 45 44 43 44 42 35 23 26 26 28 26 24 22 24 27 28 27 28 27 25 25 21 20 21 24 25 25 24 31 32 34 32 34 35 41 43 49 53 54 55 56 57 57 58
48 40 41 43 43 39 27 27 27 30 30 27 23 27 23 25 25 27 26 29 27 28 28 25 22 22 23 23 23 24 30 30 31 30 31 38 39 37 52 54 55 55 56 57 59
44 34 42 43 41 32 24 27 27 28 32 27 26 27 28 27 29 26 26 29 30 29 32 25 25 26 26 23 20 23 23 23 23 27 27 30 36 47 52 54 54 55 56 58 59
38 31 42 38 28 30 23 30 36 23 27 27 28 28 29 30 30 29 26 28 33 31 28 30 26 25 23 23 21 21 22 22 20 28 30 30 41 55 54 55 57 58 58 59 59
40 36 41 37 25 24 31 25 25 22 25 26 26 28 29 30 30 32 31 34 33 28 29 31 26 25 25 26 28 25 24 23 21 20 29 26 29 56 57 58 59 60 60 61 61
38 29 33 38 35 29 26 23 22 24 25 27 28 28 27 29 32 32 29 31 29 32 42 34 27 29 22 27 25 26 24 25 24 23 25 25 33 53 56 58 59 61 62 63 64
41 31 33 23 27 29 27 24 20 21 25 28 31 29 28 29 29 30 29 29 28 37 33 30 30 29 27 27 26 25 24 24 26 26 25 24 28 39 54 57 59 60 61 62 63
42 37 39 32 30 25 27 25 20 21 21 21 31 30 31 32 32 30 30 32 31 30 32 29 32 33 27 25 25 25 31 29 25 25 28 29 32 50 55 58 59 60 61 61 63
47 48 43 33 25 23 24 23 20 20 23 22 25 33 30 30 31 31 27 27 28 31 30 31 30 33 28 28 27 25 30 36 37 39 38 30 45 53 56 56 57 59 60 61 61

GFSSW_sfc_dewp_111.txt.gz
Dewpoint
56 56 55 54 54 55 55 55 54 54 54 54 55 55 55 55 56 50 31 39 41 60 64 47 51 50 55 56 60 61 61 56 55 57 58 57 56 58 58 55 54 54 54 57 58
56 56 55 54 53 53 54 55 55 54 54 54 54 55 55 55 49 38 52 59 54 65 52 44 42 47 52 55 58 58 59 55 57 58 59 57 57 58 57 55 54 53 56 57 58
56 56 55 54 53 53 53 53 54 55 54 54 54 54 55 55 44 23 62 62 60 60 42 40 38 46 49 54 58 55 57 58 59 60 59 57 57 56 55 54 53 55 56 57 56
55 55 54 54 53 53 53 53 52 53 53 53 53 54 55 50 23 39 57 63 63 45 42 37 34 41 37 49 53 55 56 58 60 61 59 55 56 56 56 55 55 56 57 56 55
55 55 55 54 54 54 53 53 53 53 53 52 53 54 52 41 29 48 59 62 39 43 40 35 33 34 37 50 49 54 56 59 60 60 60 58 57 56 55 55 56 56 55 55 53
55 55 55 54 54 54 54 54 54 53 53 53 54 54 47 35 22 40 38 38 27 42 37 34 31 33 44 52 50 55 58 59 59 60 59 57 56 55 55 55 55 55 53 53 52
55 55 55 54 54 54 53 53 54 54 53 53 54 50 42 31 27 44 38 25 23 36 33 32 30 29 46 50 54 56 57 59 60 60 59 57 53 54 55 54 54 53 53 51 51
55 55 55 55 54 54 53 53 53 54 53 53 54 48 39 28 32 45 40 36 32 29 31 28 29 29 45 49 52 54 57 55 60 60 62 58 52 58 56 54 52 51 50 51 53
55 55 55 55 54 53 54 53 54 55 54 54 52 46 28 34 35 37 38 35 30 31 32 29 32 34 48 44 46 51 48 55 58 62 60 58 55 57 59 52 51 51 51 53 56
56 55 54 54 54 53 54 53 56 55 53 49 44 38 32 22 34 29 32 34 26 27 29 28 27 35 45 42 40 44 49 51 55 59 60 58 56 58 60 54 50 50 51 54 56
56 56 55 53 54 53 51 52 49 49 45 36 31 29 29 32 34 31 22 26 23 25 22 22 21 32 41 42 39 46 47 52 53 60 57 57 57 55 58 59 54 52 52 55 55
56 55 54 53 53 52 50 38 33 33 32 32 30 29 30 32 28 30 23 18 17 19 22 19 18 27 39 42 37 38 53 53 55 59 56 56 57 58 59 58 56 55 53 54 55
56 55 54 53 52 49 42 36 35 35 33 28 28 28 29 29 28 27 26 24 17 12 16 19 18 22 35 43 36 35 48 52 53 56 57 55 55 56 57 59 59 54 54 54 55
56 54 54 53 48 37 33 37 36 36 30 28 28 29 30 25 26 29 25 21 18 12 15 20 17 20 32 39 36 35 48 52 53 51 48 51 47 53 57 57 58 58 53 53 55
55 53 52 51 46 34 34 35 35 37 32 28 27 30 30 28 26 26 27 19 15 13 17 18 18 23 34 37 35 37 37 57 49 46 47 48 47 52 56 54 55 57 56 54 54
54 53 52 49 46 36 33 35 36 29 24 25 26 26 27 26 24 25 25 25 27 16 17 21 23 26 30 36 36 36 37 43 46 43 40 45 44 50 54 54 55 56 57 55 58
53 52 51 47 35 36 35 34 33 24 25 22 23 23 25 24 27 27 25 24 23 20 22 25 26 26 30 30 32 35 37 45 45 40 40 44 42 44 52 52 53 55 57 56 57
51 51 50 44 38 35 37 34 25 21 22 23 23 22 26 25 25 25 25 22 22 20 15 18 21 27 28 29 29 35 35 43 38 38 40 40 39 48 48 51 54 54 57 58 55
51 47 41 40 40 38 37 27 25 24 24 22 20 21 26 25 27 25 26 22 23 23 21 17 19 24 25 24 28 30 34 38 41 35 37 42 42 51 50 51 53 53 56 56 56
49 37 36 39 41 39 34 25 24 26 26 23 25 26 25 22 21 23 23 27 26 24 25 25 21 22 22 23 22 23 30 30 33 33 34 42 44 38 50 51 53 53 55 55 57
47 34 36 38 38 36 27 23 22 22 27 25 22 21 24 24 24 29 28 28 24 25 27 24 22 21 21 22 21 20 21 28 27 29 30 34 42 48 52 52 53 53 55 57 56
39 32 34 37 33 26 23 24 31 19 24 24 24 24 24 25 25 23 26 29 28 27 25 24 22 20 22 20 20 19 20 21 21 29 26 25 41 47 51 53 53 53 55 56 58
40 29 31 33 28 22 23 19 19 19 21 22 25 26 26 26 27 28 29 31 29 27 31 30 23 23 21 19 20 17 18 20 17 19 26 22 39 54 54 55 56 55 56 57 60
38 28 28 28 26 26 24 21 20 18 19 21 23 26 26 26 27 32 26 28 28 29 47 37 25 28 24 32 30 25 20 21 18 16 20 19 46 52 54 56 59 59 58 58 60
36 28 28 25 22 24 24 22 18 18 21 22 28 27 27 28 27 26 26 29 27 39 33 29 29 27 26 30 31 25 19 17 21 23 23 22 25 45 53 56 58 60 62 62 64
40 32 24 28 25 24 24 21 16 16 16 18 28 26 28 31 34 34 28 28 29 29 30 28 29 29 32 28 29 24 24 23 20 20 22 23 26 42 54 58 59 61 62 62 64
44 42 38 32 23 21 22 22 19 15 18 16 24 30 27 30 30 30 27 29 29 32 31 31 29 33 29 24 23 26 24 25 25 23 21 26 45 42 58 58 59 60 61 62 63

GFSSW_sfc_dewp_114.txt.gz
Dewpoint
56 56 56 55 55 54 54 55 55 55 55 55 55 55 56 56 56 49 34 39 43 62 62 42 43 48 51 55 58 61 60 56 55 56 58 61 56 60 57 54 52 53 52 54 56
56 56 55 55 54 54 54 54 55 55 55 55 55 55 55 56 49 41 49 61 60 61 41 45 45 48 46 51 57 59 59 56 57 58 59 59 59 58 55 52 52 53 54 53 54
55 55 55 54 54 54 54 54 53 54 54 55 55 55 55 54 46 33 66 63 60 55 37 43 41 41 45 50 55 57 58 58 58 60 62 60 55 54 53 53 53 55 53 54 53
55 55 56 55 55 54 54 54 54 54 54 54 54 55 55 48 32 41 62 62 62 24 36 40 37 38 44 45 52 55 56 59 59 60 62 59 57 55 53 55 53 55 54 53 52
56 55 55 55 55 54 54 55 55 54 54 54 54 54 50 42 36 50 64 63 38 21 35 39 35 34 39 44 51 55 57 59 59 59 61 61 56 57 57 57 55 55 54 52 51
55 55 55 55 55 55 55 55 55 55 55 54 55 55 45 38 28 41 43 47 15 20 35 38 34 33 34 43 53 57 58 58 60 59 60 56 55 55 57 52 54 54 53 51 50
56 56 55 55 55 55 55 54 54 54 55 55 55 50 42 35 29 27 37 33 16 19 35 36 33 32 33 49 55 57 57 57 58 60 58 55 52 53 52 52 53 52 52 50 50
55 55 55 55 55 55 54 54 54 54 55 55 54 47 42 30 31 37 41 21 20 27 35 34 32 29 29 51 54 54 57 55 58 60 61 58 52 55 52 52 51 51 50 50 51
56 55 55 55 55 55 54 54 55 56 56 55 52 46 36 31 23 35 37 28 25 24 31 29 28 27 29 39 48 52 51 55 57 61 61 58 54 54 56 50 50 50 48 48 53
56 56 56 55 54 54 54 54 56 55 54 49 46 40 38 23 27 33 35 33 26 27 29 28 26 27 30 41 39 46 48 53 55 60 60 58 57 52 58 57 49 49 48 51 53
57 57 56 55 54 53 51 50 50 47 48 37 35 32 27 27 32 26 30 32 25 26 27 28 25 22 29 42 43 44 48 53 55 59 57 55 56 57 59 59 54 50 49 55 54
56 56 56 55 54 53 50 42 32 31 32 37 28 28 27 31 28 26 21 23 21 20 22 20 19 20 28 40 45 43 46 53 57 58 56 55 55 58 59 59 57 53 53 54 55
56 56 55 54 53 50 41 37 34 33 33 26 26 25 25 29 25 26 19 18 16 17 18 20 17 18 23 36 42 44 43 52 53 57 56 54 53 54 56 59 60 59 54 55 58
56 55 54 53 49 41 35 34 33 34 35 28 26 26 27 25 27 25 23 21 19 11 12 17 19 17 19 35 42 39 53 53 56 53 49 53 47 53 55 57 60 61 55 57 60
54 53 52 52 47 33 31 30 34 34 32 26 26 29 28 25 25 25 21 21 16 14 10 12 17 17 18 24 43 41 46 54 53 53 50 51 48 53 54 53 57 59 56 56 58
53 53 52 49 48 37 32 32 34 36 28 23 24 25 25 26 24 24 21 23 18 17 12 14 17 18 19 31 36 40 48 48 52 53 48 47 46 48 53 52 53 56 57 57 55
53 52 51 48 39 34 34 34 34 30 22 23 23 23 25 24 24 25 21 19 22 16 15 14 20 22 24 26 36 37 38 45 45 46 44 47 45 47 53 53 51 53 56 56 57
52 51 50 44 38 38 35 34 33 20 19 18 18 28 32 28 24 24 21 18 21 17 14 16 18 24 25 27 33 32 32 38 37 41 43 47 43 49 51 52 53 53 55 57 57
51 45 44 42 40 38 35 32 30 23 19 21 18 22 26 26 27 23 23 20 18 21 20 21 14 22 25 27 28 28 30 33 41 47 43 47 51 48 51 51 52 54 56 57 60
48 43 36 29 35 37 34 26 20 19 21 21 25 26 29 28 19 23 28 26 27 23 23 25 24 18 23 23 23 26 27 28 40 40 36 45 47 51 50 50 52 53 54 56 57
43 39 32 27 33 34 32 21 18 16 22 22 23 22 27 28 25 25 29 28 26 25 26 25 24 20 23 22 20 19 21 24 25 35 38 37 42 54 54 55 54 55 55 55 53
39 37 28 33 32 30 24 21 30 17 22 21 19 21 24 26 26 28 32 30 27 24 25 24 21 22 22 20 20 20 20 17 19 29 29 31 33 50 55 57 54 56 56 58 57
38 37 25 32 31 27 22 18 17 18 17 18 23 23 25 24 26 32 35 30 26 24 32 31 25 20 21 21 23 19 19 19 16 18 28 21 40 51 53 55 55 54 57 59 58
41 32 26 27 25 25 23 21 18 17 13 16 21 24 25 25 24 28 29 31 25 26 50 38 27 27 25 31 33 32 28 15 15 16 18 17 41 43 44 53 53 55 58 60 61
37 33 30 24 22 22 24 24 16 16 19 18 27 24 26 30 28 26 28 31 29 41 28 26 27 27 25 28 29 30 31 28 17 21 20 19 40 47 50 53 56 57 59 61 62
39 39 37 25 27 23 24 19 15 15 15 17 20 25 25 29 33 32 31 30 32 33 34 28 28 27 25 25 30 27 28 28 21 16 19 21 26 45 57 53 55 60 61 64 62
41 42 39 36 22 19 22 22 18 15 18 12 18 25 29 31 29 30 29 26 31 37 41 39 32 34 30 27 30 26 28 29 26 21 24 24 52 53 50 52 55 61 62 64 64

GFSSW_sfc_dewp_117.txt.gz
Dewpoint
56 55 55 55 55 54 55 55 55 55 56 56 56 56 57 57 57 51 41 38 46 60 62 43 36 38 45 49 60 62 58 56 55 55 57 61 57 58 57 52 52 52 56 58 58
56 55 55 56 55 55 55 55 55 55 55 56 56 56 56 57 50 44 51 63 64 64 27 41 38 40 44 48 57 60 56 57 61 56 59 62 59 57 57 55 52 52 57 55 61
55 55 56 56 56 55 55 55 55 55 54 55 55 55 56 55 48 41 66 62 63 57 24 37 44 45 44 45 55 58 57 59 61 58 60 61 59 54 57 55 51 52 53 55 58
56 56 56 56 56 55 55 55 55 55 55 55 55 55 56 51 37 43 67 66 65 31 20 29 39 39 39 43 54 57 58 58 61 61 61 61 63 59 57 55 55 53 53 52 52
57 56 56 56 56 56 56 55 55 55 56 55 55 55 52 46 39 46 65 62 43 23 17 32 38 37 35 45 56 56 59 60 60 61 61 63 62 59 58 57 55 53 52 52 52
57 57 56 56 56 56 56 56 55 55 55 56 55 55 49 37 40 48 50 49 38 22 21 31 39 36 34 43 55 59 62 59 61 61 61 59 62 58 58 57 54 53 51 51 51
56 56 56 56 56 56 56 55 55 55 55 56 55 52 44 42 35 40 44 45 40 11 23 33 39 34 32 46 57 59 58 59 59 61 60 59 58 55 57 55 54 53 51 51 50
57 57 56 56 56 55 55 55 55 55 55 56 55 50 42 40 38 33 34 34 31 14 17 33 38 34 30 54 59 58 58 55 59 60 60 60 52 57 56 54 53 52 51 50 52
57 57 56 56 55 55 55 54 55 57 57 56 52 47 43 41 25 29 33 24 17 19 20 30 34 31 28 29 53 55 52 54 55 61 59 58 54 56 58 53 51 51 50 50 52
57 57 57 56 56 55 54 54 55 57 55 51 46 43 42 33 23 23 36 32 17 21 24 28 28 25 25 28 36 50 52 53 55 58 59 57 56 56 58 58 51 50 48 51 52
57 56 56 56 55 54 52 48 51 51 48 44 39 37 28 32 32 29 33 33 28 25 25 28 25 24 25 28 31 48 52 53 57 59 57 57 55 55 57 59 59 53 48 52 52
56 56 56 55 55 54 51 42 40 32 32 38 40 31 27 29 29 26 30 30 25 23 27 28 25 26 25 43 47 48 52 53 56 58 56 55 54 56 58 58 60 60 52 53 54
56 55 55 54 53 51 44 39 36 35 32 34 36 25 25 28 26 25 20 23 20 20 22 21 22 24 20 28 46 50 49 52 53 56 56 54 52 55 58 58 59 60 59 54 56
55 54 53 52 49 44 39 41 41 34 34 32 25 26 26 25 27 26 19 21 17 16 17 19 20 18 17 18 37 48 55 54 55 52 49 54 46 53 55 56 57 59 61 54 57
55 53 52 52 49 39 33 32 33 34 33 30 26 29 29 23 27 24 23 22 21 15 12 12 15 16 17 17 47 51 55 53 52 51 52 50 49 51 55 54 55 57 59 59 57
55 53 52 50 50 45 38 33 34 32 30 24 25 25 26 25 26 25 21 20 22 18 17 12 14 17 19 26 45 54 54 53 53 52 46 48 49 50 52 52 54 56 58 59 60
53 52 51 49 45 42 39 36 34 32 28 25 24 24 27 28 24 22 21 21 19 20 18 13 12 18 20 42 46 48 46 44 43 45 45 50 49 50 53 53 52 53 57 60 62
52 51 50 47 42 37 38 36 35 28 20 19 20 29 30 29 30 24 21 19 19 21 17 15 13 22 24 25 41 47 45 43 37 41 45 50 48 49 51 53 52 54 54 58 60
51 50 45 47 49 42 39 34 35 24 19 21 27 30 30 29 28 24 22 20 18 19 22 21 19 21 24 25 30 34 32 31 45 47 44 48 49 53 51 54 51 53 55 57 57
50 45 43 44 43 39 39 36 23 17 18 23 26 31 30 28 27 30 31 30 26 27 25 25 25 26 23 25 25 33 28 33 42 40 39 46 46 47 51 50 52 50 53 56 59
51 41 41 39 37 41 35 32 25 14 19 22 23 28 28 31 28 32 32 31 28 26 26 25 29 26 24 24 22 21 22 27 34 39 39 38 45 53 52 54 56 55 52 54 58
46 40 41 31 37 38 33 25 28 17 25 23 24 24 26 27 30 36 34 34 29 26 30 30 24 22 21 24 23 22 21 20 20 20 35 40 39 51 53 56 55 57 57 54 58
46 38 40 30 33 32 30 18 20 18 16 18 21 23 26 25 36 38 37 34 29 31 32 30 31 25 23 30 34 29 26 33 21 17 19 24 41 52 54 51 46 52 58 57 56
48 40 38 37 34 28 29 27 21 18 12 19 24 25 28 30 30 38 35 30 27 29 53 38 27 28 25 29 31 32 30 30 30 17 20 18 44 48 49 52 53 56 56 57 59
48 38 39 36 33 29 28 26 20 22 22 26 35 27 28 30 34 34 33 33 34 43 34 27 26 28 26 27 28 29 28 29 31 43 32 33 42 50 56 56 58 62 59 60 60
46 44 41 40 35 35 32 28 19 16 19 17 24 27 29 33 33 32 32 36 38 35 36 36 33 35 32 31 33 30 34 34 41 44 46 41 51 55 59 56 56 57 64 61 62
53 51 49 44 36 29 28 29 19 24 25 22 18 22 32 34 33 30 27 28 34 35 37 35 36 35 30 34 33 33 37 38 40 45 47 50 51 51 51 53 53 56 64 64 64

GFSSW_sfc_dewp_120.txt.gz
Dewpoint
56 55 55 56 56 56 55 55 55 55 55 56 56 56 56 57 57 52 41 39 48 59 64 37 46 38 35 44 51 64 57 55 55 55 57 60 55 57 55 54 56 56 59 60 63
56 55 56 56 56 56 56 56 55 56 55 55 55 55 56 57 52 46 48 59 62 66 34 26 44 36 40 46 53 59 55 55 57 57 59 61 59 54 53 52 54 56 58 61 62
56 56 57 56 57 56 56 56 56 55 55 55 55 55 55 55 48 43 62 62 65 63 29 25 32 43 42 46 54 59 57 60 58 58 61 59 59 56 55 55 56 57 58 61 62
56 56 57 57 56 57 56 56 56 55 55 55 55 56 56 52 36 42 64 66 68 38 22 23 32 38 40 41 50 58 58 60 62 60 60 60 61 59 59 56 57 58 60 60 60
56 56 57 57 57 56 57 56 56 56 55 55 56 56 52 45 40 41 67 67 53 24 17 19 34 38 37 42 57 58 59 61 62 62 61 60 61 61 61 60 57 57 59 59 59
57 56 57 57 56 56 56 56 56 56 55 55 56 56 48 34 40 50 47 42 34 18 13 22 35 39 37 36 54 60 60 61 61 59 59 58 60 62 60 57 53 54 52 56 59
57 57 57 57 57 56 55 56 55 55 55 55 56 53 46 38 43 51 46 45 42 25 16 21 30 36 36 46 59 60 58 59 60 60 56 58 57 58 59 54 53 51 51 52 56
57 57 56 56 56 56 55 54 55 56 56 56 56 51 39 42 43 39 44 44 42 17 12 23 33 36 35 56 59 56 57 54 59 60 60 59 53 59 59 56 54 50 50 53 59
57 57 56 56 56 56 55 55 55 56 57 56 51 48 42 50 34 31 36 30 34 28 14 13 27 32 32 46 50 53 49 54 56 61 59 58 54 59 60 56 51 50 50 55 58
57 56 57 57 56 55 54 54 54 55 55 54 50 43 41 36 26 24 28 28 18 18 21 22 27 28 26 25 27 48 51 53 53 58 59 57 56 57 58 58 55 51 51 53 55
56 56 55 56 55 54 51 47 42 43 49 42 38 38 36 33 30 28 31 33 19 22 21 26 25 23 25 25 36 52 53 52 55 59 56 56 57 57 57 58 59 59 50 52 54
56 55 54 54 54 53 50 40 38 40 32 43 43 43 41 32 30 29 30 31 26 23 27 27 25 26 26 26 37 51 50 52 55 57 56 56 55 58 58 57 60 60 58 52 54
56 54 53 53 53 50 46 42 40 37 32 32 37 39 32 26 28 27 28 26 24 23 24 25 26 27 26 25 43 49 48 52 53 56 56 55 52 55 57 59 59 60 60 54 56
56 55 53 52 47 47 39 39 38 37 32 34 26 27 26 26 24 28 21 21 23 18 19 23 24 22 25 24 47 47 52 53 54 52 49 54 46 52 55 56 57 59 60 60 57
55 55 52 52 47 41 28 34 36 34 29 34 26 28 27 23 25 21 20 19 17 18 15 13 14 19 19 18 48 52 53 53 53 51 51 50 48 49 55 54 55 58 59 60 60
55 54 52 50 49 47 44 42 34 31 30 30 25 26 27 26 25 24 22 24 22 20 19 15 13 14 23 38 49 54 52 53 53 51 45 48 49 48 51 52 54 57 58 59 60
54 52 50 49 43 45 39 36 32 32 30 23 24 24 25 28 27 23 22 19 19 19 18 16 13 33 53 52 53 52 48 45 43 44 43 51 49 48 52 52 53 54 57 59 60
52 50 50 49 48 45 38 35 32 29 19 26 28 29 30 30 31 23 21 19 21 20 19 18 11 23 42 48 46 47 42 40 36 40 44 50 46 47 52 51 53 53 57 59 61
50 48 46 47 48 44 36 32 33 18 17 21 28 29 29 30 30 26 20 20 21 18 18 20 21 24 26 39 44 42 42 43 43 45 43 47 50 53 53 54 53 53 57 59 61
48 45 41 44 46 39 35 34 32 16 16 23 23 29 28 27 28 31 32 31 28 27 24 25 22 25 25 29 41 35 36 37 43 37 37 45 45 46 47 51 51 52 53 54 59
48 36 37 44 39 36 32 33 30 14 21 22 19 23 25 28 32 34 34 33 29 28 29 32 24 23 23 23 22 20 21 21 35 39 38 41 44 51 49 53 53 52 53 53 55
47 33 40 35 30 33 30 31 28 16 18 17 21 23 23 32 35 34 34 34 33 31 27 33 25 25 21 22 31 22 20 19 18 16 38 37 38 48 51 55 55 54 52 52 54
41 42 38 33 27 30 32 27 16 17 14 15 20 21 24 24 30 37 36 37 31 29 26 28 27 25 25 28 30 32 31 36 23 21 20 29 24 52 51 55 55 55 57 55 55
45 39 38 32 33 36 28 24 16 19 15 17 21 22 27 30 34 34 33 32 33 31 54 37 25 26 23 27 30 28 30 37 34 38 37 27 27 51 51 52 53 54 57 57 55
46 39 36 38 39 36 25 21 19 20 17 18 25 27 27 28 30 31 32 31 34 44 36 29 26 31 31 33 37 37 38 42 43 43 43 46 47 51 53 55 58 61 61 59 61
39 43 46 43 40 29 31 20 14 15 14 17 15 20 33 31 28 27 27 32 32 33 35 33 26 35 32 34 37 37 39 43 44 45 46 50 50 53 56 56 59 61 62 63 62
48 50 48 44 41 33 26 18 17 22 24 14 17 18 27 27 30 29 33 31 30 33 32 31 31 32 30 34 33 37 39 43 44 50 50 50 53 52 50 53 54 59 60 62 63